<?xml version="1.0" encoding="UTF-8" standalone="no" ?>
<gpx xmlns="http://www.topografix.com/GPX/1/1" xmlns:xsi="http://www.w3.org/2001/XMLSchema-instance" xsi:schemaLocation="http://www.topografix.com/GPX/1/1 http://www.topografix.com/GPX/1/1/gpx.xsd" version="1.1" creator="VisuGPX - https://www.visugpx.com">
  <metadata>
    <name>Randonnée La Ferté St Samson</name>
    <desc><![CDATA[Circuit varié en forêt et plaine en passant par Forges les Eaux]]></desc>
  </metadata>
  <wpt lat="49.57779" lon="1.52591">
    <ele>60</ele>
  </wpt>
  <trk>
    <name><![CDATA[Randonnée La Ferté St Samson_1]]></name>
    <trkseg>
      <trkpt lat="49.57779" lon="1.52591">
        <ele>60</ele>
        <time>2013-07-04T07:32:33Z</time>
      </trkpt>
      <trkpt lat="49.57808" lon="1.52574">
        <ele>60</ele>
        <time>2013-07-04T07:32:34Z</time>
      </trkpt>
      <trkpt lat="49.57779" lon="1.52597">
        <ele>60</ele>
        <time>2013-07-04T07:32:36Z</time>
      </trkpt>
      <trkpt lat="49.57789" lon="1.52609">
        <ele>60</ele>
        <time>2013-07-04T07:32:39Z</time>
      </trkpt>
      <trkpt lat="49.57774" lon="1.52599">
        <ele>60</ele>
        <time>2013-07-04T07:32:46Z</time>
      </trkpt>
      <trkpt lat="49.57789" lon="1.52604">
        <ele>60</ele>
        <time>2013-07-04T07:32:48Z</time>
      </trkpt>
      <trkpt lat="49.57785" lon="1.5266">
        <ele>209</ele>
        <time>2013-07-04T07:32:50Z</time>
      </trkpt>
      <trkpt lat="49.57775" lon="1.52659">
        <ele>190</ele>
        <time>2013-07-04T07:33:04Z</time>
      </trkpt>
      <trkpt lat="49.57766" lon="1.52657">
        <ele>190</ele>
        <time>2013-07-04T07:33:06Z</time>
      </trkpt>
      <trkpt lat="49.57776" lon="1.52657">
        <ele>177</ele>
        <time>2013-07-04T07:33:20Z</time>
      </trkpt>
      <trkpt lat="49.57785" lon="1.52662">
        <ele>177</ele>
        <time>2013-07-04T07:33:29Z</time>
      </trkpt>
      <trkpt lat="49.57795" lon="1.52662">
        <ele>146</ele>
        <time>2013-07-04T07:33:49Z</time>
      </trkpt>
      <trkpt lat="49.57785" lon="1.52661">
        <ele>178</ele>
        <time>2013-07-04T07:34:14Z</time>
      </trkpt>
      <trkpt lat="49.57788" lon="1.52674">
        <ele>178</ele>
        <time>2013-07-04T07:34:37Z</time>
      </trkpt>
      <trkpt lat="49.57797" lon="1.52676">
        <ele>178</ele>
        <time>2013-07-04T07:34:45Z</time>
      </trkpt>
      <trkpt lat="49.57787" lon="1.52673">
        <ele>178</ele>
        <time>2013-07-04T07:35:17Z</time>
      </trkpt>
      <trkpt lat="49.57783" lon="1.52686">
        <ele>158</ele>
        <time>2013-07-04T07:35:55Z</time>
      </trkpt>
      <trkpt lat="49.57787" lon="1.52673">
        <ele>172</ele>
        <time>2013-07-04T07:37:38Z</time>
      </trkpt>
      <trkpt lat="49.57785" lon="1.52659">
        <ele>193</ele>
        <time>2013-07-04T07:41:22Z</time>
      </trkpt>
      <trkpt lat="49.5779" lon="1.52671">
        <ele>184</ele>
        <time>2013-07-04T07:42:54Z</time>
      </trkpt>
      <trkpt lat="49.57796" lon="1.52681">
        <ele>190</ele>
        <time>2013-07-04T07:44:19Z</time>
      </trkpt>
      <trkpt lat="49.57805" lon="1.52676">
        <ele>190</ele>
        <time>2013-07-04T07:45:09Z</time>
      </trkpt>
      <trkpt lat="49.57812" lon="1.52663">
        <ele>190</ele>
        <time>2013-07-04T07:45:18Z</time>
      </trkpt>
      <trkpt lat="49.57818" lon="1.5265">
        <ele>197</ele>
        <time>2013-07-04T07:45:24Z</time>
      </trkpt>
      <trkpt lat="49.57825" lon="1.52635">
        <ele>197</ele>
        <time>2013-07-04T07:45:32Z</time>
      </trkpt>
      <trkpt lat="49.57832" lon="1.52625">
        <ele>197</ele>
        <time>2013-07-04T07:45:38Z</time>
      </trkpt>
      <trkpt lat="49.57838" lon="1.52614">
        <ele>197</ele>
        <time>2013-07-04T07:45:44Z</time>
      </trkpt>
      <trkpt lat="49.57842" lon="1.52601">
        <ele>190</ele>
        <time>2013-07-04T07:45:54Z</time>
      </trkpt>
      <trkpt lat="49.57846" lon="1.52587">
        <ele>190</ele>
        <time>2013-07-04T07:46:01Z</time>
      </trkpt>
      <trkpt lat="49.57843" lon="1.52573">
        <ele>182</ele>
        <time>2013-07-04T07:46:12Z</time>
      </trkpt>
      <trkpt lat="49.57846" lon="1.52559">
        <ele>187</ele>
        <time>2013-07-04T07:46:22Z</time>
      </trkpt>
      <trkpt lat="49.57846" lon="1.52544">
        <ele>187</ele>
        <time>2013-07-04T07:46:31Z</time>
      </trkpt>
      <trkpt lat="49.57843" lon="1.52529">
        <ele>187</ele>
        <time>2013-07-04T07:46:39Z</time>
      </trkpt>
      <trkpt lat="49.57842" lon="1.52515">
        <ele>194</ele>
        <time>2013-07-04T07:46:49Z</time>
      </trkpt>
      <trkpt lat="49.57835" lon="1.52504">
        <ele>194</ele>
        <time>2013-07-04T07:46:56Z</time>
      </trkpt>
      <trkpt lat="49.57828" lon="1.52494">
        <ele>194</ele>
        <time>2013-07-04T07:47:03Z</time>
      </trkpt>
      <trkpt lat="49.57829" lon="1.52479">
        <ele>194</ele>
        <time>2013-07-04T07:47:17Z</time>
      </trkpt>
      <trkpt lat="49.57825" lon="1.52466">
        <ele>194</ele>
        <time>2013-07-04T07:47:55Z</time>
      </trkpt>
      <trkpt lat="49.57823" lon="1.52451">
        <ele>194</ele>
        <time>2013-07-04T07:48:06Z</time>
      </trkpt>
      <trkpt lat="49.57816" lon="1.52441">
        <ele>194</ele>
        <time>2013-07-04T07:48:14Z</time>
      </trkpt>
      <trkpt lat="49.5781" lon="1.52431">
        <ele>188</ele>
        <time>2013-07-04T07:49:00Z</time>
      </trkpt>
      <trkpt lat="49.57804" lon="1.52421">
        <ele>188</ele>
        <time>2013-07-04T07:49:17Z</time>
      </trkpt>
      <trkpt lat="49.57804" lon="1.52406">
        <ele>188</ele>
        <time>2013-07-04T07:49:29Z</time>
      </trkpt>
      <trkpt lat="49.57804" lon="1.52392">
        <ele>188</ele>
        <time>2013-07-04T07:49:35Z</time>
      </trkpt>
      <trkpt lat="49.57804" lon="1.52378">
        <ele>196</ele>
        <time>2013-07-04T07:49:43Z</time>
      </trkpt>
      <trkpt lat="49.57802" lon="1.52364">
        <ele>196</ele>
        <time>2013-07-04T07:49:56Z</time>
      </trkpt>
      <trkpt lat="49.57813" lon="1.52356">
        <ele>201</ele>
        <time>2013-07-04T07:50:05Z</time>
      </trkpt>
      <trkpt lat="49.57822" lon="1.52356">
        <ele>201</ele>
        <time>2013-07-04T07:50:10Z</time>
      </trkpt>
      <trkpt lat="49.57831" lon="1.52353">
        <ele>196</ele>
        <time>2013-07-04T07:50:18Z</time>
      </trkpt>
      <trkpt lat="49.57841" lon="1.52353">
        <ele>196</ele>
        <time>2013-07-04T07:50:26Z</time>
      </trkpt>
      <trkpt lat="49.5785" lon="1.52352">
        <ele>196</ele>
        <time>2013-07-04T07:50:36Z</time>
      </trkpt>
      <trkpt lat="49.57859" lon="1.52357">
        <ele>196</ele>
        <time>2013-07-04T07:50:45Z</time>
      </trkpt>
      <trkpt lat="49.57855" lon="1.52344">
        <ele>188</ele>
        <time>2013-07-04T07:52:25Z</time>
      </trkpt>
      <trkpt lat="49.57862" lon="1.52355">
        <ele>188</ele>
        <time>2013-07-04T07:52:36Z</time>
      </trkpt>
      <trkpt lat="49.57866" lon="1.52368">
        <ele>188</ele>
        <time>2013-07-04T07:52:44Z</time>
      </trkpt>
      <trkpt lat="49.57868" lon="1.52381">
        <ele>197</ele>
        <time>2013-07-04T07:52:51Z</time>
      </trkpt>
      <trkpt lat="49.57865" lon="1.52395">
        <ele>197</ele>
        <time>2013-07-04T07:52:59Z</time>
      </trkpt>
      <trkpt lat="49.57862" lon="1.5241">
        <ele>202</ele>
        <time>2013-07-04T07:53:05Z</time>
      </trkpt>
      <trkpt lat="49.57858" lon="1.52423">
        <ele>202</ele>
        <time>2013-07-04T07:53:16Z</time>
      </trkpt>
      <trkpt lat="49.57852" lon="1.52434">
        <ele>196</ele>
        <time>2013-07-04T07:53:24Z</time>
      </trkpt>
      <trkpt lat="49.57843" lon="1.52441">
        <ele>196</ele>
        <time>2013-07-04T07:53:31Z</time>
      </trkpt>
      <trkpt lat="49.57834" lon="1.52443">
        <ele>196</ele>
        <time>2013-07-04T07:53:40Z</time>
      </trkpt>
      <trkpt lat="49.57827" lon="1.52451">
        <ele>196</ele>
        <time>2013-07-04T07:53:51Z</time>
      </trkpt>
      <trkpt lat="49.57829" lon="1.52465">
        <ele>187</ele>
        <time>2013-07-04T07:53:58Z</time>
      </trkpt>
      <trkpt lat="49.57829" lon="1.52479">
        <ele>187</ele>
        <time>2013-07-04T07:54:07Z</time>
      </trkpt>
      <trkpt lat="49.57831" lon="1.52494">
        <ele>187</ele>
        <time>2013-07-04T07:54:27Z</time>
      </trkpt>
      <trkpt lat="49.57838" lon="1.52503">
        <ele>205</ele>
        <time>2013-07-04T07:54:40Z</time>
      </trkpt>
      <trkpt lat="49.57842" lon="1.52517">
        <ele>211</ele>
        <time>2013-07-04T07:54:47Z</time>
      </trkpt>
      <trkpt lat="49.5785" lon="1.52524">
        <ele>211</ele>
        <time>2013-07-04T07:54:53Z</time>
      </trkpt>
      <trkpt lat="49.57853" lon="1.52538">
        <ele>202</ele>
        <time>2013-07-04T07:55:02Z</time>
      </trkpt>
      <trkpt lat="49.57855" lon="1.52555">
        <ele>192</ele>
        <time>2013-07-04T07:55:12Z</time>
      </trkpt>
      <trkpt lat="49.57856" lon="1.52569">
        <ele>185</ele>
        <time>2013-07-04T07:55:18Z</time>
      </trkpt>
      <trkpt lat="49.57859" lon="1.52582">
        <ele>185</ele>
        <time>2013-07-04T07:55:25Z</time>
      </trkpt>
      <trkpt lat="49.57864" lon="1.52595">
        <ele>185</ele>
        <time>2013-07-04T07:55:40Z</time>
      </trkpt>
      <trkpt lat="49.57872" lon="1.52603">
        <ele>177</ele>
        <time>2013-07-04T07:55:50Z</time>
      </trkpt>
      <trkpt lat="49.57879" lon="1.52592">
        <ele>168</ele>
        <time>2013-07-04T07:56:07Z</time>
      </trkpt>
      <trkpt lat="49.57887" lon="1.5258">
        <ele>168</ele>
        <time>2013-07-04T07:56:14Z</time>
      </trkpt>
      <trkpt lat="49.57888" lon="1.52564">
        <ele>180</ele>
        <time>2013-07-04T07:56:25Z</time>
      </trkpt>
      <trkpt lat="49.57891" lon="1.52547">
        <ele>180</ele>
        <time>2013-07-04T07:56:35Z</time>
      </trkpt>
      <trkpt lat="49.57893" lon="1.52533">
        <ele>172</ele>
        <time>2013-07-04T07:56:43Z</time>
      </trkpt>
      <trkpt lat="49.57893" lon="1.52514">
        <ele>172</ele>
        <time>2013-07-04T07:56:53Z</time>
      </trkpt>
      <trkpt lat="49.57896" lon="1.52499">
        <ele>178</ele>
        <time>2013-07-04T07:56:59Z</time>
      </trkpt>
      <trkpt lat="49.57902" lon="1.52486">
        <ele>178</ele>
        <time>2013-07-04T07:57:04Z</time>
      </trkpt>
      <trkpt lat="49.57905" lon="1.52473">
        <ele>183</ele>
        <time>2013-07-04T07:57:13Z</time>
      </trkpt>
      <trkpt lat="49.57909" lon="1.52457">
        <ele>183</ele>
        <time>2013-07-04T07:57:20Z</time>
      </trkpt>
      <trkpt lat="49.57909" lon="1.52442">
        <ele>183</ele>
        <time>2013-07-04T07:57:25Z</time>
      </trkpt>
      <trkpt lat="49.57915" lon="1.52432">
        <ele>183</ele>
        <time>2013-07-04T07:57:31Z</time>
      </trkpt>
      <trkpt lat="49.57916" lon="1.52415">
        <ele>183</ele>
        <time>2013-07-04T07:57:43Z</time>
      </trkpt>
      <trkpt lat="49.57917" lon="1.524">
        <ele>183</ele>
        <time>2013-07-04T07:57:51Z</time>
      </trkpt>
      <trkpt lat="49.57921" lon="1.52387">
        <ele>177</ele>
        <time>2013-07-04T07:57:56Z</time>
      </trkpt>
      <trkpt lat="49.57926" lon="1.52373">
        <ele>177</ele>
        <time>2013-07-04T07:58:02Z</time>
      </trkpt>
      <trkpt lat="49.57935" lon="1.52375">
        <ele>161</ele>
        <time>2013-07-04T07:58:17Z</time>
      </trkpt>
      <trkpt lat="49.57943" lon="1.52368">
        <ele>174</ele>
        <time>2013-07-04T07:58:40Z</time>
      </trkpt>
      <trkpt lat="49.57955" lon="1.52369">
        <ele>174</ele>
        <time>2013-07-04T07:58:47Z</time>
      </trkpt>
      <trkpt lat="49.57965" lon="1.52369">
        <ele>174</ele>
        <time>2013-07-04T07:58:56Z</time>
      </trkpt>
      <trkpt lat="49.57974" lon="1.52377">
        <ele>174</ele>
        <time>2013-07-04T07:59:05Z</time>
      </trkpt>
      <trkpt lat="49.57983" lon="1.52372">
        <ele>174</ele>
        <time>2013-07-04T07:59:19Z</time>
      </trkpt>
      <trkpt lat="49.57991" lon="1.52379">
        <ele>168</ele>
        <time>2013-07-04T07:59:24Z</time>
      </trkpt>
      <trkpt lat="49.58001" lon="1.52379">
        <ele>168</ele>
        <time>2013-07-04T07:59:27Z</time>
      </trkpt>
      <trkpt lat="49.58011" lon="1.52379">
        <ele>168</ele>
        <time>2013-07-04T07:59:36Z</time>
      </trkpt>
      <trkpt lat="49.58022" lon="1.52381">
        <ele>168</ele>
        <time>2013-07-04T07:59:43Z</time>
      </trkpt>
      <trkpt lat="49.58031" lon="1.52386">
        <ele>168</ele>
        <time>2013-07-04T07:59:48Z</time>
      </trkpt>
      <trkpt lat="49.5804" lon="1.52396">
        <ele>168</ele>
        <time>2013-07-04T07:59:58Z</time>
      </trkpt>
      <trkpt lat="49.5805" lon="1.524">
        <ele>168</ele>
        <time>2013-07-04T08:00:10Z</time>
      </trkpt>
      <trkpt lat="49.5806" lon="1.52402">
        <ele>168</ele>
        <time>2013-07-04T08:00:20Z</time>
      </trkpt>
      <trkpt lat="49.58069" lon="1.52405">
        <ele>168</ele>
        <time>2013-07-04T08:00:29Z</time>
      </trkpt>
      <trkpt lat="49.58077" lon="1.52412">
        <ele>168</ele>
        <time>2013-07-04T08:00:39Z</time>
      </trkpt>
      <trkpt lat="49.58086" lon="1.52418">
        <ele>168</ele>
        <time>2013-07-04T08:00:50Z</time>
      </trkpt>
      <trkpt lat="49.58097" lon="1.52422">
        <ele>158</ele>
        <time>2013-07-04T08:00:58Z</time>
      </trkpt>
      <trkpt lat="49.58106" lon="1.52423">
        <ele>158</ele>
        <time>2013-07-04T08:01:05Z</time>
      </trkpt>
      <trkpt lat="49.58116" lon="1.52424">
        <ele>158</ele>
        <time>2013-07-04T08:01:18Z</time>
      </trkpt>
      <trkpt lat="49.58121" lon="1.52437">
        <ele>158</ele>
        <time>2013-07-04T08:01:26Z</time>
      </trkpt>
      <trkpt lat="49.58129" lon="1.52448">
        <ele>147</ele>
        <time>2013-07-04T08:01:36Z</time>
      </trkpt>
      <trkpt lat="49.58139" lon="1.52453">
        <ele>147</ele>
        <time>2013-07-04T08:01:46Z</time>
      </trkpt>
      <trkpt lat="49.5815" lon="1.52454">
        <ele>147</ele>
        <time>2013-07-04T08:01:51Z</time>
      </trkpt>
      <trkpt lat="49.58159" lon="1.52451">
        <ele>147</ele>
        <time>2013-07-04T08:02:01Z</time>
      </trkpt>
      <trkpt lat="49.58171" lon="1.5245">
        <ele>153</ele>
        <time>2013-07-04T08:02:09Z</time>
      </trkpt>
      <trkpt lat="49.5818" lon="1.52451">
        <ele>153</ele>
        <time>2013-07-04T08:02:15Z</time>
      </trkpt>
      <trkpt lat="49.5819" lon="1.5245">
        <ele>153</ele>
        <time>2013-07-04T08:02:22Z</time>
      </trkpt>
      <trkpt lat="49.582" lon="1.52459">
        <ele>153</ele>
        <time>2013-07-04T08:02:33Z</time>
      </trkpt>
      <trkpt lat="49.58209" lon="1.52463">
        <ele>153</ele>
        <time>2013-07-04T08:02:41Z</time>
      </trkpt>
      <trkpt lat="49.58218" lon="1.52463">
        <ele>161</ele>
        <time>2013-07-04T08:02:46Z</time>
      </trkpt>
      <trkpt lat="49.58227" lon="1.52471">
        <ele>161</ele>
        <time>2013-07-04T08:02:57Z</time>
      </trkpt>
      <trkpt lat="49.58238" lon="1.52469">
        <ele>161</ele>
        <time>2013-07-04T08:03:05Z</time>
      </trkpt>
      <trkpt lat="49.58246" lon="1.52478">
        <ele>156</ele>
        <time>2013-07-04T08:03:12Z</time>
      </trkpt>
      <trkpt lat="49.58255" lon="1.52483">
        <ele>150</ele>
        <time>2013-07-04T08:03:23Z</time>
      </trkpt>
      <trkpt lat="49.58265" lon="1.52485">
        <ele>150</ele>
        <time>2013-07-04T08:03:30Z</time>
      </trkpt>
      <trkpt lat="49.58275" lon="1.52491">
        <ele>150</ele>
        <time>2013-07-04T08:03:39Z</time>
      </trkpt>
      <trkpt lat="49.58284" lon="1.52494">
        <ele>156</ele>
        <time>2013-07-04T08:03:45Z</time>
      </trkpt>
      <trkpt lat="49.58295" lon="1.52494">
        <ele>156</ele>
        <time>2013-07-04T08:03:53Z</time>
      </trkpt>
      <trkpt lat="49.58303" lon="1.52503">
        <ele>156</ele>
        <time>2013-07-04T08:04:01Z</time>
      </trkpt>
      <trkpt lat="49.58315" lon="1.5251">
        <ele>156</ele>
        <time>2013-07-04T08:04:11Z</time>
      </trkpt>
      <trkpt lat="49.58324" lon="1.52513">
        <ele>149</ele>
        <time>2013-07-04T08:04:20Z</time>
      </trkpt>
      <trkpt lat="49.58334" lon="1.52516">
        <ele>149</ele>
        <time>2013-07-04T08:04:28Z</time>
      </trkpt>
      <trkpt lat="49.58343" lon="1.52521">
        <ele>149</ele>
        <time>2013-07-04T08:04:36Z</time>
      </trkpt>
      <trkpt lat="49.58353" lon="1.52527">
        <ele>149</ele>
        <time>2013-07-04T08:04:44Z</time>
      </trkpt>
      <trkpt lat="49.58362" lon="1.52529">
        <ele>149</ele>
        <time>2013-07-04T08:04:52Z</time>
      </trkpt>
      <trkpt lat="49.58372" lon="1.52532">
        <ele>143</ele>
        <time>2013-07-04T08:05:00Z</time>
      </trkpt>
      <trkpt lat="49.58381" lon="1.52534">
        <ele>143</ele>
        <time>2013-07-04T08:05:08Z</time>
      </trkpt>
      <trkpt lat="49.58391" lon="1.52536">
        <ele>143</ele>
        <time>2013-07-04T08:05:15Z</time>
      </trkpt>
      <trkpt lat="49.584" lon="1.52539">
        <ele>143</ele>
        <time>2013-07-04T08:05:22Z</time>
      </trkpt>
      <trkpt lat="49.58409" lon="1.52542">
        <ele>138</ele>
        <time>2013-07-04T08:05:31Z</time>
      </trkpt>
      <trkpt lat="49.58418" lon="1.52536">
        <ele>138</ele>
        <time>2013-07-04T08:05:39Z</time>
      </trkpt>
      <trkpt lat="49.58429" lon="1.52538">
        <ele>138</ele>
        <time>2013-07-04T08:05:50Z</time>
      </trkpt>
      <trkpt lat="49.58439" lon="1.52541">
        <ele>138</ele>
        <time>2013-07-04T08:05:56Z</time>
      </trkpt>
      <trkpt lat="49.58447" lon="1.52545">
        <ele>138</ele>
        <time>2013-07-04T08:06:04Z</time>
      </trkpt>
      <trkpt lat="49.58456" lon="1.5255">
        <ele>138</ele>
        <time>2013-07-04T08:06:16Z</time>
      </trkpt>
      <trkpt lat="49.58467" lon="1.52548">
        <ele>138</ele>
        <time>2013-07-04T08:06:26Z</time>
      </trkpt>
      <trkpt lat="49.58477" lon="1.52547">
        <ele>138</ele>
        <time>2013-07-04T08:06:33Z</time>
      </trkpt>
      <trkpt lat="49.58487" lon="1.5255">
        <ele>138</ele>
        <time>2013-07-04T08:06:40Z</time>
      </trkpt>
      <trkpt lat="49.58497" lon="1.52553">
        <ele>138</ele>
        <time>2013-07-04T08:06:50Z</time>
      </trkpt>
      <trkpt lat="49.58506" lon="1.52559">
        <ele>138</ele>
        <time>2013-07-04T08:06:56Z</time>
      </trkpt>
      <trkpt lat="49.58516" lon="1.52558">
        <ele>138</ele>
        <time>2013-07-04T08:07:07Z</time>
      </trkpt>
      <trkpt lat="49.58526" lon="1.5256">
        <ele>138</ele>
        <time>2013-07-04T08:07:16Z</time>
      </trkpt>
      <trkpt lat="49.58536" lon="1.52566">
        <ele>138</ele>
        <time>2013-07-04T08:07:24Z</time>
      </trkpt>
      <trkpt lat="49.58545" lon="1.5257">
        <ele>138</ele>
        <time>2013-07-04T08:07:31Z</time>
      </trkpt>
      <trkpt lat="49.58555" lon="1.52577">
        <ele>130</ele>
        <time>2013-07-04T08:07:43Z</time>
      </trkpt>
      <trkpt lat="49.58564" lon="1.52577">
        <ele>130</ele>
        <time>2013-07-04T08:07:50Z</time>
      </trkpt>
      <trkpt lat="49.58573" lon="1.52581">
        <ele>130</ele>
        <time>2013-07-04T08:07:57Z</time>
      </trkpt>
      <trkpt lat="49.58582" lon="1.52581">
        <ele>130</ele>
        <time>2013-07-04T08:08:04Z</time>
      </trkpt>
      <trkpt lat="49.58593" lon="1.52583">
        <ele>140</ele>
        <time>2013-07-04T08:08:13Z</time>
      </trkpt>
      <trkpt lat="49.58603" lon="1.52588">
        <ele>140</ele>
        <time>2013-07-04T08:08:24Z</time>
      </trkpt>
      <trkpt lat="49.58611" lon="1.52594">
        <ele>140</ele>
        <time>2013-07-04T08:08:30Z</time>
      </trkpt>
      <trkpt lat="49.5862" lon="1.526">
        <ele>150</ele>
        <time>2013-07-04T08:08:43Z</time>
      </trkpt>
      <trkpt lat="49.58627" lon="1.5261">
        <ele>150</ele>
        <time>2013-07-04T08:08:49Z</time>
      </trkpt>
      <trkpt lat="49.58636" lon="1.52618">
        <ele>150</ele>
        <time>2013-07-04T08:08:58Z</time>
      </trkpt>
      <trkpt lat="49.58644" lon="1.52627">
        <ele>150</ele>
        <time>2013-07-04T08:09:04Z</time>
      </trkpt>
      <trkpt lat="49.58652" lon="1.52635">
        <ele>144</ele>
        <time>2013-07-04T08:09:12Z</time>
      </trkpt>
      <trkpt lat="49.58662" lon="1.52641">
        <ele>144</ele>
        <time>2013-07-04T08:09:21Z</time>
      </trkpt>
      <trkpt lat="49.58671" lon="1.52645">
        <ele>134</ele>
        <time>2013-07-04T08:09:43Z</time>
      </trkpt>
      <trkpt lat="49.58679" lon="1.52642">
        <ele>134</ele>
        <time>2013-07-04T08:09:51Z</time>
      </trkpt>
      <trkpt lat="49.58689" lon="1.52642">
        <ele>134</ele>
        <time>2013-07-04T08:10:00Z</time>
      </trkpt>
      <trkpt lat="49.58699" lon="1.52643">
        <ele>128</ele>
        <time>2013-07-04T08:10:09Z</time>
      </trkpt>
      <trkpt lat="49.58707" lon="1.52638">
        <ele>128</ele>
        <time>2013-07-04T08:10:16Z</time>
      </trkpt>
      <trkpt lat="49.58715" lon="1.52629">
        <ele>128</ele>
        <time>2013-07-04T08:10:23Z</time>
      </trkpt>
      <trkpt lat="49.58724" lon="1.52619">
        <ele>128</ele>
        <time>2013-07-04T08:10:30Z</time>
      </trkpt>
      <trkpt lat="49.58729" lon="1.52608">
        <ele>128</ele>
        <time>2013-07-04T08:10:37Z</time>
      </trkpt>
      <trkpt lat="49.58735" lon="1.52594">
        <ele>128</ele>
        <time>2013-07-04T08:10:45Z</time>
      </trkpt>
      <trkpt lat="49.58739" lon="1.5258">
        <ele>128</ele>
        <time>2013-07-04T08:10:52Z</time>
      </trkpt>
      <trkpt lat="49.58742" lon="1.52565">
        <ele>128</ele>
        <time>2013-07-04T08:10:59Z</time>
      </trkpt>
      <trkpt lat="49.58743" lon="1.52549">
        <ele>128</ele>
        <time>2013-07-04T08:11:07Z</time>
      </trkpt>
      <trkpt lat="49.58746" lon="1.52535">
        <ele>128</ele>
        <time>2013-07-04T08:11:14Z</time>
      </trkpt>
      <trkpt lat="49.58748" lon="1.52518">
        <ele>128</ele>
        <time>2013-07-04T08:11:22Z</time>
      </trkpt>
      <trkpt lat="49.58749" lon="1.52503">
        <ele>128</ele>
        <time>2013-07-04T08:11:30Z</time>
      </trkpt>
      <trkpt lat="49.58752" lon="1.5249">
        <ele>128</ele>
        <time>2013-07-04T08:11:36Z</time>
      </trkpt>
      <trkpt lat="49.58753" lon="1.52476">
        <ele>128</ele>
        <time>2013-07-04T08:11:44Z</time>
      </trkpt>
      <trkpt lat="49.58755" lon="1.5246">
        <ele>128</ele>
        <time>2013-07-04T08:11:52Z</time>
      </trkpt>
      <trkpt lat="49.58756" lon="1.52446">
        <ele>128</ele>
        <time>2013-07-04T08:12:00Z</time>
      </trkpt>
      <trkpt lat="49.58758" lon="1.52432">
        <ele>128</ele>
        <time>2013-07-04T08:12:07Z</time>
      </trkpt>
      <trkpt lat="49.5876" lon="1.52415">
        <ele>128</ele>
        <time>2013-07-04T08:12:14Z</time>
      </trkpt>
      <trkpt lat="49.58761" lon="1.52401">
        <ele>128</ele>
        <time>2013-07-04T08:12:22Z</time>
      </trkpt>
      <trkpt lat="49.58762" lon="1.52387">
        <ele>128</ele>
        <time>2013-07-04T08:12:31Z</time>
      </trkpt>
      <trkpt lat="49.58764" lon="1.52372">
        <ele>128</ele>
        <time>2013-07-04T08:12:37Z</time>
      </trkpt>
      <trkpt lat="49.58766" lon="1.52359">
        <ele>128</ele>
        <time>2013-07-04T08:12:43Z</time>
      </trkpt>
      <trkpt lat="49.58766" lon="1.52344">
        <ele>128</ele>
        <time>2013-07-04T08:12:50Z</time>
      </trkpt>
      <trkpt lat="49.58769" lon="1.52329">
        <ele>128</ele>
        <time>2013-07-04T08:12:57Z</time>
      </trkpt>
      <trkpt lat="49.58771" lon="1.52316">
        <ele>128</ele>
        <time>2013-07-04T08:13:03Z</time>
      </trkpt>
      <trkpt lat="49.58773" lon="1.52301">
        <ele>128</ele>
        <time>2013-07-04T08:13:10Z</time>
      </trkpt>
      <trkpt lat="49.58776" lon="1.52286">
        <ele>128</ele>
        <time>2013-07-04T08:13:18Z</time>
      </trkpt>
      <trkpt lat="49.58776" lon="1.52271">
        <ele>128</ele>
        <time>2013-07-04T08:13:25Z</time>
      </trkpt>
      <trkpt lat="49.5878" lon="1.52258">
        <ele>128</ele>
        <time>2013-07-04T08:13:32Z</time>
      </trkpt>
      <trkpt lat="49.58784" lon="1.52244">
        <ele>128</ele>
        <time>2013-07-04T08:13:39Z</time>
      </trkpt>
      <trkpt lat="49.58785" lon="1.52229">
        <ele>128</ele>
        <time>2013-07-04T08:13:46Z</time>
      </trkpt>
      <trkpt lat="49.58785" lon="1.52213">
        <ele>128</ele>
        <time>2013-07-04T08:13:55Z</time>
      </trkpt>
      <trkpt lat="49.58788" lon="1.522">
        <ele>128</ele>
        <time>2013-07-04T08:14:00Z</time>
      </trkpt>
      <trkpt lat="49.58791" lon="1.52185">
        <ele>128</ele>
        <time>2013-07-04T08:14:06Z</time>
      </trkpt>
      <trkpt lat="49.58792" lon="1.52169">
        <ele>128</ele>
        <time>2013-07-04T08:14:13Z</time>
      </trkpt>
      <trkpt lat="49.58795" lon="1.52155">
        <ele>128</ele>
        <time>2013-07-04T08:14:20Z</time>
      </trkpt>
      <trkpt lat="49.58797" lon="1.52141">
        <ele>128</ele>
        <time>2013-07-04T08:14:28Z</time>
      </trkpt>
      <trkpt lat="49.58798" lon="1.52124">
        <ele>128</ele>
        <time>2013-07-04T08:14:37Z</time>
      </trkpt>
      <trkpt lat="49.58797" lon="1.5211">
        <ele>123</ele>
        <time>2013-07-04T08:14:46Z</time>
      </trkpt>
      <trkpt lat="49.58799" lon="1.52097">
        <ele>123</ele>
        <time>2013-07-04T08:14:51Z</time>
      </trkpt>
      <trkpt lat="49.58802" lon="1.52081">
        <ele>123</ele>
        <time>2013-07-04T08:14:58Z</time>
      </trkpt>
      <trkpt lat="49.58804" lon="1.52066">
        <ele>123</ele>
        <time>2013-07-04T08:15:06Z</time>
      </trkpt>
      <trkpt lat="49.58807" lon="1.52052">
        <ele>123</ele>
        <time>2013-07-04T08:15:12Z</time>
      </trkpt>
      <trkpt lat="49.5881" lon="1.52038">
        <ele>123</ele>
        <time>2013-07-04T08:15:18Z</time>
      </trkpt>
      <trkpt lat="49.58812" lon="1.52024">
        <ele>123</ele>
        <time>2013-07-04T08:15:25Z</time>
      </trkpt>
      <trkpt lat="49.58812" lon="1.52008">
        <ele>123</ele>
        <time>2013-07-04T08:15:36Z</time>
      </trkpt>
      <trkpt lat="49.58814" lon="1.51994">
        <ele>123</ele>
        <time>2013-07-04T08:15:41Z</time>
      </trkpt>
      <trkpt lat="49.58815" lon="1.51979">
        <ele>123</ele>
        <time>2013-07-04T08:15:49Z</time>
      </trkpt>
      <trkpt lat="49.58817" lon="1.51964">
        <ele>123</ele>
        <time>2013-07-04T08:15:57Z</time>
      </trkpt>
      <trkpt lat="49.58819" lon="1.51949">
        <ele>123</ele>
        <time>2013-07-04T08:16:03Z</time>
      </trkpt>
      <trkpt lat="49.58821" lon="1.51933">
        <ele>123</ele>
        <time>2013-07-04T08:16:11Z</time>
      </trkpt>
      <trkpt lat="49.58824" lon="1.51918">
        <ele>123</ele>
        <time>2013-07-04T08:16:17Z</time>
      </trkpt>
      <trkpt lat="49.58828" lon="1.51904">
        <ele>123</ele>
        <time>2013-07-04T08:16:23Z</time>
      </trkpt>
      <trkpt lat="49.5883" lon="1.5189">
        <ele>123</ele>
        <time>2013-07-04T08:16:33Z</time>
      </trkpt>
      <trkpt lat="49.58831" lon="1.51873">
        <ele>123</ele>
        <time>2013-07-04T08:16:40Z</time>
      </trkpt>
      <trkpt lat="49.58831" lon="1.51858">
        <ele>123</ele>
        <time>2013-07-04T08:16:48Z</time>
      </trkpt>
      <trkpt lat="49.58832" lon="1.51842">
        <ele>123</ele>
        <time>2013-07-04T08:16:57Z</time>
      </trkpt>
      <trkpt lat="49.58835" lon="1.51828">
        <ele>123</ele>
        <time>2013-07-04T08:17:03Z</time>
      </trkpt>
      <trkpt lat="49.58836" lon="1.51813">
        <ele>123</ele>
        <time>2013-07-04T08:17:13Z</time>
      </trkpt>
      <trkpt lat="49.5884" lon="1.51799">
        <ele>130</ele>
        <time>2013-07-04T08:17:21Z</time>
      </trkpt>
      <trkpt lat="49.58844" lon="1.51785">
        <ele>130</ele>
        <time>2013-07-04T08:17:27Z</time>
      </trkpt>
      <trkpt lat="49.58852" lon="1.51772">
        <ele>130</ele>
        <time>2013-07-04T08:17:33Z</time>
      </trkpt>
      <trkpt lat="49.5886" lon="1.51763">
        <ele>130</ele>
        <time>2013-07-04T08:17:41Z</time>
      </trkpt>
      <trkpt lat="49.58868" lon="1.51757">
        <ele>123</ele>
        <time>2013-07-04T08:17:49Z</time>
      </trkpt>
      <trkpt lat="49.58875" lon="1.51745">
        <ele>123</ele>
        <time>2013-07-04T08:17:56Z</time>
      </trkpt>
      <trkpt lat="49.58883" lon="1.51737">
        <ele>123</ele>
        <time>2013-07-04T08:18:00Z</time>
      </trkpt>
      <trkpt lat="49.58891" lon="1.51729">
        <ele>123</ele>
        <time>2013-07-04T08:18:06Z</time>
      </trkpt>
      <trkpt lat="49.58898" lon="1.51718">
        <ele>123</ele>
        <time>2013-07-04T08:18:14Z</time>
      </trkpt>
      <trkpt lat="49.58906" lon="1.51709">
        <ele>123</ele>
        <time>2013-07-04T08:18:21Z</time>
      </trkpt>
      <trkpt lat="49.58913" lon="1.51699">
        <ele>123</ele>
        <time>2013-07-04T08:18:29Z</time>
      </trkpt>
      <trkpt lat="49.58919" lon="1.51687">
        <ele>123</ele>
        <time>2013-07-04T08:18:39Z</time>
      </trkpt>
      <trkpt lat="49.58923" lon="1.51673">
        <ele>123</ele>
        <time>2013-07-04T08:18:46Z</time>
      </trkpt>
      <trkpt lat="49.58927" lon="1.51659">
        <ele>123</ele>
        <time>2013-07-04T08:18:53Z</time>
      </trkpt>
      <trkpt lat="49.5893" lon="1.51646">
        <ele>123</ele>
        <time>2013-07-04T08:18:59Z</time>
      </trkpt>
      <trkpt lat="49.58935" lon="1.51632">
        <ele>123</ele>
        <time>2013-07-04T08:19:06Z</time>
      </trkpt>
      <trkpt lat="49.5894" lon="1.5162">
        <ele>123</ele>
        <time>2013-07-04T08:19:13Z</time>
      </trkpt>
      <trkpt lat="49.58944" lon="1.51607">
        <ele>123</ele>
        <time>2013-07-04T08:19:19Z</time>
      </trkpt>
      <trkpt lat="49.58949" lon="1.51595">
        <ele>123</ele>
        <time>2013-07-04T08:19:26Z</time>
      </trkpt>
      <trkpt lat="49.58954" lon="1.51583">
        <ele>123</ele>
        <time>2013-07-04T08:19:33Z</time>
      </trkpt>
      <trkpt lat="49.5896" lon="1.51571">
        <ele>123</ele>
        <time>2013-07-04T08:19:40Z</time>
      </trkpt>
      <trkpt lat="49.58965" lon="1.51558">
        <ele>123</ele>
        <time>2013-07-04T08:19:48Z</time>
      </trkpt>
      <trkpt lat="49.58968" lon="1.51544">
        <ele>128</ele>
        <time>2013-07-04T08:19:56Z</time>
      </trkpt>
      <trkpt lat="49.58975" lon="1.51532">
        <ele>128</ele>
        <time>2013-07-04T08:20:03Z</time>
      </trkpt>
      <trkpt lat="49.58981" lon="1.5152">
        <ele>128</ele>
        <time>2013-07-04T08:20:12Z</time>
      </trkpt>
      <trkpt lat="49.58986" lon="1.51508">
        <ele>128</ele>
        <time>2013-07-04T08:20:18Z</time>
      </trkpt>
      <trkpt lat="49.58991" lon="1.51496">
        <ele>128</ele>
        <time>2013-07-04T08:20:26Z</time>
      </trkpt>
      <trkpt lat="49.58996" lon="1.51481">
        <ele>128</ele>
        <time>2013-07-04T08:20:36Z</time>
      </trkpt>
      <trkpt lat="49.59" lon="1.51468">
        <ele>128</ele>
        <time>2013-07-04T08:20:45Z</time>
      </trkpt>
      <trkpt lat="49.59003" lon="1.51454">
        <ele>128</ele>
        <time>2013-07-04T08:20:52Z</time>
      </trkpt>
      <trkpt lat="49.59005" lon="1.5144">
        <ele>128</ele>
        <time>2013-07-04T08:20:58Z</time>
      </trkpt>
      <trkpt lat="49.59009" lon="1.51426">
        <ele>128</ele>
        <time>2013-07-04T08:21:08Z</time>
      </trkpt>
      <trkpt lat="49.59011" lon="1.51411">
        <ele>128</ele>
        <time>2013-07-04T08:21:16Z</time>
      </trkpt>
      <trkpt lat="49.59013" lon="1.51398">
        <ele>128</ele>
        <time>2013-07-04T08:21:23Z</time>
      </trkpt>
      <trkpt lat="49.59016" lon="1.51384">
        <ele>128</ele>
        <time>2013-07-04T08:21:30Z</time>
      </trkpt>
      <trkpt lat="49.59019" lon="1.5137">
        <ele>128</ele>
        <time>2013-07-04T08:21:38Z</time>
      </trkpt>
      <trkpt lat="49.59023" lon="1.51356">
        <ele>128</ele>
        <time>2013-07-04T08:21:46Z</time>
      </trkpt>
      <trkpt lat="49.59029" lon="1.51344">
        <ele>128</ele>
        <time>2013-07-04T08:21:53Z</time>
      </trkpt>
      <trkpt lat="49.59034" lon="1.51332">
        <ele>128</ele>
        <time>2013-07-04T08:22:03Z</time>
      </trkpt>
      <trkpt lat="49.5904" lon="1.51319">
        <ele>128</ele>
        <time>2013-07-04T08:22:13Z</time>
      </trkpt>
      <trkpt lat="49.59044" lon="1.51306">
        <ele>128</ele>
        <time>2013-07-04T08:22:21Z</time>
      </trkpt>
      <trkpt lat="49.59052" lon="1.51299">
        <ele>128</ele>
        <time>2013-07-04T08:22:32Z</time>
      </trkpt>
      <trkpt lat="49.59059" lon="1.51308">
        <ele>128</ele>
        <time>2013-07-04T08:22:53Z</time>
      </trkpt>
      <trkpt lat="49.59069" lon="1.5131">
        <ele>128</ele>
        <time>2013-07-04T08:23:08Z</time>
      </trkpt>
      <trkpt lat="49.59075" lon="1.51328">
        <ele>133</ele>
        <time>2013-07-04T08:23:26Z</time>
      </trkpt>
      <trkpt lat="49.59079" lon="1.51341">
        <ele>133</ele>
        <time>2013-07-04T08:23:35Z</time>
      </trkpt>
      <trkpt lat="49.59085" lon="1.51354">
        <ele>133</ele>
        <time>2013-07-04T08:23:45Z</time>
      </trkpt>
      <trkpt lat="49.59087" lon="1.51368">
        <ele>138</ele>
        <time>2013-07-04T08:23:54Z</time>
      </trkpt>
      <trkpt lat="49.59092" lon="1.51381">
        <ele>138</ele>
        <time>2013-07-04T08:24:04Z</time>
      </trkpt>
      <trkpt lat="49.59099" lon="1.5139">
        <ele>138</ele>
        <time>2013-07-04T08:24:10Z</time>
      </trkpt>
      <trkpt lat="49.59109" lon="1.51393">
        <ele>138</ele>
        <time>2013-07-04T08:24:17Z</time>
      </trkpt>
      <trkpt lat="49.59114" lon="1.51406">
        <ele>133</ele>
        <time>2013-07-04T08:24:25Z</time>
      </trkpt>
      <trkpt lat="49.59118" lon="1.51419">
        <ele>133</ele>
        <time>2013-07-04T08:24:30Z</time>
      </trkpt>
      <trkpt lat="49.59122" lon="1.51434">
        <ele>139</ele>
        <time>2013-07-04T08:24:37Z</time>
      </trkpt>
      <trkpt lat="49.59128" lon="1.51447">
        <ele>139</ele>
        <time>2013-07-04T08:24:44Z</time>
      </trkpt>
      <trkpt lat="49.59134" lon="1.5146">
        <ele>132</ele>
        <time>2013-07-04T08:24:50Z</time>
      </trkpt>
      <trkpt lat="49.59139" lon="1.51472">
        <ele>132</ele>
        <time>2013-07-04T08:24:57Z</time>
      </trkpt>
      <trkpt lat="49.59145" lon="1.51487">
        <ele>132</ele>
        <time>2013-07-04T08:25:06Z</time>
      </trkpt>
      <trkpt lat="49.5915" lon="1.51498">
        <ele>127</ele>
        <time>2013-07-04T08:25:13Z</time>
      </trkpt>
      <trkpt lat="49.59154" lon="1.51511">
        <ele>127</ele>
        <time>2013-07-04T08:25:22Z</time>
      </trkpt>
      <trkpt lat="49.59156" lon="1.51525">
        <ele>133</ele>
        <time>2013-07-04T08:25:29Z</time>
      </trkpt>
      <trkpt lat="49.59163" lon="1.51537">
        <ele>133</ele>
        <time>2013-07-04T08:25:41Z</time>
      </trkpt>
      <trkpt lat="49.59167" lon="1.51549">
        <ele>133</ele>
        <time>2013-07-04T08:25:46Z</time>
      </trkpt>
      <trkpt lat="49.59173" lon="1.51563">
        <ele>133</ele>
        <time>2013-07-04T08:25:55Z</time>
      </trkpt>
      <trkpt lat="49.59177" lon="1.51578">
        <ele>133</ele>
        <time>2013-07-04T08:26:01Z</time>
      </trkpt>
      <trkpt lat="49.59185" lon="1.51588">
        <ele>133</ele>
        <time>2013-07-04T08:26:07Z</time>
      </trkpt>
      <trkpt lat="49.59189" lon="1.51602">
        <ele>133</ele>
        <time>2013-07-04T08:26:17Z</time>
      </trkpt>
      <trkpt lat="49.59195" lon="1.51614">
        <ele>133</ele>
        <time>2013-07-04T08:26:28Z</time>
      </trkpt>
      <trkpt lat="49.59201" lon="1.51626">
        <ele>133</ele>
        <time>2013-07-04T08:26:36Z</time>
      </trkpt>
      <trkpt lat="49.59207" lon="1.51637">
        <ele>133</ele>
        <time>2013-07-04T08:26:45Z</time>
      </trkpt>
      <trkpt lat="49.59208" lon="1.51653">
        <ele>133</ele>
        <time>2013-07-04T08:26:52Z</time>
      </trkpt>
      <trkpt lat="49.59215" lon="1.51665">
        <ele>139</ele>
        <time>2013-07-04T08:27:00Z</time>
      </trkpt>
      <trkpt lat="49.5922" lon="1.51678">
        <ele>139</ele>
        <time>2013-07-04T08:27:06Z</time>
      </trkpt>
      <trkpt lat="49.59224" lon="1.51692">
        <ele>139</ele>
        <time>2013-07-04T08:27:15Z</time>
      </trkpt>
      <trkpt lat="49.5923" lon="1.51703">
        <ele>139</ele>
        <time>2013-07-04T08:27:21Z</time>
      </trkpt>
      <trkpt lat="49.59235" lon="1.51716">
        <ele>139</ele>
        <time>2013-07-04T08:27:29Z</time>
      </trkpt>
      <trkpt lat="49.5924" lon="1.51728">
        <ele>139</ele>
        <time>2013-07-04T08:27:38Z</time>
      </trkpt>
      <trkpt lat="49.59246" lon="1.51741">
        <ele>139</ele>
        <time>2013-07-04T08:27:45Z</time>
      </trkpt>
      <trkpt lat="49.5925" lon="1.51756">
        <ele>139</ele>
        <time>2013-07-04T08:27:54Z</time>
      </trkpt>
      <trkpt lat="49.59254" lon="1.51771">
        <ele>139</ele>
        <time>2013-07-04T08:28:01Z</time>
      </trkpt>
      <trkpt lat="49.5926" lon="1.51782">
        <ele>139</ele>
        <time>2013-07-04T08:28:09Z</time>
      </trkpt>
      <trkpt lat="49.59266" lon="1.51797">
        <ele>139</ele>
        <time>2013-07-04T08:28:20Z</time>
      </trkpt>
      <trkpt lat="49.59271" lon="1.51809">
        <ele>139</ele>
        <time>2013-07-04T08:28:26Z</time>
      </trkpt>
      <trkpt lat="49.59277" lon="1.51823">
        <ele>133</ele>
        <time>2013-07-04T08:28:34Z</time>
      </trkpt>
      <trkpt lat="49.5928" lon="1.51836">
        <ele>133</ele>
        <time>2013-07-04T08:28:42Z</time>
      </trkpt>
      <trkpt lat="49.59287" lon="1.5185">
        <ele>140</ele>
        <time>2013-07-04T08:28:51Z</time>
      </trkpt>
      <trkpt lat="49.59292" lon="1.51863">
        <ele>140</ele>
        <time>2013-07-04T08:28:58Z</time>
      </trkpt>
      <trkpt lat="49.59297" lon="1.51878">
        <ele>140</ele>
        <time>2013-07-04T08:29:05Z</time>
      </trkpt>
      <trkpt lat="49.59305" lon="1.51889">
        <ele>140</ele>
        <time>2013-07-04T08:29:11Z</time>
      </trkpt>
      <trkpt lat="49.5931" lon="1.51901">
        <ele>140</ele>
        <time>2013-07-04T08:29:17Z</time>
      </trkpt>
      <trkpt lat="49.59315" lon="1.51915">
        <ele>140</ele>
        <time>2013-07-04T08:29:30Z</time>
      </trkpt>
      <trkpt lat="49.59321" lon="1.51927">
        <ele>133</ele>
        <time>2013-07-04T08:29:34Z</time>
      </trkpt>
      <trkpt lat="49.59327" lon="1.51938">
        <ele>133</ele>
        <time>2013-07-04T08:29:42Z</time>
      </trkpt>
      <trkpt lat="49.5933" lon="1.51954">
        <ele>133</ele>
        <time>2013-07-04T08:29:50Z</time>
      </trkpt>
      <trkpt lat="49.59334" lon="1.51967">
        <ele>133</ele>
        <time>2013-07-04T08:29:59Z</time>
      </trkpt>
      <trkpt lat="49.5934" lon="1.51981">
        <ele>143</ele>
        <time>2013-07-04T08:30:11Z</time>
      </trkpt>
      <trkpt lat="49.59344" lon="1.51995">
        <ele>143</ele>
        <time>2013-07-04T08:30:17Z</time>
      </trkpt>
      <trkpt lat="49.5935" lon="1.5201">
        <ele>137</ele>
        <time>2013-07-04T08:30:24Z</time>
      </trkpt>
      <trkpt lat="49.59354" lon="1.52024">
        <ele>137</ele>
        <time>2013-07-04T08:30:35Z</time>
      </trkpt>
      <trkpt lat="49.5936" lon="1.52034">
        <ele>137</ele>
        <time>2013-07-04T08:30:41Z</time>
      </trkpt>
      <trkpt lat="49.59366" lon="1.52045">
        <ele>137</ele>
        <time>2013-07-04T08:30:49Z</time>
      </trkpt>
      <trkpt lat="49.59371" lon="1.52062">
        <ele>137</ele>
        <time>2013-07-04T08:31:00Z</time>
      </trkpt>
      <trkpt lat="49.59376" lon="1.52075">
        <ele>137</ele>
        <time>2013-07-04T08:31:06Z</time>
      </trkpt>
      <trkpt lat="49.59381" lon="1.52088">
        <ele>137</ele>
        <time>2013-07-04T08:31:13Z</time>
      </trkpt>
      <trkpt lat="49.59385" lon="1.52103">
        <ele>137</ele>
        <time>2013-07-04T08:31:22Z</time>
      </trkpt>
      <trkpt lat="49.59392" lon="1.52114">
        <ele>137</ele>
        <time>2013-07-04T08:31:29Z</time>
      </trkpt>
      <trkpt lat="49.59398" lon="1.52125">
        <ele>137</ele>
        <time>2013-07-04T08:31:37Z</time>
      </trkpt>
      <trkpt lat="49.59403" lon="1.52138">
        <ele>137</ele>
        <time>2013-07-04T08:31:45Z</time>
      </trkpt>
      <trkpt lat="49.59407" lon="1.52155">
        <ele>137</ele>
        <time>2013-07-04T08:31:55Z</time>
      </trkpt>
      <trkpt lat="49.59412" lon="1.52168">
        <ele>137</ele>
        <time>2013-07-04T08:32:02Z</time>
      </trkpt>
      <trkpt lat="49.59416" lon="1.52182">
        <ele>137</ele>
        <time>2013-07-04T08:32:12Z</time>
      </trkpt>
      <trkpt lat="49.59422" lon="1.52194">
        <ele>137</ele>
        <time>2013-07-04T08:32:20Z</time>
      </trkpt>
      <trkpt lat="49.59429" lon="1.52206">
        <ele>137</ele>
        <time>2013-07-04T08:32:27Z</time>
      </trkpt>
      <trkpt lat="49.59433" lon="1.5222">
        <ele>137</ele>
        <time>2013-07-04T08:32:35Z</time>
      </trkpt>
      <trkpt lat="49.59436" lon="1.52235">
        <ele>137</ele>
        <time>2013-07-04T08:32:44Z</time>
      </trkpt>
      <trkpt lat="49.59442" lon="1.52246">
        <ele>137</ele>
        <time>2013-07-04T08:32:48Z</time>
      </trkpt>
      <trkpt lat="49.59448" lon="1.52257">
        <ele>137</ele>
        <time>2013-07-04T08:32:56Z</time>
      </trkpt>
      <trkpt lat="49.59452" lon="1.52271">
        <ele>137</ele>
        <time>2013-07-04T08:33:06Z</time>
      </trkpt>
      <trkpt lat="49.59458" lon="1.52284">
        <ele>137</ele>
        <time>2013-07-04T08:33:17Z</time>
      </trkpt>
      <trkpt lat="49.59461" lon="1.52299">
        <ele>137</ele>
        <time>2013-07-04T08:33:24Z</time>
      </trkpt>
      <trkpt lat="49.59466" lon="1.5231">
        <ele>137</ele>
        <time>2013-07-04T08:33:32Z</time>
      </trkpt>
      <trkpt lat="49.59469" lon="1.52325">
        <ele>137</ele>
        <time>2013-07-04T08:33:39Z</time>
      </trkpt>
      <trkpt lat="49.59475" lon="1.52336">
        <ele>137</ele>
        <time>2013-07-04T08:33:46Z</time>
      </trkpt>
      <trkpt lat="49.5948" lon="1.52349">
        <ele>137</ele>
        <time>2013-07-04T08:33:53Z</time>
      </trkpt>
      <trkpt lat="49.59486" lon="1.52362">
        <ele>145</ele>
        <time>2013-07-04T08:34:05Z</time>
      </trkpt>
      <trkpt lat="49.59491" lon="1.52375">
        <ele>145</ele>
        <time>2013-07-04T08:34:12Z</time>
      </trkpt>
      <trkpt lat="49.59497" lon="1.52388">
        <ele>145</ele>
        <time>2013-07-04T08:34:20Z</time>
      </trkpt>
      <trkpt lat="49.59503" lon="1.524">
        <ele>145</ele>
        <time>2013-07-04T08:34:28Z</time>
      </trkpt>
      <trkpt lat="49.59509" lon="1.52413">
        <ele>145</ele>
        <time>2013-07-04T08:34:35Z</time>
      </trkpt>
      <trkpt lat="49.59514" lon="1.52426">
        <ele>140</ele>
        <time>2013-07-04T08:34:41Z</time>
      </trkpt>
      <trkpt lat="49.59519" lon="1.5244">
        <ele>140</ele>
        <time>2013-07-04T08:34:49Z</time>
      </trkpt>
      <trkpt lat="49.59525" lon="1.52454">
        <ele>140</ele>
        <time>2013-07-04T08:34:56Z</time>
      </trkpt>
      <trkpt lat="49.59531" lon="1.52467">
        <ele>140</ele>
        <time>2013-07-04T08:35:06Z</time>
      </trkpt>
      <trkpt lat="49.59535" lon="1.52481">
        <ele>140</ele>
        <time>2013-07-04T08:35:17Z</time>
      </trkpt>
      <trkpt lat="49.5954" lon="1.52495">
        <ele>140</ele>
        <time>2013-07-04T08:35:27Z</time>
      </trkpt>
      <trkpt lat="49.59544" lon="1.52508">
        <ele>145</ele>
        <time>2013-07-04T08:35:34Z</time>
      </trkpt>
      <trkpt lat="49.59548" lon="1.52522">
        <ele>145</ele>
        <time>2013-07-04T08:35:40Z</time>
      </trkpt>
      <trkpt lat="49.59555" lon="1.52535">
        <ele>145</ele>
        <time>2013-07-04T08:35:48Z</time>
      </trkpt>
      <trkpt lat="49.59559" lon="1.52547">
        <ele>145</ele>
        <time>2013-07-04T08:35:55Z</time>
      </trkpt>
      <trkpt lat="49.59564" lon="1.5256">
        <ele>145</ele>
        <time>2013-07-04T08:36:02Z</time>
      </trkpt>
      <trkpt lat="49.5957" lon="1.52571">
        <ele>145</ele>
        <time>2013-07-04T08:36:10Z</time>
      </trkpt>
      <trkpt lat="49.59576" lon="1.52584">
        <ele>145</ele>
        <time>2013-07-04T08:36:19Z</time>
      </trkpt>
      <trkpt lat="49.59579" lon="1.526">
        <ele>145</ele>
        <time>2013-07-04T08:36:27Z</time>
      </trkpt>
      <trkpt lat="49.59584" lon="1.5261">
        <ele>145</ele>
        <time>2013-07-04T08:36:35Z</time>
      </trkpt>
      <trkpt lat="49.59589" lon="1.52623">
        <ele>145</ele>
        <time>2013-07-04T08:36:40Z</time>
      </trkpt>
      <trkpt lat="49.59594" lon="1.52635">
        <ele>140</ele>
        <time>2013-07-04T08:36:47Z</time>
      </trkpt>
      <trkpt lat="49.59599" lon="1.52649">
        <ele>140</ele>
        <time>2013-07-04T08:36:57Z</time>
      </trkpt>
      <trkpt lat="49.59604" lon="1.52662">
        <ele>140</ele>
        <time>2013-07-04T08:37:03Z</time>
      </trkpt>
      <trkpt lat="49.59609" lon="1.52674">
        <ele>140</ele>
        <time>2013-07-04T08:37:09Z</time>
      </trkpt>
      <trkpt lat="49.59617" lon="1.52682">
        <ele>140</ele>
        <time>2013-07-04T08:37:17Z</time>
      </trkpt>
      <trkpt lat="49.59621" lon="1.52697">
        <ele>140</ele>
        <time>2013-07-04T08:37:27Z</time>
      </trkpt>
      <trkpt lat="49.59626" lon="1.5271">
        <ele>140</ele>
        <time>2013-07-04T08:37:34Z</time>
      </trkpt>
      <trkpt lat="49.59632" lon="1.52722">
        <ele>140</ele>
        <time>2013-07-04T08:37:42Z</time>
      </trkpt>
      <trkpt lat="49.59636" lon="1.52734">
        <ele>140</ele>
        <time>2013-07-04T08:37:51Z</time>
      </trkpt>
      <trkpt lat="49.5964" lon="1.52749">
        <ele>140</ele>
        <time>2013-07-04T08:38:01Z</time>
      </trkpt>
      <trkpt lat="49.59646" lon="1.5276">
        <ele>140</ele>
        <time>2013-07-04T08:38:12Z</time>
      </trkpt>
      <trkpt lat="49.59651" lon="1.52772">
        <ele>140</ele>
        <time>2013-07-04T08:38:19Z</time>
      </trkpt>
      <trkpt lat="49.59656" lon="1.52787">
        <ele>140</ele>
        <time>2013-07-04T08:38:28Z</time>
      </trkpt>
      <trkpt lat="49.59661" lon="1.52801">
        <ele>140</ele>
        <time>2013-07-04T08:38:36Z</time>
      </trkpt>
      <trkpt lat="49.59665" lon="1.52813">
        <ele>140</ele>
        <time>2013-07-04T08:38:45Z</time>
      </trkpt>
      <trkpt lat="49.5967" lon="1.52826">
        <ele>140</ele>
        <time>2013-07-04T08:38:54Z</time>
      </trkpt>
      <trkpt lat="49.59673" lon="1.52839">
        <ele>140</ele>
        <time>2013-07-04T08:39:00Z</time>
      </trkpt>
      <trkpt lat="49.59678" lon="1.52852">
        <ele>140</ele>
        <time>2013-07-04T08:39:06Z</time>
      </trkpt>
      <trkpt lat="49.59683" lon="1.52865">
        <ele>140</ele>
        <time>2013-07-04T08:39:14Z</time>
      </trkpt>
      <trkpt lat="49.59688" lon="1.52877">
        <ele>140</ele>
        <time>2013-07-04T08:39:24Z</time>
      </trkpt>
      <trkpt lat="49.59695" lon="1.52892">
        <ele>140</ele>
        <time>2013-07-04T08:39:32Z</time>
      </trkpt>
      <trkpt lat="49.59701" lon="1.52902">
        <ele>140</ele>
        <time>2013-07-04T08:39:36Z</time>
      </trkpt>
      <trkpt lat="49.59707" lon="1.52912">
        <ele>140</ele>
        <time>2013-07-04T08:39:42Z</time>
      </trkpt>
      <trkpt lat="49.59712" lon="1.52924">
        <ele>140</ele>
        <time>2013-07-04T08:39:51Z</time>
      </trkpt>
      <trkpt lat="49.59719" lon="1.52938">
        <ele>140</ele>
        <time>2013-07-04T08:39:57Z</time>
      </trkpt>
      <trkpt lat="49.5972" lon="1.52953">
        <ele>140</ele>
        <time>2013-07-04T08:40:07Z</time>
      </trkpt>
      <trkpt lat="49.59726" lon="1.52964">
        <ele>140</ele>
        <time>2013-07-04T08:40:16Z</time>
      </trkpt>
      <trkpt lat="49.5973" lon="1.52977">
        <ele>140</ele>
        <time>2013-07-04T08:40:23Z</time>
      </trkpt>
      <trkpt lat="49.59734" lon="1.52989">
        <ele>140</ele>
        <time>2013-07-04T08:40:33Z</time>
      </trkpt>
      <trkpt lat="49.59739" lon="1.53002">
        <ele>140</ele>
        <time>2013-07-04T08:40:41Z</time>
      </trkpt>
      <trkpt lat="49.59745" lon="1.53015">
        <ele>140</ele>
        <time>2013-07-04T08:40:50Z</time>
      </trkpt>
      <trkpt lat="49.5975" lon="1.53029">
        <ele>145</ele>
        <time>2013-07-04T08:40:57Z</time>
      </trkpt>
      <trkpt lat="49.59756" lon="1.53042">
        <ele>145</ele>
        <time>2013-07-04T08:41:07Z</time>
      </trkpt>
      <trkpt lat="49.5976" lon="1.53059">
        <ele>155</ele>
        <time>2013-07-04T08:41:15Z</time>
      </trkpt>
      <trkpt lat="49.59767" lon="1.53068">
        <ele>150</ele>
        <time>2013-07-04T08:41:20Z</time>
      </trkpt>
      <trkpt lat="49.59772" lon="1.53082">
        <ele>143</ele>
        <time>2013-07-04T08:41:29Z</time>
      </trkpt>
      <trkpt lat="49.59775" lon="1.53095">
        <ele>143</ele>
        <time>2013-07-04T08:41:39Z</time>
      </trkpt>
      <trkpt lat="49.59779" lon="1.53108">
        <ele>143</ele>
        <time>2013-07-04T08:41:45Z</time>
      </trkpt>
      <trkpt lat="49.59782" lon="1.53122">
        <ele>151</ele>
        <time>2013-07-04T08:41:56Z</time>
      </trkpt>
      <trkpt lat="49.59788" lon="1.53135">
        <ele>151</ele>
        <time>2013-07-04T08:42:05Z</time>
      </trkpt>
      <trkpt lat="49.59793" lon="1.53147">
        <ele>151</ele>
        <time>2013-07-04T08:42:10Z</time>
      </trkpt>
      <trkpt lat="49.598" lon="1.53157">
        <ele>151</ele>
        <time>2013-07-04T08:42:19Z</time>
      </trkpt>
      <trkpt lat="49.59806" lon="1.5317">
        <ele>151</ele>
        <time>2013-07-04T08:42:25Z</time>
      </trkpt>
      <trkpt lat="49.59811" lon="1.53184">
        <ele>144</ele>
        <time>2013-07-04T08:42:33Z</time>
      </trkpt>
      <trkpt lat="49.59814" lon="1.53199">
        <ele>144</ele>
        <time>2013-07-04T08:42:41Z</time>
      </trkpt>
      <trkpt lat="49.59817" lon="1.53212">
        <ele>144</ele>
        <time>2013-07-04T08:42:48Z</time>
      </trkpt>
      <trkpt lat="49.59823" lon="1.53223">
        <ele>144</ele>
        <time>2013-07-04T08:42:57Z</time>
      </trkpt>
      <trkpt lat="49.59829" lon="1.53233">
        <ele>144</ele>
        <time>2013-07-04T08:43:03Z</time>
      </trkpt>
      <trkpt lat="49.59836" lon="1.53242">
        <ele>144</ele>
        <time>2013-07-04T08:43:08Z</time>
      </trkpt>
      <trkpt lat="49.59841" lon="1.53254">
        <ele>149</ele>
        <time>2013-07-04T08:43:16Z</time>
      </trkpt>
      <trkpt lat="49.59847" lon="1.53267">
        <ele>149</ele>
        <time>2013-07-04T08:43:25Z</time>
      </trkpt>
      <trkpt lat="49.59853" lon="1.53279">
        <ele>149</ele>
        <time>2013-07-04T08:43:32Z</time>
      </trkpt>
      <trkpt lat="49.59859" lon="1.5329">
        <ele>149</ele>
        <time>2013-07-04T08:43:40Z</time>
      </trkpt>
      <trkpt lat="49.59864" lon="1.53304">
        <ele>149</ele>
        <time>2013-07-04T08:43:48Z</time>
      </trkpt>
      <trkpt lat="49.59871" lon="1.53315">
        <ele>149</ele>
        <time>2013-07-04T08:43:55Z</time>
      </trkpt>
      <trkpt lat="49.59877" lon="1.53325">
        <ele>143</ele>
        <time>2013-07-04T08:44:01Z</time>
      </trkpt>
      <trkpt lat="49.59883" lon="1.53336">
        <ele>143</ele>
        <time>2013-07-04T08:44:10Z</time>
      </trkpt>
      <trkpt lat="49.5989" lon="1.53349">
        <ele>143</ele>
        <time>2013-07-04T08:44:16Z</time>
      </trkpt>
      <trkpt lat="49.59896" lon="1.5336">
        <ele>134</ele>
        <time>2013-07-04T08:44:22Z</time>
      </trkpt>
      <trkpt lat="49.59903" lon="1.53371">
        <ele>134</ele>
        <time>2013-07-04T08:44:29Z</time>
      </trkpt>
      <trkpt lat="49.5991" lon="1.53381">
        <ele>134</ele>
        <time>2013-07-04T08:44:40Z</time>
      </trkpt>
      <trkpt lat="49.59917" lon="1.5339">
        <ele>141</ele>
        <time>2013-07-04T08:48:21Z</time>
      </trkpt>
      <trkpt lat="49.59922" lon="1.53409">
        <ele>141</ele>
        <time>2013-07-04T08:48:40Z</time>
      </trkpt>
      <trkpt lat="49.59932" lon="1.53418">
        <ele>141</ele>
        <time>2013-07-04T08:48:45Z</time>
      </trkpt>
      <trkpt lat="49.5994" lon="1.53426">
        <ele>141</ele>
        <time>2013-07-04T08:48:52Z</time>
      </trkpt>
      <trkpt lat="49.59948" lon="1.53435">
        <ele>136</ele>
        <time>2013-07-04T08:48:58Z</time>
      </trkpt>
      <trkpt lat="49.59955" lon="1.53446">
        <ele>136</ele>
        <time>2013-07-04T08:49:04Z</time>
      </trkpt>
      <trkpt lat="49.59962" lon="1.53456">
        <ele>136</ele>
        <time>2013-07-04T08:49:11Z</time>
      </trkpt>
      <trkpt lat="49.59969" lon="1.53466">
        <ele>147</ele>
        <time>2013-07-04T08:49:22Z</time>
      </trkpt>
      <trkpt lat="49.59977" lon="1.53475">
        <ele>147</ele>
        <time>2013-07-04T08:49:31Z</time>
      </trkpt>
      <trkpt lat="49.59985" lon="1.53484">
        <ele>147</ele>
        <time>2013-07-04T08:49:39Z</time>
      </trkpt>
      <trkpt lat="49.59993" lon="1.53492">
        <ele>147</ele>
        <time>2013-07-04T08:49:46Z</time>
      </trkpt>
      <trkpt lat="49.60001" lon="1.53501">
        <ele>147</ele>
        <time>2013-07-04T08:49:54Z</time>
      </trkpt>
      <trkpt lat="49.60009" lon="1.5351">
        <ele>147</ele>
        <time>2013-07-04T08:50:00Z</time>
      </trkpt>
      <trkpt lat="49.60018" lon="1.53518">
        <ele>147</ele>
        <time>2013-07-04T08:50:07Z</time>
      </trkpt>
      <trkpt lat="49.60027" lon="1.53527">
        <ele>141</ele>
        <time>2013-07-04T08:50:13Z</time>
      </trkpt>
      <trkpt lat="49.60036" lon="1.53532">
        <ele>141</ele>
        <time>2013-07-04T08:50:22Z</time>
      </trkpt>
      <trkpt lat="49.60043" lon="1.53541">
        <ele>141</ele>
        <time>2013-07-04T08:50:30Z</time>
      </trkpt>
      <trkpt lat="49.60051" lon="1.53549">
        <ele>152</ele>
        <time>2013-07-04T08:50:40Z</time>
      </trkpt>
      <trkpt lat="49.6006" lon="1.53556">
        <ele>152</ele>
        <time>2013-07-04T08:50:48Z</time>
      </trkpt>
      <trkpt lat="49.6007" lon="1.53565">
        <ele>152</ele>
        <time>2013-07-04T08:50:55Z</time>
      </trkpt>
      <trkpt lat="49.60078" lon="1.53572">
        <ele>146</ele>
        <time>2013-07-04T08:51:03Z</time>
      </trkpt>
      <trkpt lat="49.60087" lon="1.53581">
        <ele>146</ele>
        <time>2013-07-04T08:51:11Z</time>
      </trkpt>
      <trkpt lat="49.60095" lon="1.53589">
        <ele>146</ele>
        <time>2013-07-04T08:51:20Z</time>
      </trkpt>
      <trkpt lat="49.60105" lon="1.53595">
        <ele>146</ele>
        <time>2013-07-04T08:51:28Z</time>
      </trkpt>
      <trkpt lat="49.60114" lon="1.53599">
        <ele>146</ele>
        <time>2013-07-04T08:51:34Z</time>
      </trkpt>
      <trkpt lat="49.60122" lon="1.53607">
        <ele>146</ele>
        <time>2013-07-04T08:51:41Z</time>
      </trkpt>
      <trkpt lat="49.60132" lon="1.53612">
        <ele>151</ele>
        <time>2013-07-04T08:51:51Z</time>
      </trkpt>
      <trkpt lat="49.60142" lon="1.53614">
        <ele>151</ele>
        <time>2013-07-04T08:51:57Z</time>
      </trkpt>
      <trkpt lat="49.60151" lon="1.5362">
        <ele>151</ele>
        <time>2013-07-04T08:52:04Z</time>
      </trkpt>
      <trkpt lat="49.60159" lon="1.53631">
        <ele>151</ele>
        <time>2013-07-04T08:52:14Z</time>
      </trkpt>
      <trkpt lat="49.60168" lon="1.53634">
        <ele>151</ele>
        <time>2013-07-04T08:52:22Z</time>
      </trkpt>
      <trkpt lat="49.60177" lon="1.53638">
        <ele>151</ele>
        <time>2013-07-04T08:52:31Z</time>
      </trkpt>
      <trkpt lat="49.60186" lon="1.53648">
        <ele>151</ele>
        <time>2013-07-04T08:52:39Z</time>
      </trkpt>
      <trkpt lat="49.60195" lon="1.53647">
        <ele>146</ele>
        <time>2013-07-04T08:52:42Z</time>
      </trkpt>
      <trkpt lat="49.60204" lon="1.53652">
        <ele>146</ele>
        <time>2013-07-04T08:52:50Z</time>
      </trkpt>
      <trkpt lat="49.60214" lon="1.53654">
        <ele>146</ele>
        <time>2013-07-04T08:53:03Z</time>
      </trkpt>
      <trkpt lat="49.60224" lon="1.5366">
        <ele>146</ele>
        <time>2013-07-04T08:53:13Z</time>
      </trkpt>
      <trkpt lat="49.60233" lon="1.53664">
        <ele>138</ele>
        <time>2013-07-04T08:53:19Z</time>
      </trkpt>
      <trkpt lat="49.60244" lon="1.53669">
        <ele>138</ele>
        <time>2013-07-04T08:53:32Z</time>
      </trkpt>
      <trkpt lat="49.60254" lon="1.53671">
        <ele>138</ele>
        <time>2013-07-04T08:53:39Z</time>
      </trkpt>
      <trkpt lat="49.60263" lon="1.53675">
        <ele>138</ele>
        <time>2013-07-04T08:53:46Z</time>
      </trkpt>
      <trkpt lat="49.60275" lon="1.53674">
        <ele>138</ele>
        <time>2013-07-04T08:53:58Z</time>
      </trkpt>
      <trkpt lat="49.60283" lon="1.5368">
        <ele>138</ele>
        <time>2013-07-04T08:54:02Z</time>
      </trkpt>
      <trkpt lat="49.60293" lon="1.53683">
        <ele>144</ele>
        <time>2013-07-04T08:54:15Z</time>
      </trkpt>
      <trkpt lat="49.60303" lon="1.53688">
        <ele>144</ele>
        <time>2013-07-04T08:54:24Z</time>
      </trkpt>
      <trkpt lat="49.60313" lon="1.53689">
        <ele>144</ele>
        <time>2013-07-04T08:54:28Z</time>
      </trkpt>
      <trkpt lat="49.60322" lon="1.53691">
        <ele>136</ele>
        <time>2013-07-04T08:54:39Z</time>
      </trkpt>
      <trkpt lat="49.60332" lon="1.53693">
        <ele>136</ele>
        <time>2013-07-04T08:54:44Z</time>
      </trkpt>
      <trkpt lat="49.60342" lon="1.53696">
        <ele>131</ele>
        <time>2013-07-04T08:54:50Z</time>
      </trkpt>
      <trkpt lat="49.60352" lon="1.53697">
        <ele>131</ele>
        <time>2013-07-04T08:55:00Z</time>
      </trkpt>
      <trkpt lat="49.60364" lon="1.53698">
        <ele>137</ele>
        <time>2013-07-04T08:55:13Z</time>
      </trkpt>
      <trkpt lat="49.60374" lon="1.53697">
        <ele>137</ele>
        <time>2013-07-04T08:55:16Z</time>
      </trkpt>
      <trkpt lat="49.60384" lon="1.53699">
        <ele>137</ele>
        <time>2013-07-04T08:55:20Z</time>
      </trkpt>
      <trkpt lat="49.60396" lon="1.53698">
        <ele>137</ele>
        <time>2013-07-04T08:55:35Z</time>
      </trkpt>
      <trkpt lat="49.60405" lon="1.537">
        <ele>137</ele>
        <time>2013-07-04T08:55:38Z</time>
      </trkpt>
      <trkpt lat="49.60417" lon="1.53704">
        <ele>145</ele>
        <time>2013-07-04T08:55:50Z</time>
      </trkpt>
      <trkpt lat="49.60428" lon="1.53704">
        <ele>145</ele>
        <time>2013-07-04T08:55:57Z</time>
      </trkpt>
      <trkpt lat="49.60437" lon="1.53703">
        <ele>145</ele>
        <time>2013-07-04T08:56:04Z</time>
      </trkpt>
      <trkpt lat="49.60447" lon="1.53703">
        <ele>145</ele>
        <time>2013-07-04T08:56:11Z</time>
      </trkpt>
      <trkpt lat="49.60456" lon="1.53706">
        <ele>145</ele>
        <time>2013-07-04T08:56:17Z</time>
      </trkpt>
      <trkpt lat="49.60465" lon="1.53704">
        <ele>145</ele>
        <time>2013-07-04T08:56:24Z</time>
      </trkpt>
      <trkpt lat="49.60477" lon="1.53706">
        <ele>145</ele>
        <time>2013-07-04T08:56:31Z</time>
      </trkpt>
      <trkpt lat="49.60486" lon="1.53705">
        <ele>145</ele>
        <time>2013-07-04T08:56:41Z</time>
      </trkpt>
      <trkpt lat="49.60496" lon="1.537">
        <ele>145</ele>
        <time>2013-07-04T08:56:47Z</time>
      </trkpt>
      <trkpt lat="49.60505" lon="1.53694">
        <ele>145</ele>
        <time>2013-07-04T08:56:57Z</time>
      </trkpt>
      <trkpt lat="49.60517" lon="1.53693">
        <ele>145</ele>
        <time>2013-07-04T08:57:08Z</time>
      </trkpt>
      <trkpt lat="49.60528" lon="1.53699">
        <ele>145</ele>
        <time>2013-07-04T08:57:16Z</time>
      </trkpt>
      <trkpt lat="49.60538" lon="1.53697">
        <ele>145</ele>
        <time>2013-07-04T08:57:22Z</time>
      </trkpt>
      <trkpt lat="49.60547" lon="1.53691">
        <ele>154</ele>
        <time>2013-07-04T08:57:28Z</time>
      </trkpt>
      <trkpt lat="49.60557" lon="1.53687">
        <ele>154</ele>
        <time>2013-07-04T08:57:39Z</time>
      </trkpt>
      <trkpt lat="49.60566" lon="1.53684">
        <ele>154</ele>
        <time>2013-07-04T08:57:46Z</time>
      </trkpt>
      <trkpt lat="49.60575" lon="1.53681">
        <ele>146</ele>
        <time>2013-07-04T08:57:53Z</time>
      </trkpt>
      <trkpt lat="49.60584" lon="1.53678">
        <ele>146</ele>
        <time>2013-07-04T08:58:01Z</time>
      </trkpt>
      <trkpt lat="49.60593" lon="1.53676">
        <ele>154</ele>
        <time>2013-07-04T08:58:12Z</time>
      </trkpt>
      <trkpt lat="49.60603" lon="1.53675">
        <ele>154</ele>
        <time>2013-07-04T08:58:20Z</time>
      </trkpt>
      <trkpt lat="49.60612" lon="1.53669">
        <ele>154</ele>
        <time>2013-07-04T08:58:27Z</time>
      </trkpt>
      <trkpt lat="49.60621" lon="1.5366">
        <ele>154</ele>
        <time>2013-07-04T08:58:34Z</time>
      </trkpt>
      <trkpt lat="49.60631" lon="1.53658">
        <ele>154</ele>
        <time>2013-07-04T08:58:41Z</time>
      </trkpt>
      <trkpt lat="49.6064" lon="1.53651">
        <ele>154</ele>
        <time>2013-07-04T08:58:48Z</time>
      </trkpt>
      <trkpt lat="49.60649" lon="1.53645">
        <ele>146</ele>
        <time>2013-07-04T08:58:57Z</time>
      </trkpt>
      <trkpt lat="49.60659" lon="1.53643">
        <ele>146</ele>
        <time>2013-07-04T08:59:05Z</time>
      </trkpt>
      <trkpt lat="49.60666" lon="1.53634">
        <ele>146</ele>
        <time>2013-07-04T08:59:13Z</time>
      </trkpt>
      <trkpt lat="49.60675" lon="1.53628">
        <ele>146</ele>
        <time>2013-07-04T08:59:20Z</time>
      </trkpt>
      <trkpt lat="49.60684" lon="1.53623">
        <ele>146</ele>
        <time>2013-07-04T08:59:29Z</time>
      </trkpt>
      <trkpt lat="49.60693" lon="1.53619">
        <ele>146</ele>
        <time>2013-07-04T08:59:36Z</time>
      </trkpt>
      <trkpt lat="49.60704" lon="1.53614">
        <ele>146</ele>
        <time>2013-07-04T08:59:44Z</time>
      </trkpt>
      <trkpt lat="49.60714" lon="1.53609">
        <ele>146</ele>
        <time>2013-07-04T08:59:51Z</time>
      </trkpt>
      <trkpt lat="49.60722" lon="1.53601">
        <ele>146</ele>
        <time>2013-07-04T09:00:01Z</time>
      </trkpt>
      <trkpt lat="49.60733" lon="1.53598">
        <ele>146</ele>
        <time>2013-07-04T09:00:07Z</time>
      </trkpt>
      <trkpt lat="49.60742" lon="1.53595">
        <ele>146</ele>
        <time>2013-07-04T09:00:17Z</time>
      </trkpt>
      <trkpt lat="49.60751" lon="1.5359">
        <ele>146</ele>
        <time>2013-07-04T09:00:24Z</time>
      </trkpt>
      <trkpt lat="49.6076" lon="1.53587">
        <ele>146</ele>
        <time>2013-07-04T09:00:29Z</time>
      </trkpt>
      <trkpt lat="49.6077" lon="1.53589">
        <ele>146</ele>
        <time>2013-07-04T09:00:34Z</time>
      </trkpt>
      <trkpt lat="49.60779" lon="1.53582">
        <ele>146</ele>
        <time>2013-07-04T09:00:46Z</time>
      </trkpt>
      <trkpt lat="49.60788" lon="1.53578">
        <ele>146</ele>
        <time>2013-07-04T09:00:53Z</time>
      </trkpt>
      <trkpt lat="49.60798" lon="1.53573">
        <ele>140</ele>
        <time>2013-07-04T09:01:01Z</time>
      </trkpt>
      <trkpt lat="49.60807" lon="1.53567">
        <ele>140</ele>
        <time>2013-07-04T09:01:11Z</time>
      </trkpt>
      <trkpt lat="49.60816" lon="1.53563">
        <ele>140</ele>
        <time>2013-07-04T09:01:17Z</time>
      </trkpt>
      <trkpt lat="49.60824" lon="1.53556">
        <ele>150</ele>
        <time>2013-07-04T09:01:26Z</time>
      </trkpt>
      <trkpt lat="49.60833" lon="1.53551">
        <ele>156</ele>
        <time>2013-07-04T09:01:35Z</time>
      </trkpt>
      <trkpt lat="49.60843" lon="1.53545">
        <ele>156</ele>
        <time>2013-07-04T09:01:43Z</time>
      </trkpt>
      <trkpt lat="49.60854" lon="1.53545">
        <ele>156</ele>
        <time>2013-07-04T09:02:01Z</time>
      </trkpt>
      <trkpt lat="49.60862" lon="1.53537">
        <ele>156</ele>
        <time>2013-07-04T09:02:08Z</time>
      </trkpt>
      <trkpt lat="49.60869" lon="1.53527">
        <ele>156</ele>
        <time>2013-07-04T09:02:19Z</time>
      </trkpt>
      <trkpt lat="49.60878" lon="1.53526">
        <ele>150</ele>
        <time>2013-07-04T09:02:25Z</time>
      </trkpt>
      <trkpt lat="49.60887" lon="1.5352">
        <ele>150</ele>
        <time>2013-07-04T09:02:35Z</time>
      </trkpt>
      <trkpt lat="49.60896" lon="1.53517">
        <ele>150</ele>
        <time>2013-07-04T09:02:41Z</time>
      </trkpt>
      <trkpt lat="49.60904" lon="1.5351">
        <ele>150</ele>
        <time>2013-07-04T09:02:49Z</time>
      </trkpt>
      <trkpt lat="49.60914" lon="1.53506">
        <ele>150</ele>
        <time>2013-07-04T09:02:57Z</time>
      </trkpt>
      <trkpt lat="49.60924" lon="1.53501">
        <ele>150</ele>
        <time>2013-07-04T09:03:02Z</time>
      </trkpt>
      <trkpt lat="49.60935" lon="1.53499">
        <ele>150</ele>
        <time>2013-07-04T09:03:09Z</time>
      </trkpt>
      <trkpt lat="49.60945" lon="1.53493">
        <ele>144</ele>
        <time>2013-07-04T09:03:17Z</time>
      </trkpt>
      <trkpt lat="49.60954" lon="1.5349">
        <ele>144</ele>
        <time>2013-07-04T09:03:24Z</time>
      </trkpt>
      <trkpt lat="49.60962" lon="1.53486">
        <ele>144</ele>
        <time>2013-07-04T09:03:31Z</time>
      </trkpt>
      <trkpt lat="49.6097" lon="1.53477">
        <ele>155</ele>
        <time>2013-07-04T09:03:45Z</time>
      </trkpt>
      <trkpt lat="49.6098" lon="1.53477">
        <ele>155</ele>
        <time>2013-07-04T09:03:52Z</time>
      </trkpt>
      <trkpt lat="49.6099" lon="1.5347">
        <ele>155</ele>
        <time>2013-07-04T09:04:01Z</time>
      </trkpt>
      <trkpt lat="49.61" lon="1.53466">
        <ele>155</ele>
        <time>2013-07-04T09:04:08Z</time>
      </trkpt>
      <trkpt lat="49.61007" lon="1.53457">
        <ele>145</ele>
        <time>2013-07-04T09:04:14Z</time>
      </trkpt>
      <trkpt lat="49.61017" lon="1.53451">
        <ele>145</ele>
        <time>2013-07-04T09:04:22Z</time>
      </trkpt>
      <trkpt lat="49.61026" lon="1.53451">
        <ele>145</ele>
        <time>2013-07-04T09:04:30Z</time>
      </trkpt>
      <trkpt lat="49.61035" lon="1.53443">
        <ele>145</ele>
        <time>2013-07-04T09:04:36Z</time>
      </trkpt>
      <trkpt lat="49.61045" lon="1.53439">
        <ele>145</ele>
        <time>2013-07-04T09:04:44Z</time>
      </trkpt>
      <trkpt lat="49.61056" lon="1.53434">
        <ele>145</ele>
        <time>2013-07-04T09:04:51Z</time>
      </trkpt>
      <trkpt lat="49.61063" lon="1.53426">
        <ele>145</ele>
        <time>2013-07-04T09:05:00Z</time>
      </trkpt>
      <trkpt lat="49.61074" lon="1.53424">
        <ele>145</ele>
        <time>2013-07-04T09:05:07Z</time>
      </trkpt>
      <trkpt lat="49.61084" lon="1.53422">
        <ele>145</ele>
        <time>2013-07-04T09:05:14Z</time>
      </trkpt>
      <trkpt lat="49.61094" lon="1.53417">
        <ele>145</ele>
        <time>2013-07-04T09:05:21Z</time>
      </trkpt>
      <trkpt lat="49.61102" lon="1.5341">
        <ele>145</ele>
        <time>2013-07-04T09:05:30Z</time>
      </trkpt>
      <trkpt lat="49.61112" lon="1.53407">
        <ele>150</ele>
        <time>2013-07-04T09:05:38Z</time>
      </trkpt>
      <trkpt lat="49.61121" lon="1.53404">
        <ele>150</ele>
        <time>2013-07-04T09:05:47Z</time>
      </trkpt>
      <trkpt lat="49.6113" lon="1.534">
        <ele>150</ele>
        <time>2013-07-04T09:05:55Z</time>
      </trkpt>
      <trkpt lat="49.61139" lon="1.53395">
        <ele>150</ele>
        <time>2013-07-04T09:06:01Z</time>
      </trkpt>
      <trkpt lat="49.61147" lon="1.53391">
        <ele>150</ele>
        <time>2013-07-04T09:06:08Z</time>
      </trkpt>
      <trkpt lat="49.61156" lon="1.53386">
        <ele>150</ele>
        <time>2013-07-04T09:06:15Z</time>
      </trkpt>
      <trkpt lat="49.61165" lon="1.53382">
        <ele>150</ele>
        <time>2013-07-04T09:06:22Z</time>
      </trkpt>
      <trkpt lat="49.61172" lon="1.53373">
        <ele>150</ele>
        <time>2013-07-04T09:06:30Z</time>
      </trkpt>
      <trkpt lat="49.61182" lon="1.53375">
        <ele>155</ele>
        <time>2013-07-04T09:06:40Z</time>
      </trkpt>
      <trkpt lat="49.61189" lon="1.53367">
        <ele>155</ele>
        <time>2013-07-04T09:06:47Z</time>
      </trkpt>
      <trkpt lat="49.61198" lon="1.5336">
        <ele>148</ele>
        <time>2013-07-04T09:06:54Z</time>
      </trkpt>
      <trkpt lat="49.61207" lon="1.53357">
        <ele>148</ele>
        <time>2013-07-04T09:07:01Z</time>
      </trkpt>
      <trkpt lat="49.61216" lon="1.53352">
        <ele>148</ele>
        <time>2013-07-04T09:07:08Z</time>
      </trkpt>
      <trkpt lat="49.61226" lon="1.53346">
        <ele>148</ele>
        <time>2013-07-04T09:07:16Z</time>
      </trkpt>
      <trkpt lat="49.61234" lon="1.5334">
        <ele>148</ele>
        <time>2013-07-04T09:07:26Z</time>
      </trkpt>
      <trkpt lat="49.61244" lon="1.53334">
        <ele>148</ele>
        <time>2013-07-04T09:07:34Z</time>
      </trkpt>
      <trkpt lat="49.61255" lon="1.53333">
        <ele>148</ele>
        <time>2013-07-04T09:07:41Z</time>
      </trkpt>
      <trkpt lat="49.61265" lon="1.53326">
        <ele>148</ele>
        <time>2013-07-04T09:07:47Z</time>
      </trkpt>
      <trkpt lat="49.61274" lon="1.53324">
        <ele>148</ele>
        <time>2013-07-04T09:07:55Z</time>
      </trkpt>
      <trkpt lat="49.61283" lon="1.53317">
        <ele>148</ele>
        <time>2013-07-04T09:08:05Z</time>
      </trkpt>
      <trkpt lat="49.61293" lon="1.53311">
        <ele>148</ele>
        <time>2013-07-04T09:08:12Z</time>
      </trkpt>
      <trkpt lat="49.61303" lon="1.53309">
        <ele>148</ele>
        <time>2013-07-04T09:08:20Z</time>
      </trkpt>
      <trkpt lat="49.61311" lon="1.53303">
        <ele>148</ele>
        <time>2013-07-04T09:08:26Z</time>
      </trkpt>
      <trkpt lat="49.6132" lon="1.53295">
        <ele>142</ele>
        <time>2013-07-04T09:08:34Z</time>
      </trkpt>
      <trkpt lat="49.61329" lon="1.5329">
        <ele>142</ele>
        <time>2013-07-04T09:08:41Z</time>
      </trkpt>
      <trkpt lat="49.61339" lon="1.53289">
        <ele>148</ele>
        <time>2013-07-04T09:08:48Z</time>
      </trkpt>
      <trkpt lat="49.61349" lon="1.53286">
        <ele>148</ele>
        <time>2013-07-04T09:08:55Z</time>
      </trkpt>
      <trkpt lat="49.6136" lon="1.53283">
        <ele>148</ele>
        <time>2013-07-04T09:09:05Z</time>
      </trkpt>
      <trkpt lat="49.6137" lon="1.5328">
        <ele>153</ele>
        <time>2013-07-04T09:09:13Z</time>
      </trkpt>
      <trkpt lat="49.61376" lon="1.5327">
        <ele>153</ele>
        <time>2013-07-04T09:09:23Z</time>
      </trkpt>
      <trkpt lat="49.61383" lon="1.53254">
        <ele>153</ele>
        <time>2013-07-04T09:09:37Z</time>
      </trkpt>
      <trkpt lat="49.61383" lon="1.53237">
        <ele>161</ele>
        <time>2013-07-04T09:09:51Z</time>
      </trkpt>
      <trkpt lat="49.61377" lon="1.53227">
        <ele>161</ele>
        <time>2013-07-04T09:09:57Z</time>
      </trkpt>
      <trkpt lat="49.61381" lon="1.53212">
        <ele>161</ele>
        <time>2013-07-04T09:10:00Z</time>
      </trkpt>
      <trkpt lat="49.61374" lon="1.53202">
        <ele>171</ele>
        <time>2013-07-04T09:10:12Z</time>
      </trkpt>
      <trkpt lat="49.6137" lon="1.53187">
        <ele>171</ele>
        <time>2013-07-04T09:10:23Z</time>
      </trkpt>
      <trkpt lat="49.61369" lon="1.53173">
        <ele>171</ele>
        <time>2013-07-04T09:10:31Z</time>
      </trkpt>
      <trkpt lat="49.61371" lon="1.53158">
        <ele>171</ele>
        <time>2013-07-04T09:10:39Z</time>
      </trkpt>
      <trkpt lat="49.61376" lon="1.53144">
        <ele>171</ele>
        <time>2013-07-04T09:10:48Z</time>
      </trkpt>
      <trkpt lat="49.61383" lon="1.53132">
        <ele>171</ele>
        <time>2013-07-04T09:10:54Z</time>
      </trkpt>
      <trkpt lat="49.61388" lon="1.5312">
        <ele>171</ele>
        <time>2013-07-04T09:11:04Z</time>
      </trkpt>
      <trkpt lat="49.61391" lon="1.53104">
        <ele>165</ele>
        <time>2013-07-04T09:11:12Z</time>
      </trkpt>
      <trkpt lat="49.61397" lon="1.53086">
        <ele>158</ele>
        <time>2013-07-04T09:11:21Z</time>
      </trkpt>
      <trkpt lat="49.61401" lon="1.53073">
        <ele>158</ele>
        <time>2013-07-04T09:11:28Z</time>
      </trkpt>
      <trkpt lat="49.61406" lon="1.5306">
        <ele>158</ele>
        <time>2013-07-04T09:11:37Z</time>
      </trkpt>
      <trkpt lat="49.61412" lon="1.53047">
        <ele>165</ele>
        <time>2013-07-04T09:11:45Z</time>
      </trkpt>
      <trkpt lat="49.61417" lon="1.53034">
        <ele>165</ele>
        <time>2013-07-04T09:11:53Z</time>
      </trkpt>
      <trkpt lat="49.61422" lon="1.53022">
        <ele>165</ele>
        <time>2013-07-04T09:12:01Z</time>
      </trkpt>
      <trkpt lat="49.61426" lon="1.53009">
        <ele>165</ele>
        <time>2013-07-04T09:12:10Z</time>
      </trkpt>
      <trkpt lat="49.61432" lon="1.52996">
        <ele>165</ele>
        <time>2013-07-04T09:12:18Z</time>
      </trkpt>
      <trkpt lat="49.61437" lon="1.52984">
        <ele>159</ele>
        <time>2013-07-04T09:12:26Z</time>
      </trkpt>
      <trkpt lat="49.61444" lon="1.52973">
        <ele>159</ele>
        <time>2013-07-04T09:12:33Z</time>
      </trkpt>
      <trkpt lat="49.6145" lon="1.52962">
        <ele>159</ele>
        <time>2013-07-04T09:12:39Z</time>
      </trkpt>
      <trkpt lat="49.61455" lon="1.52949">
        <ele>159</ele>
        <time>2013-07-04T09:12:48Z</time>
      </trkpt>
      <trkpt lat="49.61459" lon="1.52936">
        <ele>159</ele>
        <time>2013-07-04T09:13:01Z</time>
      </trkpt>
      <trkpt lat="49.6145" lon="1.52932">
        <ele>173</ele>
        <time>2013-07-04T09:13:50Z</time>
      </trkpt>
      <trkpt lat="49.61444" lon="1.52918">
        <ele>166</ele>
        <time>2013-07-04T09:13:59Z</time>
      </trkpt>
      <trkpt lat="49.61451" lon="1.52909">
        <ele>159</ele>
        <time>2013-07-04T09:14:12Z</time>
      </trkpt>
      <trkpt lat="49.61454" lon="1.52895">
        <ele>153</ele>
        <time>2013-07-04T09:14:18Z</time>
      </trkpt>
      <trkpt lat="49.6145" lon="1.52883">
        <ele>153</ele>
        <time>2013-07-04T09:14:29Z</time>
      </trkpt>
      <trkpt lat="49.61444" lon="1.52873">
        <ele>153</ele>
        <time>2013-07-04T09:14:56Z</time>
      </trkpt>
      <trkpt lat="49.61439" lon="1.52861">
        <ele>153</ele>
        <time>2013-07-04T09:15:04Z</time>
      </trkpt>
      <trkpt lat="49.61433" lon="1.52848">
        <ele>153</ele>
        <time>2013-07-04T09:15:21Z</time>
      </trkpt>
      <trkpt lat="49.61441" lon="1.52837">
        <ele>153</ele>
        <time>2013-07-04T09:15:36Z</time>
      </trkpt>
      <trkpt lat="49.61437" lon="1.52822">
        <ele>153</ele>
        <time>2013-07-04T09:15:52Z</time>
      </trkpt>
      <trkpt lat="49.61437" lon="1.52803">
        <ele>153</ele>
        <time>2013-07-04T09:16:01Z</time>
      </trkpt>
      <trkpt lat="49.61437" lon="1.52789">
        <ele>147</ele>
        <time>2013-07-04T09:16:08Z</time>
      </trkpt>
      <trkpt lat="49.61444" lon="1.52779">
        <ele>140</ele>
        <time>2013-07-04T09:16:23Z</time>
      </trkpt>
      <trkpt lat="49.6145" lon="1.52766">
        <ele>140</ele>
        <time>2013-07-04T09:16:32Z</time>
      </trkpt>
      <trkpt lat="49.61456" lon="1.52752">
        <ele>140</ele>
        <time>2013-07-04T09:16:40Z</time>
      </trkpt>
      <trkpt lat="49.6146" lon="1.52739">
        <ele>140</ele>
        <time>2013-07-04T09:16:49Z</time>
      </trkpt>
      <trkpt lat="49.61467" lon="1.5273">
        <ele>140</ele>
        <time>2013-07-04T09:16:56Z</time>
      </trkpt>
      <trkpt lat="49.61472" lon="1.52716">
        <ele>140</ele>
        <time>2013-07-04T09:17:29Z</time>
      </trkpt>
      <trkpt lat="49.61481" lon="1.52709">
        <ele>140</ele>
        <time>2013-07-04T09:17:40Z</time>
      </trkpt>
      <trkpt lat="49.61489" lon="1.52705">
        <ele>148</ele>
        <time>2013-07-04T09:17:51Z</time>
      </trkpt>
      <trkpt lat="49.61498" lon="1.52699">
        <ele>153</ele>
        <time>2013-07-04T09:18:00Z</time>
      </trkpt>
      <trkpt lat="49.61506" lon="1.5269">
        <ele>153</ele>
        <time>2013-07-04T09:18:10Z</time>
      </trkpt>
      <trkpt lat="49.61512" lon="1.5268">
        <ele>161</ele>
        <time>2013-07-04T09:18:31Z</time>
      </trkpt>
      <trkpt lat="49.61513" lon="1.52665">
        <ele>155</ele>
        <time>2013-07-04T09:19:34Z</time>
      </trkpt>
      <trkpt lat="49.61506" lon="1.52657">
        <ele>161</ele>
        <time>2013-07-04T09:19:50Z</time>
      </trkpt>
      <trkpt lat="49.61496" lon="1.52656">
        <ele>172</ele>
        <time>2013-07-04T09:20:05Z</time>
      </trkpt>
      <trkpt lat="49.61491" lon="1.52642">
        <ele>172</ele>
        <time>2013-07-04T09:20:20Z</time>
      </trkpt>
      <trkpt lat="49.61493" lon="1.52625">
        <ele>164</ele>
        <time>2013-07-04T09:20:31Z</time>
      </trkpt>
      <trkpt lat="49.61485" lon="1.52613">
        <ele>164</ele>
        <time>2013-07-04T09:20:37Z</time>
      </trkpt>
      <trkpt lat="49.61486" lon="1.52599">
        <ele>152</ele>
        <time>2013-07-04T09:20:43Z</time>
      </trkpt>
      <trkpt lat="49.61481" lon="1.52587">
        <ele>152</ele>
        <time>2013-07-04T09:20:49Z</time>
      </trkpt>
      <trkpt lat="49.61478" lon="1.52573">
        <ele>152</ele>
        <time>2013-07-04T09:20:59Z</time>
      </trkpt>
      <trkpt lat="49.61475" lon="1.52558">
        <ele>161</ele>
        <time>2013-07-04T09:21:08Z</time>
      </trkpt>
      <trkpt lat="49.61471" lon="1.52544">
        <ele>170</ele>
        <time>2013-07-04T09:21:20Z</time>
      </trkpt>
      <trkpt lat="49.61469" lon="1.52529">
        <ele>170</ele>
        <time>2013-07-04T09:21:32Z</time>
      </trkpt>
      <trkpt lat="49.61466" lon="1.52515">
        <ele>181</ele>
        <time>2013-07-04T09:21:45Z</time>
      </trkpt>
      <trkpt lat="49.61465" lon="1.52501">
        <ele>188</ele>
        <time>2013-07-04T09:21:57Z</time>
      </trkpt>
      <trkpt lat="49.61462" lon="1.52487">
        <ele>195</ele>
        <time>2013-07-04T09:22:04Z</time>
      </trkpt>
      <trkpt lat="49.61455" lon="1.52475">
        <ele>195</ele>
        <time>2013-07-04T09:22:11Z</time>
      </trkpt>
      <trkpt lat="49.61455" lon="1.5246">
        <ele>195</ele>
        <time>2013-07-04T09:22:18Z</time>
      </trkpt>
      <trkpt lat="49.61451" lon="1.52447">
        <ele>186</ele>
        <time>2013-07-04T09:22:25Z</time>
      </trkpt>
      <trkpt lat="49.61447" lon="1.52434">
        <ele>186</ele>
        <time>2013-07-04T09:22:34Z</time>
      </trkpt>
      <trkpt lat="49.61444" lon="1.52421">
        <ele>186</ele>
        <time>2013-07-04T09:22:43Z</time>
      </trkpt>
      <trkpt lat="49.6144" lon="1.52407">
        <ele>169</ele>
        <time>2013-07-04T09:22:57Z</time>
      </trkpt>
      <trkpt lat="49.61447" lon="1.52398">
        <ele>162</ele>
        <time>2013-07-04T09:23:36Z</time>
      </trkpt>
      <trkpt lat="49.61457" lon="1.52391">
        <ele>162</ele>
        <time>2013-07-04T09:23:53Z</time>
      </trkpt>
      <trkpt lat="49.61466" lon="1.52387">
        <ele>162</ele>
        <time>2013-07-04T09:24:01Z</time>
      </trkpt>
      <trkpt lat="49.61475" lon="1.52381">
        <ele>162</ele>
        <time>2013-07-04T09:24:09Z</time>
      </trkpt>
      <trkpt lat="49.61484" lon="1.52377">
        <ele>162</ele>
        <time>2013-07-04T09:24:16Z</time>
      </trkpt>
      <trkpt lat="49.61493" lon="1.5237">
        <ele>157</ele>
        <time>2013-07-04T09:24:22Z</time>
      </trkpt>
      <trkpt lat="49.61502" lon="1.52364">
        <ele>157</ele>
        <time>2013-07-04T09:24:28Z</time>
      </trkpt>
      <trkpt lat="49.61512" lon="1.52362">
        <ele>157</ele>
        <time>2013-07-04T09:24:39Z</time>
      </trkpt>
      <trkpt lat="49.61521" lon="1.5236">
        <ele>166</ele>
        <time>2013-07-04T09:24:46Z</time>
      </trkpt>
      <trkpt lat="49.61531" lon="1.52357">
        <ele>166</ele>
        <time>2013-07-04T09:24:55Z</time>
      </trkpt>
      <trkpt lat="49.6154" lon="1.52348">
        <ele>160</ele>
        <time>2013-07-04T09:25:03Z</time>
      </trkpt>
      <trkpt lat="49.61548" lon="1.5234">
        <ele>160</ele>
        <time>2013-07-04T09:25:12Z</time>
      </trkpt>
      <trkpt lat="49.61556" lon="1.52333">
        <ele>167</ele>
        <time>2013-07-04T09:25:21Z</time>
      </trkpt>
      <trkpt lat="49.61567" lon="1.5233">
        <ele>175</ele>
        <time>2013-07-04T09:25:34Z</time>
      </trkpt>
      <trkpt lat="49.61576" lon="1.5233">
        <ele>180</ele>
        <time>2013-07-04T09:25:40Z</time>
      </trkpt>
      <trkpt lat="49.61585" lon="1.52326">
        <ele>180</ele>
        <time>2013-07-04T09:25:47Z</time>
      </trkpt>
      <trkpt lat="49.61594" lon="1.52321">
        <ele>165</ele>
        <time>2013-07-04T09:25:56Z</time>
      </trkpt>
      <trkpt lat="49.61604" lon="1.52314">
        <ele>165</ele>
        <time>2013-07-04T09:26:02Z</time>
      </trkpt>
      <trkpt lat="49.61613" lon="1.52313">
        <ele>159</ele>
        <time>2013-07-04T09:26:09Z</time>
      </trkpt>
      <trkpt lat="49.61622" lon="1.52308">
        <ele>166</ele>
        <time>2013-07-04T09:26:16Z</time>
      </trkpt>
      <trkpt lat="49.61632" lon="1.52301">
        <ele>166</ele>
        <time>2013-07-04T09:26:25Z</time>
      </trkpt>
      <trkpt lat="49.61641" lon="1.523">
        <ele>161</ele>
        <time>2013-07-04T09:26:32Z</time>
      </trkpt>
      <trkpt lat="49.61651" lon="1.52294">
        <ele>161</ele>
        <time>2013-07-04T09:26:39Z</time>
      </trkpt>
      <trkpt lat="49.61661" lon="1.52291">
        <ele>153</ele>
        <time>2013-07-04T09:26:51Z</time>
      </trkpt>
      <trkpt lat="49.6167" lon="1.52284">
        <ele>153</ele>
        <time>2013-07-04T09:26:58Z</time>
      </trkpt>
      <trkpt lat="49.61678" lon="1.52281">
        <ele>153</ele>
        <time>2013-07-04T09:27:02Z</time>
      </trkpt>
      <trkpt lat="49.61688" lon="1.52277">
        <ele>153</ele>
        <time>2013-07-04T09:27:11Z</time>
      </trkpt>
      <trkpt lat="49.61698" lon="1.52272">
        <ele>160</ele>
        <time>2013-07-04T09:27:23Z</time>
      </trkpt>
      <trkpt lat="49.61706" lon="1.52264">
        <ele>151</ele>
        <time>2013-07-04T09:27:31Z</time>
      </trkpt>
      <trkpt lat="49.61716" lon="1.52262">
        <ele>156</ele>
        <time>2013-07-04T09:27:39Z</time>
      </trkpt>
      <trkpt lat="49.61726" lon="1.52259">
        <ele>164</ele>
        <time>2013-07-04T09:27:48Z</time>
      </trkpt>
      <trkpt lat="49.61735" lon="1.52256">
        <ele>164</ele>
        <time>2013-07-04T09:27:57Z</time>
      </trkpt>
      <trkpt lat="49.61742" lon="1.52265">
        <ele>182</ele>
        <time>2013-07-04T09:30:11Z</time>
      </trkpt>
      <trkpt lat="49.61736" lon="1.52277">
        <ele>187</ele>
        <time>2013-07-04T09:30:31Z</time>
      </trkpt>
      <trkpt lat="49.61738" lon="1.52264">
        <ele>187</ele>
        <time>2013-07-04T09:31:11Z</time>
      </trkpt>
      <trkpt lat="49.61744" lon="1.52253">
        <ele>160</ele>
        <time>2013-07-04T09:33:31Z</time>
      </trkpt>
      <trkpt lat="49.61752" lon="1.52246">
        <ele>160</ele>
        <time>2013-07-04T09:33:42Z</time>
      </trkpt>
      <trkpt lat="49.61764" lon="1.52238">
        <ele>160</ele>
        <time>2013-07-04T09:34:08Z</time>
      </trkpt>
      <trkpt lat="49.61774" lon="1.52231">
        <ele>160</ele>
        <time>2013-07-04T09:34:15Z</time>
      </trkpt>
      <trkpt lat="49.61784" lon="1.52225">
        <ele>160</ele>
        <time>2013-07-04T09:34:26Z</time>
      </trkpt>
      <trkpt lat="49.61792" lon="1.52217">
        <ele>160</ele>
        <time>2013-07-04T09:34:31Z</time>
      </trkpt>
      <trkpt lat="49.61802" lon="1.52214">
        <ele>160</ele>
        <time>2013-07-04T09:34:38Z</time>
      </trkpt>
      <trkpt lat="49.61812" lon="1.52211">
        <ele>160</ele>
        <time>2013-07-04T09:34:43Z</time>
      </trkpt>
      <trkpt lat="49.61821" lon="1.52209">
        <ele>168</ele>
        <time>2013-07-04T09:34:51Z</time>
      </trkpt>
      <trkpt lat="49.61831" lon="1.52208">
        <ele>168</ele>
        <time>2013-07-04T09:34:58Z</time>
      </trkpt>
      <trkpt lat="49.6184" lon="1.52204">
        <ele>168</ele>
        <time>2013-07-04T09:35:06Z</time>
      </trkpt>
      <trkpt lat="49.61851" lon="1.52199">
        <ele>168</ele>
        <time>2013-07-04T09:35:14Z</time>
      </trkpt>
      <trkpt lat="49.61861" lon="1.52196">
        <ele>173</ele>
        <time>2013-07-04T09:35:21Z</time>
      </trkpt>
      <trkpt lat="49.61869" lon="1.52188">
        <ele>173</ele>
        <time>2013-07-04T09:35:27Z</time>
      </trkpt>
      <trkpt lat="49.61877" lon="1.52182">
        <ele>173</ele>
        <time>2013-07-04T09:35:34Z</time>
      </trkpt>
      <trkpt lat="49.61886" lon="1.52176">
        <ele>173</ele>
        <time>2013-07-04T09:35:40Z</time>
      </trkpt>
      <trkpt lat="49.61896" lon="1.52173">
        <ele>173</ele>
        <time>2013-07-04T09:35:48Z</time>
      </trkpt>
      <trkpt lat="49.61905" lon="1.52169">
        <ele>166</ele>
        <time>2013-07-04T09:35:54Z</time>
      </trkpt>
      <trkpt lat="49.61914" lon="1.52161">
        <ele>166</ele>
        <time>2013-07-04T09:36:02Z</time>
      </trkpt>
      <trkpt lat="49.61923" lon="1.52158">
        <ele>166</ele>
        <time>2013-07-04T09:36:08Z</time>
      </trkpt>
      <trkpt lat="49.61933" lon="1.52155">
        <ele>161</ele>
        <time>2013-07-04T09:36:16Z</time>
      </trkpt>
      <trkpt lat="49.61942" lon="1.52147">
        <ele>161</ele>
        <time>2013-07-04T09:36:23Z</time>
      </trkpt>
      <trkpt lat="49.61952" lon="1.52145">
        <ele>161</ele>
        <time>2013-07-04T09:36:30Z</time>
      </trkpt>
      <trkpt lat="49.61962" lon="1.52141">
        <ele>161</ele>
        <time>2013-07-04T09:36:36Z</time>
      </trkpt>
      <trkpt lat="49.61971" lon="1.52138">
        <ele>161</ele>
        <time>2013-07-04T09:36:44Z</time>
      </trkpt>
      <trkpt lat="49.6198" lon="1.52133">
        <ele>161</ele>
        <time>2013-07-04T09:36:51Z</time>
      </trkpt>
      <trkpt lat="49.61991" lon="1.52131">
        <ele>168</ele>
        <time>2013-07-04T09:37:02Z</time>
      </trkpt>
      <trkpt lat="49.62001" lon="1.52123">
        <ele>168</ele>
        <time>2013-07-04T09:37:08Z</time>
      </trkpt>
      <trkpt lat="49.62011" lon="1.5212">
        <ele>161</ele>
        <time>2013-07-04T09:37:15Z</time>
      </trkpt>
      <trkpt lat="49.62019" lon="1.52115">
        <ele>161</ele>
        <time>2013-07-04T09:37:22Z</time>
      </trkpt>
      <trkpt lat="49.62028" lon="1.52109">
        <ele>166</ele>
        <time>2013-07-04T09:37:30Z</time>
      </trkpt>
      <trkpt lat="49.62038" lon="1.52106">
        <ele>166</ele>
        <time>2013-07-04T09:37:39Z</time>
      </trkpt>
      <trkpt lat="49.62047" lon="1.521">
        <ele>174</ele>
        <time>2013-07-04T09:37:47Z</time>
      </trkpt>
      <trkpt lat="49.62057" lon="1.52097">
        <ele>174</ele>
        <time>2013-07-04T09:37:54Z</time>
      </trkpt>
      <trkpt lat="49.62065" lon="1.52088">
        <ele>174</ele>
        <time>2013-07-04T09:38:02Z</time>
      </trkpt>
      <trkpt lat="49.62074" lon="1.52084">
        <ele>174</ele>
        <time>2013-07-04T09:38:07Z</time>
      </trkpt>
      <trkpt lat="49.62083" lon="1.5208">
        <ele>174</ele>
        <time>2013-07-04T09:38:15Z</time>
      </trkpt>
      <trkpt lat="49.62091" lon="1.52074">
        <ele>174</ele>
        <time>2013-07-04T09:38:21Z</time>
      </trkpt>
      <trkpt lat="49.621" lon="1.52071">
        <ele>174</ele>
        <time>2013-07-04T09:38:27Z</time>
      </trkpt>
      <trkpt lat="49.6211" lon="1.5207">
        <ele>174</ele>
        <time>2013-07-04T09:38:34Z</time>
      </trkpt>
      <trkpt lat="49.6212" lon="1.52066">
        <ele>174</ele>
        <time>2013-07-04T09:38:44Z</time>
      </trkpt>
      <trkpt lat="49.6213" lon="1.52062">
        <ele>174</ele>
        <time>2013-07-04T09:38:51Z</time>
      </trkpt>
      <trkpt lat="49.6214" lon="1.52057">
        <ele>174</ele>
        <time>2013-07-04T09:38:57Z</time>
      </trkpt>
      <trkpt lat="49.62147" lon="1.52048">
        <ele>168</ele>
        <time>2013-07-04T09:39:04Z</time>
      </trkpt>
      <trkpt lat="49.6216" lon="1.52044">
        <ele>162</ele>
        <time>2013-07-04T09:39:16Z</time>
      </trkpt>
      <trkpt lat="49.6217" lon="1.52035">
        <ele>162</ele>
        <time>2013-07-04T09:39:22Z</time>
      </trkpt>
      <trkpt lat="49.62179" lon="1.52031">
        <ele>162</ele>
        <time>2013-07-04T09:39:26Z</time>
      </trkpt>
      <trkpt lat="49.62188" lon="1.52031">
        <ele>156</ele>
        <time>2013-07-04T09:39:33Z</time>
      </trkpt>
      <trkpt lat="49.62197" lon="1.52027">
        <ele>156</ele>
        <time>2013-07-04T09:39:40Z</time>
      </trkpt>
      <trkpt lat="49.62206" lon="1.52023">
        <ele>163</ele>
        <time>2013-07-04T09:39:47Z</time>
      </trkpt>
      <trkpt lat="49.62215" lon="1.5202">
        <ele>163</ele>
        <time>2013-07-04T09:39:54Z</time>
      </trkpt>
      <trkpt lat="49.62225" lon="1.52017">
        <ele>168</ele>
        <time>2013-07-04T09:40:01Z</time>
      </trkpt>
      <trkpt lat="49.62234" lon="1.52011">
        <ele>168</ele>
        <time>2013-07-04T09:40:10Z</time>
      </trkpt>
      <trkpt lat="49.62243" lon="1.52006">
        <ele>168</ele>
        <time>2013-07-04T09:40:19Z</time>
      </trkpt>
      <trkpt lat="49.62252" lon="1.51999">
        <ele>168</ele>
        <time>2013-07-04T09:40:27Z</time>
      </trkpt>
      <trkpt lat="49.62262" lon="1.51995">
        <ele>168</ele>
        <time>2013-07-04T09:40:34Z</time>
      </trkpt>
      <trkpt lat="49.62271" lon="1.51991">
        <ele>168</ele>
        <time>2013-07-04T09:40:41Z</time>
      </trkpt>
      <trkpt lat="49.62281" lon="1.51989">
        <ele>168</ele>
        <time>2013-07-04T09:40:51Z</time>
      </trkpt>
      <trkpt lat="49.6229" lon="1.51982">
        <ele>168</ele>
        <time>2013-07-04T09:40:58Z</time>
      </trkpt>
      <trkpt lat="49.62301" lon="1.51975">
        <ele>168</ele>
        <time>2013-07-04T09:41:05Z</time>
      </trkpt>
      <trkpt lat="49.62309" lon="1.51972">
        <ele>168</ele>
        <time>2013-07-04T09:41:12Z</time>
      </trkpt>
      <trkpt lat="49.6232" lon="1.51966">
        <ele>168</ele>
        <time>2013-07-04T09:41:21Z</time>
      </trkpt>
      <trkpt lat="49.62329" lon="1.51964">
        <ele>168</ele>
        <time>2013-07-04T09:41:27Z</time>
      </trkpt>
      <trkpt lat="49.62339" lon="1.5196">
        <ele>168</ele>
        <time>2013-07-04T09:41:36Z</time>
      </trkpt>
      <trkpt lat="49.62348" lon="1.51954">
        <ele>168</ele>
        <time>2013-07-04T09:41:44Z</time>
      </trkpt>
      <trkpt lat="49.62358" lon="1.5195">
        <ele>168</ele>
        <time>2013-07-04T09:41:52Z</time>
      </trkpt>
      <trkpt lat="49.62368" lon="1.51946">
        <ele>168</ele>
        <time>2013-07-04T09:42:00Z</time>
      </trkpt>
      <trkpt lat="49.62378" lon="1.51943">
        <ele>168</ele>
        <time>2013-07-04T09:42:08Z</time>
      </trkpt>
      <trkpt lat="49.62386" lon="1.51934">
        <ele>168</ele>
        <time>2013-07-04T09:42:16Z</time>
      </trkpt>
      <trkpt lat="49.62394" lon="1.51928">
        <ele>168</ele>
        <time>2013-07-04T09:42:23Z</time>
      </trkpt>
      <trkpt lat="49.62403" lon="1.51924">
        <ele>168</ele>
        <time>2013-07-04T09:42:30Z</time>
      </trkpt>
      <trkpt lat="49.62412" lon="1.51923">
        <ele>168</ele>
        <time>2013-07-04T09:42:37Z</time>
      </trkpt>
      <trkpt lat="49.62421" lon="1.5192">
        <ele>168</ele>
        <time>2013-07-04T09:42:45Z</time>
      </trkpt>
      <trkpt lat="49.62431" lon="1.51918">
        <ele>168</ele>
        <time>2013-07-04T09:42:53Z</time>
      </trkpt>
      <trkpt lat="49.62441" lon="1.51915">
        <ele>168</ele>
        <time>2013-07-04T09:43:01Z</time>
      </trkpt>
      <trkpt lat="49.62451" lon="1.51911">
        <ele>168</ele>
        <time>2013-07-04T09:43:09Z</time>
      </trkpt>
      <trkpt lat="49.6246" lon="1.51907">
        <ele>168</ele>
        <time>2013-07-04T09:43:17Z</time>
      </trkpt>
      <trkpt lat="49.62469" lon="1.51903">
        <ele>168</ele>
        <time>2013-07-04T09:43:24Z</time>
      </trkpt>
      <trkpt lat="49.62477" lon="1.519">
        <ele>168</ele>
        <time>2013-07-04T09:43:31Z</time>
      </trkpt>
      <trkpt lat="49.62486" lon="1.51893">
        <ele>168</ele>
        <time>2013-07-04T09:43:39Z</time>
      </trkpt>
      <trkpt lat="49.62495" lon="1.5189">
        <ele>168</ele>
        <time>2013-07-04T09:43:48Z</time>
      </trkpt>
      <trkpt lat="49.62504" lon="1.51885">
        <ele>168</ele>
        <time>2013-07-04T09:43:56Z</time>
      </trkpt>
      <trkpt lat="49.62512" lon="1.51878">
        <ele>168</ele>
        <time>2013-07-04T09:44:01Z</time>
      </trkpt>
      <trkpt lat="49.62523" lon="1.51878">
        <ele>174</ele>
        <time>2013-07-04T09:44:10Z</time>
      </trkpt>
      <trkpt lat="49.62531" lon="1.51872">
        <ele>174</ele>
        <time>2013-07-04T09:44:17Z</time>
      </trkpt>
      <trkpt lat="49.62539" lon="1.51865">
        <ele>174</ele>
        <time>2013-07-04T09:44:26Z</time>
      </trkpt>
      <trkpt lat="49.62549" lon="1.51867">
        <ele>181</ele>
        <time>2013-07-04T09:44:32Z</time>
      </trkpt>
      <trkpt lat="49.62558" lon="1.5186">
        <ele>181</ele>
        <time>2013-07-04T09:44:41Z</time>
      </trkpt>
      <trkpt lat="49.62567" lon="1.51851">
        <ele>181</ele>
        <time>2013-07-04T09:44:48Z</time>
      </trkpt>
      <trkpt lat="49.62575" lon="1.51845">
        <ele>181</ele>
        <time>2013-07-04T09:44:55Z</time>
      </trkpt>
      <trkpt lat="49.62584" lon="1.5184">
        <ele>174</ele>
        <time>2013-07-04T09:45:01Z</time>
      </trkpt>
      <trkpt lat="49.62593" lon="1.51834">
        <ele>168</ele>
        <time>2013-07-04T09:45:09Z</time>
      </trkpt>
      <trkpt lat="49.62601" lon="1.51828">
        <ele>168</ele>
        <time>2013-07-04T09:45:17Z</time>
      </trkpt>
      <trkpt lat="49.6261" lon="1.51823">
        <ele>168</ele>
        <time>2013-07-04T09:45:25Z</time>
      </trkpt>
      <trkpt lat="49.62621" lon="1.51821">
        <ele>168</ele>
        <time>2013-07-04T09:45:33Z</time>
      </trkpt>
      <trkpt lat="49.6263" lon="1.51818">
        <ele>168</ele>
        <time>2013-07-04T09:45:41Z</time>
      </trkpt>
      <trkpt lat="49.62638" lon="1.5181">
        <ele>168</ele>
        <time>2013-07-04T09:45:52Z</time>
      </trkpt>
      <trkpt lat="49.62647" lon="1.51807">
        <ele>168</ele>
        <time>2013-07-04T09:46:00Z</time>
      </trkpt>
      <trkpt lat="49.62657" lon="1.51805">
        <ele>168</ele>
        <time>2013-07-04T09:46:06Z</time>
      </trkpt>
      <trkpt lat="49.62665" lon="1.518">
        <ele>183</ele>
        <time>2013-07-04T09:46:16Z</time>
      </trkpt>
      <trkpt lat="49.62676" lon="1.51799">
        <ele>183</ele>
        <time>2013-07-04T09:46:26Z</time>
      </trkpt>
      <trkpt lat="49.62686" lon="1.51795">
        <ele>183</ele>
        <time>2013-07-04T09:46:32Z</time>
      </trkpt>
      <trkpt lat="49.62694" lon="1.51787">
        <ele>172</ele>
        <time>2013-07-04T09:46:38Z</time>
      </trkpt>
      <trkpt lat="49.62703" lon="1.51782">
        <ele>172</ele>
        <time>2013-07-04T09:46:47Z</time>
      </trkpt>
      <trkpt lat="49.62711" lon="1.51776">
        <ele>179</ele>
        <time>2013-07-04T09:46:57Z</time>
      </trkpt>
      <trkpt lat="49.62721" lon="1.51775">
        <ele>179</ele>
        <time>2013-07-04T09:47:04Z</time>
      </trkpt>
      <trkpt lat="49.6273" lon="1.51771">
        <ele>173</ele>
        <time>2013-07-04T09:47:10Z</time>
      </trkpt>
      <trkpt lat="49.62739" lon="1.51769">
        <ele>173</ele>
        <time>2013-07-04T09:47:16Z</time>
      </trkpt>
      <trkpt lat="49.62744" lon="1.51755">
        <ele>165</ele>
        <time>2013-07-04T09:47:20Z</time>
      </trkpt>
      <trkpt lat="49.62753" lon="1.51756">
        <ele>165</ele>
        <time>2013-07-04T09:47:29Z</time>
      </trkpt>
      <trkpt lat="49.62764" lon="1.51751">
        <ele>172</ele>
        <time>2013-07-04T09:47:37Z</time>
      </trkpt>
      <trkpt lat="49.62773" lon="1.51744">
        <ele>172</ele>
        <time>2013-07-04T09:47:42Z</time>
      </trkpt>
      <trkpt lat="49.6278" lon="1.51735">
        <ele>172</ele>
        <time>2013-07-04T09:47:50Z</time>
      </trkpt>
      <trkpt lat="49.62791" lon="1.51732">
        <ele>172</ele>
        <time>2013-07-04T09:47:57Z</time>
      </trkpt>
      <trkpt lat="49.62801" lon="1.51732">
        <ele>172</ele>
        <time>2013-07-04T09:48:04Z</time>
      </trkpt>
      <trkpt lat="49.62812" lon="1.51727">
        <ele>172</ele>
        <time>2013-07-04T09:48:12Z</time>
      </trkpt>
      <trkpt lat="49.62821" lon="1.51722">
        <ele>172</ele>
        <time>2013-07-04T09:48:23Z</time>
      </trkpt>
      <trkpt lat="49.6283" lon="1.51717">
        <ele>172</ele>
        <time>2013-07-04T09:48:30Z</time>
      </trkpt>
      <trkpt lat="49.62838" lon="1.51708">
        <ele>172</ele>
        <time>2013-07-04T09:48:36Z</time>
      </trkpt>
      <trkpt lat="49.62848" lon="1.51708">
        <ele>172</ele>
        <time>2013-07-04T09:48:44Z</time>
      </trkpt>
      <trkpt lat="49.62857" lon="1.51704">
        <ele>172</ele>
        <time>2013-07-04T09:48:54Z</time>
      </trkpt>
      <trkpt lat="49.62867" lon="1.51695">
        <ele>160</ele>
        <time>2013-07-04T09:49:01Z</time>
      </trkpt>
      <trkpt lat="49.62877" lon="1.51688">
        <ele>160</ele>
        <time>2013-07-04T09:49:09Z</time>
      </trkpt>
      <trkpt lat="49.62887" lon="1.5169">
        <ele>160</ele>
        <time>2013-07-04T09:49:15Z</time>
      </trkpt>
      <trkpt lat="49.62895" lon="1.51683">
        <ele>160</ele>
        <time>2013-07-04T09:49:19Z</time>
      </trkpt>
      <trkpt lat="49.62905" lon="1.5168">
        <ele>160</ele>
        <time>2013-07-04T09:49:27Z</time>
      </trkpt>
      <trkpt lat="49.62915" lon="1.51672">
        <ele>160</ele>
        <time>2013-07-04T09:49:35Z</time>
      </trkpt>
      <trkpt lat="49.62926" lon="1.51664">
        <ele>168</ele>
        <time>2013-07-04T09:49:46Z</time>
      </trkpt>
      <trkpt lat="49.62938" lon="1.51666">
        <ele>168</ele>
        <time>2013-07-04T09:49:55Z</time>
      </trkpt>
      <trkpt lat="49.62948" lon="1.51665">
        <ele>163</ele>
        <time>2013-07-04T09:50:02Z</time>
      </trkpt>
      <trkpt lat="49.62958" lon="1.51655">
        <ele>163</ele>
        <time>2013-07-04T09:50:11Z</time>
      </trkpt>
      <trkpt lat="49.62968" lon="1.51652">
        <ele>163</ele>
        <time>2013-07-04T09:50:22Z</time>
      </trkpt>
      <trkpt lat="49.62976" lon="1.51646">
        <ele>163</ele>
        <time>2013-07-04T09:50:29Z</time>
      </trkpt>
      <trkpt lat="49.62986" lon="1.5164">
        <ele>172</ele>
        <time>2013-07-04T09:50:38Z</time>
      </trkpt>
      <trkpt lat="49.62996" lon="1.51639">
        <ele>172</ele>
        <time>2013-07-04T09:50:46Z</time>
      </trkpt>
      <trkpt lat="49.63006" lon="1.51636">
        <ele>172</ele>
        <time>2013-07-04T09:50:51Z</time>
      </trkpt>
      <trkpt lat="49.63015" lon="1.51632">
        <ele>172</ele>
        <time>2013-07-04T09:51:01Z</time>
      </trkpt>
      <trkpt lat="49.63024" lon="1.51628">
        <ele>172</ele>
        <time>2013-07-04T09:51:06Z</time>
      </trkpt>
      <trkpt lat="49.63032" lon="1.51621">
        <ele>162</ele>
        <time>2013-07-04T09:51:11Z</time>
      </trkpt>
      <trkpt lat="49.63039" lon="1.51611">
        <ele>162</ele>
        <time>2013-07-04T09:51:19Z</time>
      </trkpt>
      <trkpt lat="49.63048" lon="1.51609">
        <ele>162</ele>
        <time>2013-07-04T09:51:29Z</time>
      </trkpt>
      <trkpt lat="49.63056" lon="1.51602">
        <ele>162</ele>
        <time>2013-07-04T09:51:40Z</time>
      </trkpt>
      <trkpt lat="49.63065" lon="1.51608">
        <ele>157</ele>
        <time>2013-07-04T09:51:51Z</time>
      </trkpt>
      <trkpt lat="49.63074" lon="1.51608">
        <ele>157</ele>
        <time>2013-07-04T09:52:29Z</time>
      </trkpt>
      <trkpt lat="49.63082" lon="1.51598">
        <ele>164</ele>
        <time>2013-07-04T09:52:35Z</time>
      </trkpt>
      <trkpt lat="49.63091" lon="1.51593">
        <ele>164</ele>
        <time>2013-07-04T09:52:43Z</time>
      </trkpt>
      <trkpt lat="49.63101" lon="1.51593">
        <ele>157</ele>
        <time>2013-07-04T09:52:51Z</time>
      </trkpt>
      <trkpt lat="49.63111" lon="1.51593">
        <ele>157</ele>
        <time>2013-07-04T09:52:59Z</time>
      </trkpt>
      <trkpt lat="49.6312" lon="1.51589">
        <ele>157</ele>
        <time>2013-07-04T09:53:06Z</time>
      </trkpt>
      <trkpt lat="49.63129" lon="1.51593">
        <ele>157</ele>
        <time>2013-07-04T09:53:16Z</time>
      </trkpt>
      <trkpt lat="49.63131" lon="1.51606">
        <ele>157</ele>
        <time>2013-07-04T09:53:26Z</time>
      </trkpt>
      <trkpt lat="49.63139" lon="1.51617">
        <ele>157</ele>
        <time>2013-07-04T09:53:32Z</time>
      </trkpt>
      <trkpt lat="49.63147" lon="1.51624">
        <ele>157</ele>
        <time>2013-07-04T09:53:40Z</time>
      </trkpt>
      <trkpt lat="49.63157" lon="1.51628">
        <ele>157</ele>
        <time>2013-07-04T09:53:46Z</time>
      </trkpt>
      <trkpt lat="49.63165" lon="1.51632">
        <ele>157</ele>
        <time>2013-07-04T09:53:54Z</time>
      </trkpt>
      <trkpt lat="49.63175" lon="1.51629">
        <ele>157</ele>
        <time>2013-07-04T09:54:01Z</time>
      </trkpt>
      <trkpt lat="49.63184" lon="1.51624">
        <ele>150</ele>
        <time>2013-07-04T09:54:10Z</time>
      </trkpt>
      <trkpt lat="49.63192" lon="1.51615">
        <ele>150</ele>
        <time>2013-07-04T09:54:20Z</time>
      </trkpt>
      <trkpt lat="49.63196" lon="1.51602">
        <ele>150</ele>
        <time>2013-07-04T09:54:31Z</time>
      </trkpt>
      <trkpt lat="49.63193" lon="1.51588">
        <ele>150</ele>
        <time>2013-07-04T09:54:41Z</time>
      </trkpt>
      <trkpt lat="49.63184" lon="1.51582">
        <ele>142</ele>
        <time>2013-07-04T09:54:51Z</time>
      </trkpt>
      <trkpt lat="49.63192" lon="1.51574">
        <ele>147</ele>
        <time>2013-07-04T09:55:40Z</time>
      </trkpt>
      <trkpt lat="49.632" lon="1.51567">
        <ele>141</ele>
        <time>2013-07-04T09:55:49Z</time>
      </trkpt>
      <trkpt lat="49.6321" lon="1.51563">
        <ele>141</ele>
        <time>2013-07-04T09:55:58Z</time>
      </trkpt>
      <trkpt lat="49.6322" lon="1.51561">
        <ele>141</ele>
        <time>2013-07-04T09:56:07Z</time>
      </trkpt>
      <trkpt lat="49.6323" lon="1.51556">
        <ele>141</ele>
        <time>2013-07-04T09:56:24Z</time>
      </trkpt>
      <trkpt lat="49.63238" lon="1.51549">
        <ele>141</ele>
        <time>2013-07-04T09:56:51Z</time>
      </trkpt>
      <trkpt lat="49.63247" lon="1.51546">
        <ele>141</ele>
        <time>2013-07-04T09:57:28Z</time>
      </trkpt>
      <trkpt lat="49.63256" lon="1.5154">
        <ele>141</ele>
        <time>2013-07-04T09:57:41Z</time>
      </trkpt>
      <trkpt lat="49.63265" lon="1.51539">
        <ele>141</ele>
        <time>2013-07-04T09:57:58Z</time>
      </trkpt>
      <trkpt lat="49.63275" lon="1.51537">
        <ele>141</ele>
        <time>2013-07-04T09:58:12Z</time>
      </trkpt>
      <trkpt lat="49.63284" lon="1.51537">
        <ele>141</ele>
        <time>2013-07-04T09:58:28Z</time>
      </trkpt>
      <trkpt lat="49.63294" lon="1.51541">
        <ele>148</ele>
        <time>2013-07-04T09:58:45Z</time>
      </trkpt>
      <trkpt lat="49.63302" lon="1.51535">
        <ele>148</ele>
        <time>2013-07-04T09:59:01Z</time>
      </trkpt>
      <trkpt lat="49.63312" lon="1.51532">
        <ele>148</ele>
        <time>2013-07-04T09:59:17Z</time>
      </trkpt>
      <trkpt lat="49.63322" lon="1.51537">
        <ele>148</ele>
        <time>2013-07-04T09:59:34Z</time>
      </trkpt>
      <trkpt lat="49.63332" lon="1.51533">
        <ele>142</ele>
        <time>2013-07-04T10:00:02Z</time>
      </trkpt>
      <trkpt lat="49.6334" lon="1.51529">
        <ele>147</ele>
        <time>2013-07-04T10:00:14Z</time>
      </trkpt>
      <trkpt lat="49.6335" lon="1.51531">
        <ele>147</ele>
        <time>2013-07-04T10:00:42Z</time>
      </trkpt>
      <trkpt lat="49.63359" lon="1.5153">
        <ele>153</ele>
        <time>2013-07-04T10:00:56Z</time>
      </trkpt>
      <trkpt lat="49.63368" lon="1.5153">
        <ele>153</ele>
        <time>2013-07-04T10:01:09Z</time>
      </trkpt>
      <trkpt lat="49.63378" lon="1.51532">
        <ele>161</ele>
        <time>2013-07-04T10:01:19Z</time>
      </trkpt>
      <trkpt lat="49.63387" lon="1.51533">
        <ele>161</ele>
        <time>2013-07-04T10:01:30Z</time>
      </trkpt>
      <trkpt lat="49.63393" lon="1.51545">
        <ele>161</ele>
        <time>2013-07-04T10:01:43Z</time>
      </trkpt>
      <trkpt lat="49.63403" lon="1.51548">
        <ele>155</ele>
        <time>2013-07-04T10:01:55Z</time>
      </trkpt>
      <trkpt lat="49.63413" lon="1.5155">
        <ele>155</ele>
        <time>2013-07-04T10:02:05Z</time>
      </trkpt>
      <trkpt lat="49.63417" lon="1.51564">
        <ele>162</ele>
        <time>2013-07-04T10:02:13Z</time>
      </trkpt>
      <trkpt lat="49.63428" lon="1.51569">
        <ele>162</ele>
        <time>2013-07-04T10:02:24Z</time>
      </trkpt>
      <trkpt lat="49.63437" lon="1.51574">
        <ele>171</ele>
        <time>2013-07-04T10:02:30Z</time>
      </trkpt>
      <trkpt lat="49.63445" lon="1.5158">
        <ele>165</ele>
        <time>2013-07-04T10:02:38Z</time>
      </trkpt>
      <trkpt lat="49.63453" lon="1.51588">
        <ele>165</ele>
        <time>2013-07-04T10:02:47Z</time>
      </trkpt>
      <trkpt lat="49.63463" lon="1.51586">
        <ele>159</ele>
        <time>2013-07-04T10:02:58Z</time>
      </trkpt>
      <trkpt lat="49.63472" lon="1.51585">
        <ele>164</ele>
        <time>2013-07-04T10:03:07Z</time>
      </trkpt>
      <trkpt lat="49.63482" lon="1.51579">
        <ele>164</ele>
        <time>2013-07-04T10:03:18Z</time>
      </trkpt>
      <trkpt lat="49.6349" lon="1.51567">
        <ele>164</ele>
        <time>2013-07-04T10:03:27Z</time>
      </trkpt>
      <trkpt lat="49.63495" lon="1.51556">
        <ele>184</ele>
        <time>2013-07-04T10:03:44Z</time>
      </trkpt>
      <trkpt lat="49.635" lon="1.51543">
        <ele>184</ele>
        <time>2013-07-04T10:03:53Z</time>
      </trkpt>
      <trkpt lat="49.63504" lon="1.51531">
        <ele>175</ele>
        <time>2013-07-04T10:04:15Z</time>
      </trkpt>
      <trkpt lat="49.6351" lon="1.51516">
        <ele>175</ele>
        <time>2013-07-04T10:04:26Z</time>
      </trkpt>
      <trkpt lat="49.63512" lon="1.51503">
        <ele>170</ele>
        <time>2013-07-04T10:04:37Z</time>
      </trkpt>
      <trkpt lat="49.63521" lon="1.51502">
        <ele>170</ele>
        <time>2013-07-04T10:07:38Z</time>
      </trkpt>
      <trkpt lat="49.63529" lon="1.51496">
        <ele>170</ele>
        <time>2013-07-04T10:07:49Z</time>
      </trkpt>
      <trkpt lat="49.63539" lon="1.51493">
        <ele>177</ele>
        <time>2013-07-04T10:07:56Z</time>
      </trkpt>
      <trkpt lat="49.63548" lon="1.51487">
        <ele>177</ele>
        <time>2013-07-04T10:08:06Z</time>
      </trkpt>
      <trkpt lat="49.63555" lon="1.51478">
        <ele>177</ele>
        <time>2013-07-04T10:08:13Z</time>
      </trkpt>
      <trkpt lat="49.63564" lon="1.5147">
        <ele>177</ele>
        <time>2013-07-04T10:08:23Z</time>
      </trkpt>
      <trkpt lat="49.63573" lon="1.51463">
        <ele>170</ele>
        <time>2013-07-04T10:08:30Z</time>
      </trkpt>
      <trkpt lat="49.6358" lon="1.51452">
        <ele>164</ele>
        <time>2013-07-04T10:08:37Z</time>
      </trkpt>
      <trkpt lat="49.63588" lon="1.51444">
        <ele>171</ele>
        <time>2013-07-04T10:08:48Z</time>
      </trkpt>
      <trkpt lat="49.63595" lon="1.51434">
        <ele>171</ele>
        <time>2013-07-04T10:08:56Z</time>
      </trkpt>
      <trkpt lat="49.63604" lon="1.5143">
        <ele>171</ele>
        <time>2013-07-04T10:09:05Z</time>
      </trkpt>
      <trkpt lat="49.63612" lon="1.51423">
        <ele>171</ele>
        <time>2013-07-04T10:09:12Z</time>
      </trkpt>
      <trkpt lat="49.63621" lon="1.51414">
        <ele>171</ele>
        <time>2013-07-04T10:09:25Z</time>
      </trkpt>
      <trkpt lat="49.63628" lon="1.51404">
        <ele>171</ele>
        <time>2013-07-04T10:09:33Z</time>
      </trkpt>
      <trkpt lat="49.63633" lon="1.51392">
        <ele>164</ele>
        <time>2013-07-04T10:09:42Z</time>
      </trkpt>
      <trkpt lat="49.63641" lon="1.51386">
        <ele>158</ele>
        <time>2013-07-04T10:09:57Z</time>
      </trkpt>
      <trkpt lat="49.63645" lon="1.51399">
        <ele>158</ele>
        <time>2013-07-04T10:10:47Z</time>
      </trkpt>
      <trkpt lat="49.63639" lon="1.51389">
        <ele>158</ele>
        <time>2013-07-04T10:11:16Z</time>
      </trkpt>
      <trkpt lat="49.63633" lon="1.51375">
        <ele>158</ele>
        <time>2013-07-04T10:11:24Z</time>
      </trkpt>
      <trkpt lat="49.63629" lon="1.51363">
        <ele>158</ele>
        <time>2013-07-04T10:11:33Z</time>
      </trkpt>
      <trkpt lat="49.63622" lon="1.51352">
        <ele>158</ele>
        <time>2013-07-04T10:11:40Z</time>
      </trkpt>
      <trkpt lat="49.63616" lon="1.51339">
        <ele>158</ele>
        <time>2013-07-04T10:11:48Z</time>
      </trkpt>
      <trkpt lat="49.63611" lon="1.51328">
        <ele>158</ele>
        <time>2013-07-04T10:11:55Z</time>
      </trkpt>
      <trkpt lat="49.63605" lon="1.51317">
        <ele>158</ele>
        <time>2013-07-04T10:12:03Z</time>
      </trkpt>
      <trkpt lat="49.63598" lon="1.51306">
        <ele>158</ele>
        <time>2013-07-04T10:12:11Z</time>
      </trkpt>
      <trkpt lat="49.63592" lon="1.51293">
        <ele>158</ele>
        <time>2013-07-04T10:12:19Z</time>
      </trkpt>
      <trkpt lat="49.63586" lon="1.51284">
        <ele>158</ele>
        <time>2013-07-04T10:12:26Z</time>
      </trkpt>
      <trkpt lat="49.63579" lon="1.51273">
        <ele>158</ele>
        <time>2013-07-04T10:12:34Z</time>
      </trkpt>
      <trkpt lat="49.63572" lon="1.51262">
        <ele>158</ele>
        <time>2013-07-04T10:12:42Z</time>
      </trkpt>
      <trkpt lat="49.63567" lon="1.5125">
        <ele>158</ele>
        <time>2013-07-04T10:12:49Z</time>
      </trkpt>
      <trkpt lat="49.63561" lon="1.5124">
        <ele>158</ele>
        <time>2013-07-04T10:12:56Z</time>
      </trkpt>
      <trkpt lat="49.63555" lon="1.51229">
        <ele>158</ele>
        <time>2013-07-04T10:13:02Z</time>
      </trkpt>
      <trkpt lat="49.6355" lon="1.51216">
        <ele>158</ele>
        <time>2013-07-04T10:13:10Z</time>
      </trkpt>
      <trkpt lat="49.63545" lon="1.51202">
        <ele>158</ele>
        <time>2013-07-04T10:13:18Z</time>
      </trkpt>
      <trkpt lat="49.63542" lon="1.51187">
        <ele>153</ele>
        <time>2013-07-04T10:13:25Z</time>
      </trkpt>
      <trkpt lat="49.6354" lon="1.51173">
        <ele>153</ele>
        <time>2013-07-04T10:13:33Z</time>
      </trkpt>
      <trkpt lat="49.63539" lon="1.51159">
        <ele>153</ele>
        <time>2013-07-04T10:13:41Z</time>
      </trkpt>
      <trkpt lat="49.63538" lon="1.51144">
        <ele>153</ele>
        <time>2013-07-04T10:13:48Z</time>
      </trkpt>
      <trkpt lat="49.63539" lon="1.5113">
        <ele>153</ele>
        <time>2013-07-04T10:13:56Z</time>
      </trkpt>
      <trkpt lat="49.63539" lon="1.51116">
        <ele>153</ele>
        <time>2013-07-04T10:14:03Z</time>
      </trkpt>
      <trkpt lat="49.63536" lon="1.51102">
        <ele>153</ele>
        <time>2013-07-04T10:14:19Z</time>
      </trkpt>
      <trkpt lat="49.63536" lon="1.51087">
        <ele>153</ele>
        <time>2013-07-04T10:14:27Z</time>
      </trkpt>
      <trkpt lat="49.63535" lon="1.51072">
        <ele>153</ele>
        <time>2013-07-04T10:14:35Z</time>
      </trkpt>
      <trkpt lat="49.63534" lon="1.51056">
        <ele>153</ele>
        <time>2013-07-04T10:14:42Z</time>
      </trkpt>
      <trkpt lat="49.63533" lon="1.51041">
        <ele>153</ele>
        <time>2013-07-04T10:14:50Z</time>
      </trkpt>
      <trkpt lat="49.63532" lon="1.51027">
        <ele>153</ele>
        <time>2013-07-04T10:14:57Z</time>
      </trkpt>
      <trkpt lat="49.63532" lon="1.5101">
        <ele>153</ele>
        <time>2013-07-04T10:15:04Z</time>
      </trkpt>
      <trkpt lat="49.63531" lon="1.50994">
        <ele>153</ele>
        <time>2013-07-04T10:15:11Z</time>
      </trkpt>
      <trkpt lat="49.63531" lon="1.50979">
        <ele>153</ele>
        <time>2013-07-04T10:15:18Z</time>
      </trkpt>
      <trkpt lat="49.6353" lon="1.50964">
        <ele>153</ele>
        <time>2013-07-04T10:15:25Z</time>
      </trkpt>
      <trkpt lat="49.63532" lon="1.50949">
        <ele>153</ele>
        <time>2013-07-04T10:15:32Z</time>
      </trkpt>
      <trkpt lat="49.6353" lon="1.50935">
        <ele>153</ele>
        <time>2013-07-04T10:15:39Z</time>
      </trkpt>
      <trkpt lat="49.63531" lon="1.50919">
        <ele>153</ele>
        <time>2013-07-04T10:15:46Z</time>
      </trkpt>
      <trkpt lat="49.63531" lon="1.50903">
        <ele>148</ele>
        <time>2013-07-04T10:15:53Z</time>
      </trkpt>
      <trkpt lat="49.63531" lon="1.50887">
        <ele>148</ele>
        <time>2013-07-04T10:16:00Z</time>
      </trkpt>
      <trkpt lat="49.63531" lon="1.50873">
        <ele>148</ele>
        <time>2013-07-04T10:16:07Z</time>
      </trkpt>
      <trkpt lat="49.63532" lon="1.50858">
        <ele>148</ele>
        <time>2013-07-04T10:16:14Z</time>
      </trkpt>
      <trkpt lat="49.63535" lon="1.50844">
        <ele>148</ele>
        <time>2013-07-04T10:16:20Z</time>
      </trkpt>
      <trkpt lat="49.63536" lon="1.50829">
        <ele>148</ele>
        <time>2013-07-04T10:16:27Z</time>
      </trkpt>
      <trkpt lat="49.6354" lon="1.50816">
        <ele>142</ele>
        <time>2013-07-04T10:16:33Z</time>
      </trkpt>
      <trkpt lat="49.63542" lon="1.50802">
        <ele>142</ele>
        <time>2013-07-04T10:16:39Z</time>
      </trkpt>
      <trkpt lat="49.63546" lon="1.50789">
        <ele>142</ele>
        <time>2013-07-04T10:16:46Z</time>
      </trkpt>
      <trkpt lat="49.6355" lon="1.50775">
        <ele>142</ele>
        <time>2013-07-04T10:16:53Z</time>
      </trkpt>
      <trkpt lat="49.63555" lon="1.50763">
        <ele>142</ele>
        <time>2013-07-04T10:16:59Z</time>
      </trkpt>
      <trkpt lat="49.63559" lon="1.50748">
        <ele>142</ele>
        <time>2013-07-04T10:17:07Z</time>
      </trkpt>
      <trkpt lat="49.63565" lon="1.50736">
        <ele>142</ele>
        <time>2013-07-04T10:17:15Z</time>
      </trkpt>
      <trkpt lat="49.63569" lon="1.50723">
        <ele>142</ele>
        <time>2013-07-04T10:17:23Z</time>
      </trkpt>
      <trkpt lat="49.63574" lon="1.5071">
        <ele>142</ele>
        <time>2013-07-04T10:17:30Z</time>
      </trkpt>
      <trkpt lat="49.63581" lon="1.50699">
        <ele>142</ele>
        <time>2013-07-04T10:17:38Z</time>
      </trkpt>
      <trkpt lat="49.63586" lon="1.50685">
        <ele>142</ele>
        <time>2013-07-04T10:17:45Z</time>
      </trkpt>
      <trkpt lat="49.63592" lon="1.50674">
        <ele>142</ele>
        <time>2013-07-04T10:17:52Z</time>
      </trkpt>
      <trkpt lat="49.63597" lon="1.50661">
        <ele>142</ele>
        <time>2013-07-04T10:18:00Z</time>
      </trkpt>
      <trkpt lat="49.63601" lon="1.50647">
        <ele>142</ele>
        <time>2013-07-04T10:18:08Z</time>
      </trkpt>
      <trkpt lat="49.63607" lon="1.50635">
        <ele>142</ele>
        <time>2013-07-04T10:18:15Z</time>
      </trkpt>
      <trkpt lat="49.63611" lon="1.50621">
        <ele>142</ele>
        <time>2013-07-04T10:18:22Z</time>
      </trkpt>
      <trkpt lat="49.63619" lon="1.50612">
        <ele>142</ele>
        <time>2013-07-04T10:18:30Z</time>
      </trkpt>
      <trkpt lat="49.63624" lon="1.506">
        <ele>142</ele>
        <time>2013-07-04T10:18:36Z</time>
      </trkpt>
      <trkpt lat="49.63628" lon="1.50587">
        <ele>142</ele>
        <time>2013-07-04T10:18:42Z</time>
      </trkpt>
      <trkpt lat="49.63636" lon="1.50577">
        <ele>142</ele>
        <time>2013-07-04T10:18:50Z</time>
      </trkpt>
      <trkpt lat="49.63642" lon="1.50567">
        <ele>142</ele>
        <time>2013-07-04T10:18:56Z</time>
      </trkpt>
      <trkpt lat="49.63649" lon="1.50559">
        <ele>142</ele>
        <time>2013-07-04T10:19:02Z</time>
      </trkpt>
      <trkpt lat="49.63656" lon="1.50549">
        <ele>136</ele>
        <time>2013-07-04T10:19:08Z</time>
      </trkpt>
      <trkpt lat="49.63663" lon="1.5054">
        <ele>136</ele>
        <time>2013-07-04T10:19:14Z</time>
      </trkpt>
      <trkpt lat="49.63668" lon="1.50526">
        <ele>136</ele>
        <time>2013-07-04T10:19:22Z</time>
      </trkpt>
      <trkpt lat="49.63674" lon="1.50515">
        <ele>136</ele>
        <time>2013-07-04T10:19:28Z</time>
      </trkpt>
      <trkpt lat="49.63675" lon="1.50499">
        <ele>136</ele>
        <time>2013-07-04T10:19:36Z</time>
      </trkpt>
      <trkpt lat="49.63675" lon="1.50484">
        <ele>136</ele>
        <time>2013-07-04T10:19:43Z</time>
      </trkpt>
      <trkpt lat="49.63673" lon="1.50469">
        <ele>136</ele>
        <time>2013-07-04T10:19:51Z</time>
      </trkpt>
      <trkpt lat="49.63672" lon="1.50454">
        <ele>136</ele>
        <time>2013-07-04T10:19:58Z</time>
      </trkpt>
      <trkpt lat="49.63672" lon="1.50438">
        <ele>131</ele>
        <time>2013-07-04T10:20:04Z</time>
      </trkpt>
      <trkpt lat="49.6367" lon="1.50424">
        <ele>131</ele>
        <time>2013-07-04T10:20:11Z</time>
      </trkpt>
      <trkpt lat="49.63667" lon="1.50409">
        <ele>131</ele>
        <time>2013-07-04T10:20:19Z</time>
      </trkpt>
      <trkpt lat="49.63664" lon="1.50395">
        <ele>131</ele>
        <time>2013-07-04T10:20:26Z</time>
      </trkpt>
      <trkpt lat="49.63661" lon="1.50381">
        <ele>131</ele>
        <time>2013-07-04T10:20:33Z</time>
      </trkpt>
      <trkpt lat="49.63661" lon="1.50365">
        <ele>131</ele>
        <time>2013-07-04T10:20:41Z</time>
      </trkpt>
      <trkpt lat="49.63658" lon="1.50351">
        <ele>136</ele>
        <time>2013-07-04T10:20:49Z</time>
      </trkpt>
      <trkpt lat="49.63658" lon="1.50335">
        <ele>136</ele>
        <time>2013-07-04T10:20:56Z</time>
      </trkpt>
      <trkpt lat="49.63657" lon="1.50321">
        <ele>136</ele>
        <time>2013-07-04T10:21:04Z</time>
      </trkpt>
      <trkpt lat="49.63657" lon="1.50306">
        <ele>136</ele>
        <time>2013-07-04T10:21:11Z</time>
      </trkpt>
      <trkpt lat="49.63658" lon="1.50292">
        <ele>136</ele>
        <time>2013-07-04T10:21:17Z</time>
      </trkpt>
      <trkpt lat="49.63659" lon="1.50277">
        <ele>136</ele>
        <time>2013-07-04T10:21:24Z</time>
      </trkpt>
      <trkpt lat="49.63661" lon="1.50262">
        <ele>136</ele>
        <time>2013-07-04T10:21:31Z</time>
      </trkpt>
      <trkpt lat="49.63662" lon="1.50247">
        <ele>136</ele>
        <time>2013-07-04T10:21:38Z</time>
      </trkpt>
      <trkpt lat="49.63664" lon="1.50233">
        <ele>136</ele>
        <time>2013-07-04T10:21:45Z</time>
      </trkpt>
      <trkpt lat="49.63665" lon="1.50218">
        <ele>136</ele>
        <time>2013-07-04T10:21:52Z</time>
      </trkpt>
      <trkpt lat="49.63668" lon="1.50205">
        <ele>136</ele>
        <time>2013-07-04T10:21:59Z</time>
      </trkpt>
      <trkpt lat="49.63674" lon="1.50193">
        <ele>136</ele>
        <time>2013-07-04T10:22:08Z</time>
      </trkpt>
      <trkpt lat="49.63672" lon="1.50178">
        <ele>142</ele>
        <time>2013-07-04T10:22:17Z</time>
      </trkpt>
      <trkpt lat="49.63677" lon="1.50165">
        <ele>142</ele>
        <time>2013-07-04T10:22:23Z</time>
      </trkpt>
      <trkpt lat="49.63681" lon="1.5015">
        <ele>142</ele>
        <time>2013-07-04T10:22:29Z</time>
      </trkpt>
      <trkpt lat="49.63682" lon="1.50135">
        <ele>142</ele>
        <time>2013-07-04T10:22:36Z</time>
      </trkpt>
      <trkpt lat="49.63682" lon="1.5012">
        <ele>148</ele>
        <time>2013-07-04T10:22:46Z</time>
      </trkpt>
      <trkpt lat="49.63681" lon="1.50105">
        <ele>155</ele>
        <time>2013-07-04T10:22:57Z</time>
      </trkpt>
      <trkpt lat="49.63683" lon="1.5009">
        <ele>155</ele>
        <time>2013-07-04T10:23:04Z</time>
      </trkpt>
      <trkpt lat="49.63685" lon="1.50073">
        <ele>149</ele>
        <time>2013-07-04T10:23:11Z</time>
      </trkpt>
      <trkpt lat="49.63686" lon="1.50058">
        <ele>149</ele>
        <time>2013-07-04T10:23:19Z</time>
      </trkpt>
      <trkpt lat="49.63685" lon="1.50043">
        <ele>149</ele>
        <time>2013-07-04T10:23:27Z</time>
      </trkpt>
      <trkpt lat="49.63685" lon="1.50027">
        <ele>149</ele>
        <time>2013-07-04T10:23:33Z</time>
      </trkpt>
      <trkpt lat="49.63684" lon="1.50012">
        <ele>149</ele>
        <time>2013-07-04T10:23:41Z</time>
      </trkpt>
      <trkpt lat="49.63682" lon="1.49997">
        <ele>149</ele>
        <time>2013-07-04T10:23:51Z</time>
      </trkpt>
      <trkpt lat="49.63682" lon="1.49982">
        <ele>158</ele>
        <time>2013-07-04T10:24:01Z</time>
      </trkpt>
      <trkpt lat="49.63682" lon="1.49967">
        <ele>158</ele>
        <time>2013-07-04T10:24:07Z</time>
      </trkpt>
      <trkpt lat="49.63681" lon="1.49952">
        <ele>151</ele>
        <time>2013-07-04T10:24:14Z</time>
      </trkpt>
      <trkpt lat="49.63677" lon="1.49937">
        <ele>151</ele>
        <time>2013-07-04T10:24:22Z</time>
      </trkpt>
      <trkpt lat="49.63674" lon="1.49922">
        <ele>145</ele>
        <time>2013-07-04T10:24:28Z</time>
      </trkpt>
      <trkpt lat="49.63666" lon="1.49913">
        <ele>151</ele>
        <time>2013-07-04T10:24:36Z</time>
      </trkpt>
      <trkpt lat="49.63658" lon="1.49903">
        <ele>151</ele>
        <time>2013-07-04T10:24:44Z</time>
      </trkpt>
      <trkpt lat="49.6365" lon="1.49897">
        <ele>151</ele>
        <time>2013-07-04T10:24:52Z</time>
      </trkpt>
      <trkpt lat="49.63643" lon="1.49888">
        <ele>151</ele>
        <time>2013-07-04T10:25:00Z</time>
      </trkpt>
      <trkpt lat="49.63636" lon="1.49877">
        <ele>151</ele>
        <time>2013-07-04T10:25:07Z</time>
      </trkpt>
      <trkpt lat="49.63629" lon="1.49866">
        <ele>151</ele>
        <time>2013-07-04T10:25:14Z</time>
      </trkpt>
      <trkpt lat="49.63625" lon="1.49853">
        <ele>151</ele>
        <time>2013-07-04T10:25:21Z</time>
      </trkpt>
      <trkpt lat="49.63621" lon="1.4984">
        <ele>151</ele>
        <time>2013-07-04T10:25:28Z</time>
      </trkpt>
      <trkpt lat="49.63621" lon="1.49824">
        <ele>151</ele>
        <time>2013-07-04T10:25:37Z</time>
      </trkpt>
      <trkpt lat="49.63619" lon="1.49808">
        <ele>151</ele>
        <time>2013-07-04T10:25:45Z</time>
      </trkpt>
      <trkpt lat="49.63617" lon="1.49794">
        <ele>151</ele>
        <time>2013-07-04T10:25:53Z</time>
      </trkpt>
      <trkpt lat="49.63617" lon="1.49778">
        <ele>151</ele>
        <time>2013-07-04T10:26:00Z</time>
      </trkpt>
      <trkpt lat="49.63618" lon="1.49764">
        <ele>151</ele>
        <time>2013-07-04T10:26:06Z</time>
      </trkpt>
      <trkpt lat="49.63618" lon="1.49749">
        <ele>151</ele>
        <time>2013-07-04T10:26:13Z</time>
      </trkpt>
      <trkpt lat="49.63618" lon="1.49733">
        <ele>151</ele>
        <time>2013-07-04T10:26:20Z</time>
      </trkpt>
      <trkpt lat="49.63617" lon="1.49717">
        <ele>151</ele>
        <time>2013-07-04T10:26:27Z</time>
      </trkpt>
      <trkpt lat="49.63616" lon="1.49702">
        <ele>151</ele>
        <time>2013-07-04T10:26:34Z</time>
      </trkpt>
      <trkpt lat="49.63616" lon="1.49688">
        <ele>151</ele>
        <time>2013-07-04T10:26:41Z</time>
      </trkpt>
      <trkpt lat="49.63616" lon="1.49674">
        <ele>151</ele>
        <time>2013-07-04T10:26:49Z</time>
      </trkpt>
      <trkpt lat="49.63612" lon="1.49658">
        <ele>159</ele>
        <time>2013-07-04T10:26:59Z</time>
      </trkpt>
      <trkpt lat="49.63608" lon="1.49643">
        <ele>159</ele>
        <time>2013-07-04T10:27:06Z</time>
      </trkpt>
      <trkpt lat="49.63608" lon="1.49628">
        <ele>159</ele>
        <time>2013-07-04T10:27:13Z</time>
      </trkpt>
      <trkpt lat="49.63605" lon="1.49614">
        <ele>154</ele>
        <time>2013-07-04T10:27:19Z</time>
      </trkpt>
      <trkpt lat="49.63602" lon="1.49601">
        <ele>148</ele>
        <time>2013-07-04T10:27:26Z</time>
      </trkpt>
      <trkpt lat="49.636" lon="1.49586">
        <ele>153</ele>
        <time>2013-07-04T10:27:34Z</time>
      </trkpt>
      <trkpt lat="49.63597" lon="1.4957">
        <ele>158</ele>
        <time>2013-07-04T10:27:41Z</time>
      </trkpt>
      <trkpt lat="49.63596" lon="1.49556">
        <ele>158</ele>
        <time>2013-07-04T10:27:46Z</time>
      </trkpt>
      <trkpt lat="49.63594" lon="1.49541">
        <ele>158</ele>
        <time>2013-07-04T10:27:54Z</time>
      </trkpt>
      <trkpt lat="49.63593" lon="1.49526">
        <ele>158</ele>
        <time>2013-07-04T10:28:03Z</time>
      </trkpt>
      <trkpt lat="49.63589" lon="1.49513">
        <ele>166</ele>
        <time>2013-07-04T10:28:11Z</time>
      </trkpt>
      <trkpt lat="49.6359" lon="1.49499">
        <ele>166</ele>
        <time>2013-07-04T10:28:17Z</time>
      </trkpt>
      <trkpt lat="49.63591" lon="1.49482">
        <ele>161</ele>
        <time>2013-07-04T10:28:24Z</time>
      </trkpt>
      <trkpt lat="49.63591" lon="1.49466">
        <ele>161</ele>
        <time>2013-07-04T10:28:30Z</time>
      </trkpt>
      <trkpt lat="49.63588" lon="1.49452">
        <ele>161</ele>
        <time>2013-07-04T10:28:40Z</time>
      </trkpt>
      <trkpt lat="49.63587" lon="1.49437">
        <ele>161</ele>
        <time>2013-07-04T10:28:54Z</time>
      </trkpt>
      <trkpt lat="49.63584" lon="1.49423">
        <ele>161</ele>
        <time>2013-07-04T10:29:00Z</time>
      </trkpt>
      <trkpt lat="49.63583" lon="1.49408">
        <ele>161</ele>
        <time>2013-07-04T10:29:08Z</time>
      </trkpt>
      <trkpt lat="49.63582" lon="1.49392">
        <ele>161</ele>
        <time>2013-07-04T10:29:15Z</time>
      </trkpt>
      <trkpt lat="49.63579" lon="1.49376">
        <ele>161</ele>
        <time>2013-07-04T10:29:23Z</time>
      </trkpt>
      <trkpt lat="49.6358" lon="1.4936">
        <ele>161</ele>
        <time>2013-07-04T10:29:32Z</time>
      </trkpt>
      <trkpt lat="49.63577" lon="1.49346">
        <ele>161</ele>
        <time>2013-07-04T10:29:42Z</time>
      </trkpt>
      <trkpt lat="49.63574" lon="1.4933">
        <ele>161</ele>
        <time>2013-07-04T10:29:50Z</time>
      </trkpt>
      <trkpt lat="49.63573" lon="1.49315">
        <ele>161</ele>
        <time>2013-07-04T10:29:57Z</time>
      </trkpt>
      <trkpt lat="49.63572" lon="1.49301">
        <ele>161</ele>
        <time>2013-07-04T10:30:04Z</time>
      </trkpt>
      <trkpt lat="49.63568" lon="1.49287">
        <ele>166</ele>
        <time>2013-07-04T10:30:12Z</time>
      </trkpt>
      <trkpt lat="49.63567" lon="1.49272">
        <ele>166</ele>
        <time>2013-07-04T10:30:20Z</time>
      </trkpt>
      <trkpt lat="49.63562" lon="1.49261">
        <ele>172</ele>
        <time>2013-07-04T10:30:27Z</time>
      </trkpt>
      <trkpt lat="49.63558" lon="1.49248">
        <ele>172</ele>
        <time>2013-07-04T10:30:35Z</time>
      </trkpt>
      <trkpt lat="49.6356" lon="1.49234">
        <ele>172</ele>
        <time>2013-07-04T10:30:43Z</time>
      </trkpt>
      <trkpt lat="49.6356" lon="1.49218">
        <ele>161</ele>
        <time>2013-07-04T10:30:50Z</time>
      </trkpt>
      <trkpt lat="49.63559" lon="1.49204">
        <ele>161</ele>
        <time>2013-07-04T10:30:55Z</time>
      </trkpt>
      <trkpt lat="49.63557" lon="1.4919">
        <ele>161</ele>
        <time>2013-07-04T10:31:04Z</time>
      </trkpt>
      <trkpt lat="49.63555" lon="1.49176">
        <ele>161</ele>
        <time>2013-07-04T10:31:14Z</time>
      </trkpt>
      <trkpt lat="49.63557" lon="1.49162">
        <ele>161</ele>
        <time>2013-07-04T10:31:38Z</time>
      </trkpt>
      <trkpt lat="49.63553" lon="1.49149">
        <ele>161</ele>
        <time>2013-07-04T10:32:27Z</time>
      </trkpt>
      <trkpt lat="49.63543" lon="1.49146">
        <ele>161</ele>
        <time>2013-07-04T10:32:48Z</time>
      </trkpt>
      <trkpt lat="49.63533" lon="1.49145">
        <ele>161</ele>
        <time>2013-07-04T10:32:56Z</time>
      </trkpt>
      <trkpt lat="49.63525" lon="1.49135">
        <ele>168</ele>
        <time>2013-07-04T10:33:07Z</time>
      </trkpt>
      <trkpt lat="49.63515" lon="1.49128">
        <ele>168</ele>
        <time>2013-07-04T10:33:13Z</time>
      </trkpt>
      <trkpt lat="49.63506" lon="1.49126">
        <ele>168</ele>
        <time>2013-07-04T10:33:20Z</time>
      </trkpt>
      <trkpt lat="49.63496" lon="1.49129">
        <ele>168</ele>
        <time>2013-07-04T10:33:29Z</time>
      </trkpt>
      <trkpt lat="49.63485" lon="1.49129">
        <ele>168</ele>
        <time>2013-07-04T10:33:36Z</time>
      </trkpt>
      <trkpt lat="49.63478" lon="1.49119">
        <ele>161</ele>
        <time>2013-07-04T10:33:45Z</time>
      </trkpt>
      <trkpt lat="49.6347" lon="1.49113">
        <ele>161</ele>
        <time>2013-07-04T10:33:52Z</time>
      </trkpt>
      <trkpt lat="49.63459" lon="1.49112">
        <ele>166</ele>
        <time>2013-07-04T10:34:01Z</time>
      </trkpt>
      <trkpt lat="49.6345" lon="1.49108">
        <ele>173</ele>
        <time>2013-07-04T10:34:07Z</time>
      </trkpt>
      <trkpt lat="49.6344" lon="1.49103">
        <ele>167</ele>
        <time>2013-07-04T10:34:17Z</time>
      </trkpt>
      <trkpt lat="49.63431" lon="1.491">
        <ele>167</ele>
        <time>2013-07-04T10:34:25Z</time>
      </trkpt>
      <trkpt lat="49.63422" lon="1.491">
        <ele>167</ele>
        <time>2013-07-04T10:34:32Z</time>
      </trkpt>
      <trkpt lat="49.63413" lon="1.49093">
        <ele>167</ele>
        <time>2013-07-04T10:34:40Z</time>
      </trkpt>
      <trkpt lat="49.63405" lon="1.49084">
        <ele>167</ele>
        <time>2013-07-04T10:34:49Z</time>
      </trkpt>
      <trkpt lat="49.63399" lon="1.49071">
        <ele>167</ele>
        <time>2013-07-04T10:34:57Z</time>
      </trkpt>
      <trkpt lat="49.63394" lon="1.49058">
        <ele>167</ele>
        <time>2013-07-04T10:35:04Z</time>
      </trkpt>
      <trkpt lat="49.63391" lon="1.49043">
        <ele>161</ele>
        <time>2013-07-04T10:35:11Z</time>
      </trkpt>
      <trkpt lat="49.63388" lon="1.49028">
        <ele>161</ele>
        <time>2013-07-04T10:35:19Z</time>
      </trkpt>
      <trkpt lat="49.63382" lon="1.49015">
        <ele>161</ele>
        <time>2013-07-04T10:35:26Z</time>
      </trkpt>
      <trkpt lat="49.63375" lon="1.49005">
        <ele>161</ele>
        <time>2013-07-04T10:35:33Z</time>
      </trkpt>
      <trkpt lat="49.63369" lon="1.48995">
        <ele>161</ele>
        <time>2013-07-04T10:35:41Z</time>
      </trkpt>
      <trkpt lat="49.63365" lon="1.48982">
        <ele>161</ele>
        <time>2013-07-04T10:35:51Z</time>
      </trkpt>
      <trkpt lat="49.63364" lon="1.48968">
        <ele>161</ele>
        <time>2013-07-04T10:36:01Z</time>
      </trkpt>
      <trkpt lat="49.63366" lon="1.48953">
        <ele>155</ele>
        <time>2013-07-04T10:36:51Z</time>
      </trkpt>
      <trkpt lat="49.63361" lon="1.4894">
        <ele>155</ele>
        <time>2013-07-04T10:37:02Z</time>
      </trkpt>
      <trkpt lat="49.63355" lon="1.48929">
        <ele>155</ele>
        <time>2013-07-04T10:37:11Z</time>
      </trkpt>
      <trkpt lat="49.63352" lon="1.48916">
        <ele>155</ele>
        <time>2013-07-04T10:37:20Z</time>
      </trkpt>
      <trkpt lat="49.63346" lon="1.48903">
        <ele>160</ele>
        <time>2013-07-04T10:37:30Z</time>
      </trkpt>
      <trkpt lat="49.63343" lon="1.4889">
        <ele>160</ele>
        <time>2013-07-04T10:37:37Z</time>
      </trkpt>
      <trkpt lat="49.63338" lon="1.48877">
        <ele>160</ele>
        <time>2013-07-04T10:37:45Z</time>
      </trkpt>
      <trkpt lat="49.63335" lon="1.48863">
        <ele>160</ele>
        <time>2013-07-04T10:37:55Z</time>
      </trkpt>
      <trkpt lat="49.63332" lon="1.48848">
        <ele>160</ele>
        <time>2013-07-04T10:38:05Z</time>
      </trkpt>
      <trkpt lat="49.63326" lon="1.48837">
        <ele>160</ele>
        <time>2013-07-04T10:38:24Z</time>
      </trkpt>
      <trkpt lat="49.63322" lon="1.48823">
        <ele>160</ele>
        <time>2013-07-04T10:38:34Z</time>
      </trkpt>
      <trkpt lat="49.63318" lon="1.48809">
        <ele>160</ele>
        <time>2013-07-04T10:38:43Z</time>
      </trkpt>
      <trkpt lat="49.63314" lon="1.48794">
        <ele>160</ele>
        <time>2013-07-04T10:38:51Z</time>
      </trkpt>
      <trkpt lat="49.63311" lon="1.48781">
        <ele>155</ele>
        <time>2013-07-04T10:39:00Z</time>
      </trkpt>
      <trkpt lat="49.63309" lon="1.48767">
        <ele>155</ele>
        <time>2013-07-04T10:39:08Z</time>
      </trkpt>
      <trkpt lat="49.63304" lon="1.48755">
        <ele>155</ele>
        <time>2013-07-04T10:39:16Z</time>
      </trkpt>
      <trkpt lat="49.63301" lon="1.4874">
        <ele>155</ele>
        <time>2013-07-04T10:39:25Z</time>
      </trkpt>
      <trkpt lat="49.63297" lon="1.48727">
        <ele>155</ele>
        <time>2013-07-04T10:39:34Z</time>
      </trkpt>
      <trkpt lat="49.63293" lon="1.48713">
        <ele>155</ele>
        <time>2013-07-04T10:39:44Z</time>
      </trkpt>
      <trkpt lat="49.63289" lon="1.48699">
        <ele>155</ele>
        <time>2013-07-04T10:39:53Z</time>
      </trkpt>
      <trkpt lat="49.63288" lon="1.48684">
        <ele>155</ele>
        <time>2013-07-04T10:40:03Z</time>
      </trkpt>
      <trkpt lat="49.63283" lon="1.48671">
        <ele>155</ele>
        <time>2013-07-04T10:40:11Z</time>
      </trkpt>
      <trkpt lat="49.6328" lon="1.48658">
        <ele>155</ele>
        <time>2013-07-04T10:40:20Z</time>
      </trkpt>
      <trkpt lat="49.63275" lon="1.48645">
        <ele>155</ele>
        <time>2013-07-04T10:40:32Z</time>
      </trkpt>
      <trkpt lat="49.63271" lon="1.48633">
        <ele>155</ele>
        <time>2013-07-04T10:40:46Z</time>
      </trkpt>
      <trkpt lat="49.63265" lon="1.48623">
        <ele>155</ele>
        <time>2013-07-04T10:40:55Z</time>
      </trkpt>
      <trkpt lat="49.63262" lon="1.48609">
        <ele>155</ele>
        <time>2013-07-04T10:41:03Z</time>
      </trkpt>
      <trkpt lat="49.63259" lon="1.48595">
        <ele>155</ele>
        <time>2013-07-04T10:41:13Z</time>
      </trkpt>
      <trkpt lat="49.63256" lon="1.4858">
        <ele>155</ele>
        <time>2013-07-04T10:41:23Z</time>
      </trkpt>
      <trkpt lat="49.63252" lon="1.48566">
        <ele>155</ele>
        <time>2013-07-04T10:41:31Z</time>
      </trkpt>
      <trkpt lat="49.63248" lon="1.48552">
        <ele>155</ele>
        <time>2013-07-04T10:41:41Z</time>
      </trkpt>
      <trkpt lat="49.63246" lon="1.48538">
        <ele>155</ele>
        <time>2013-07-04T10:41:52Z</time>
      </trkpt>
      <trkpt lat="49.63245" lon="1.48524">
        <ele>155</ele>
        <time>2013-07-04T10:42:05Z</time>
      </trkpt>
      <trkpt lat="49.63239" lon="1.48513">
        <ele>147</ele>
        <time>2013-07-04T10:42:41Z</time>
      </trkpt>
      <trkpt lat="49.63238" lon="1.48499">
        <ele>147</ele>
        <time>2013-07-04T10:43:05Z</time>
      </trkpt>
      <trkpt lat="49.63234" lon="1.48485">
        <ele>154</ele>
        <time>2013-07-04T10:43:24Z</time>
      </trkpt>
      <trkpt lat="49.63234" lon="1.48469">
        <ele>154</ele>
        <time>2013-07-04T10:43:38Z</time>
      </trkpt>
      <trkpt lat="49.63233" lon="1.48454">
        <ele>154</ele>
        <time>2013-07-04T10:43:48Z</time>
      </trkpt>
      <trkpt lat="49.63233" lon="1.48439">
        <ele>154</ele>
        <time>2013-07-04T10:43:59Z</time>
      </trkpt>
      <trkpt lat="49.63233" lon="1.48423">
        <ele>147</ele>
        <time>2013-07-04T10:44:10Z</time>
      </trkpt>
      <trkpt lat="49.63234" lon="1.48409">
        <ele>147</ele>
        <time>2013-07-04T10:44:19Z</time>
      </trkpt>
      <trkpt lat="49.63232" lon="1.48394">
        <ele>147</ele>
        <time>2013-07-04T10:44:27Z</time>
      </trkpt>
      <trkpt lat="49.63231" lon="1.48379">
        <ele>147</ele>
        <time>2013-07-04T10:44:38Z</time>
      </trkpt>
      <trkpt lat="49.6323" lon="1.48365">
        <ele>147</ele>
        <time>2013-07-04T10:45:06Z</time>
      </trkpt>
      <trkpt lat="49.63231" lon="1.4835">
        <ele>147</ele>
        <time>2013-07-04T10:45:17Z</time>
      </trkpt>
      <trkpt lat="49.63228" lon="1.48336">
        <ele>147</ele>
        <time>2013-07-04T10:45:31Z</time>
      </trkpt>
      <trkpt lat="49.63219" lon="1.48332">
        <ele>147</ele>
        <time>2013-07-04T10:45:46Z</time>
      </trkpt>
      <trkpt lat="49.6321" lon="1.4833">
        <ele>141</ele>
        <time>2013-07-04T10:45:54Z</time>
      </trkpt>
      <trkpt lat="49.63201" lon="1.48324">
        <ele>141</ele>
        <time>2013-07-04T10:46:02Z</time>
      </trkpt>
      <trkpt lat="49.63193" lon="1.48315">
        <ele>141</ele>
        <time>2013-07-04T10:46:12Z</time>
      </trkpt>
      <trkpt lat="49.63183" lon="1.48309">
        <ele>141</ele>
        <time>2013-07-04T10:46:19Z</time>
      </trkpt>
      <trkpt lat="49.63174" lon="1.48304">
        <ele>141</ele>
        <time>2013-07-04T10:46:25Z</time>
      </trkpt>
      <trkpt lat="49.63164" lon="1.48299">
        <ele>141</ele>
        <time>2013-07-04T10:46:37Z</time>
      </trkpt>
      <trkpt lat="49.63157" lon="1.4829">
        <ele>141</ele>
        <time>2013-07-04T10:46:45Z</time>
      </trkpt>
      <trkpt lat="49.6315" lon="1.48279">
        <ele>141</ele>
        <time>2013-07-04T10:46:54Z</time>
      </trkpt>
      <trkpt lat="49.63146" lon="1.48264">
        <ele>141</ele>
        <time>2013-07-04T10:47:04Z</time>
      </trkpt>
      <trkpt lat="49.63143" lon="1.4825">
        <ele>141</ele>
        <time>2013-07-04T10:47:13Z</time>
      </trkpt>
      <trkpt lat="49.63137" lon="1.48239">
        <ele>141</ele>
        <time>2013-07-04T10:47:20Z</time>
      </trkpt>
      <trkpt lat="49.63133" lon="1.48226">
        <ele>141</ele>
        <time>2013-07-04T10:47:28Z</time>
      </trkpt>
      <trkpt lat="49.6313" lon="1.48212">
        <ele>141</ele>
        <time>2013-07-04T10:47:36Z</time>
      </trkpt>
      <trkpt lat="49.63126" lon="1.48199">
        <ele>141</ele>
        <time>2013-07-04T10:47:44Z</time>
      </trkpt>
      <trkpt lat="49.63122" lon="1.48186">
        <ele>141</ele>
        <time>2013-07-04T10:47:52Z</time>
      </trkpt>
      <trkpt lat="49.63117" lon="1.48173">
        <ele>141</ele>
        <time>2013-07-04T10:48:01Z</time>
      </trkpt>
      <trkpt lat="49.63111" lon="1.48162">
        <ele>146</ele>
        <time>2013-07-04T10:48:10Z</time>
      </trkpt>
      <trkpt lat="49.63104" lon="1.48151">
        <ele>146</ele>
        <time>2013-07-04T10:48:18Z</time>
      </trkpt>
      <trkpt lat="49.63098" lon="1.4814">
        <ele>146</ele>
        <time>2013-07-04T10:48:26Z</time>
      </trkpt>
      <trkpt lat="49.63093" lon="1.48128">
        <ele>146</ele>
        <time>2013-07-04T10:48:34Z</time>
      </trkpt>
      <trkpt lat="49.63087" lon="1.48117">
        <ele>146</ele>
        <time>2013-07-04T10:48:41Z</time>
      </trkpt>
      <trkpt lat="49.6308" lon="1.48105">
        <ele>146</ele>
        <time>2013-07-04T10:48:49Z</time>
      </trkpt>
      <trkpt lat="49.63074" lon="1.48092">
        <ele>146</ele>
        <time>2013-07-04T10:48:57Z</time>
      </trkpt>
      <trkpt lat="49.63069" lon="1.4808">
        <ele>146</ele>
        <time>2013-07-04T10:49:04Z</time>
      </trkpt>
      <trkpt lat="49.63063" lon="1.48069">
        <ele>146</ele>
        <time>2013-07-04T10:49:11Z</time>
      </trkpt>
      <trkpt lat="49.63057" lon="1.48058">
        <ele>146</ele>
        <time>2013-07-04T10:49:18Z</time>
      </trkpt>
      <trkpt lat="49.63052" lon="1.48047">
        <ele>146</ele>
        <time>2013-07-04T10:49:25Z</time>
      </trkpt>
      <trkpt lat="49.63046" lon="1.48035">
        <ele>146</ele>
        <time>2013-07-04T10:49:32Z</time>
      </trkpt>
      <trkpt lat="49.63041" lon="1.48023">
        <ele>146</ele>
        <time>2013-07-04T10:49:40Z</time>
      </trkpt>
      <trkpt lat="49.63035" lon="1.48011">
        <ele>146</ele>
        <time>2013-07-04T10:49:47Z</time>
      </trkpt>
      <trkpt lat="49.63029" lon="1.47999">
        <ele>146</ele>
        <time>2013-07-04T10:49:54Z</time>
      </trkpt>
      <trkpt lat="49.63024" lon="1.47988">
        <ele>146</ele>
        <time>2013-07-04T10:50:02Z</time>
      </trkpt>
      <trkpt lat="49.63018" lon="1.47975">
        <ele>146</ele>
        <time>2013-07-04T10:50:10Z</time>
      </trkpt>
      <trkpt lat="49.63012" lon="1.47962">
        <ele>146</ele>
        <time>2013-07-04T10:50:18Z</time>
      </trkpt>
      <trkpt lat="49.63006" lon="1.47951">
        <ele>146</ele>
        <time>2013-07-04T10:50:26Z</time>
      </trkpt>
      <trkpt lat="49.63001" lon="1.47938">
        <ele>146</ele>
        <time>2013-07-04T10:50:33Z</time>
      </trkpt>
      <trkpt lat="49.62996" lon="1.47925">
        <ele>146</ele>
        <time>2013-07-04T10:50:41Z</time>
      </trkpt>
      <trkpt lat="49.6299" lon="1.47912">
        <ele>146</ele>
        <time>2013-07-04T10:50:50Z</time>
      </trkpt>
      <trkpt lat="49.62985" lon="1.479">
        <ele>146</ele>
        <time>2013-07-04T10:50:58Z</time>
      </trkpt>
      <trkpt lat="49.62979" lon="1.47887">
        <ele>146</ele>
        <time>2013-07-04T10:51:06Z</time>
      </trkpt>
      <trkpt lat="49.62975" lon="1.47874">
        <ele>146</ele>
        <time>2013-07-04T10:51:14Z</time>
      </trkpt>
      <trkpt lat="49.62971" lon="1.47861">
        <ele>152</ele>
        <time>2013-07-04T10:51:23Z</time>
      </trkpt>
      <trkpt lat="49.62964" lon="1.4785">
        <ele>152</ele>
        <time>2013-07-04T10:51:31Z</time>
      </trkpt>
      <trkpt lat="49.62959" lon="1.47838">
        <ele>152</ele>
        <time>2013-07-04T10:51:39Z</time>
      </trkpt>
      <trkpt lat="49.62954" lon="1.47824">
        <ele>152</ele>
        <time>2013-07-04T10:51:48Z</time>
      </trkpt>
      <trkpt lat="49.62948" lon="1.47812">
        <ele>152</ele>
        <time>2013-07-04T10:51:57Z</time>
      </trkpt>
      <trkpt lat="49.62944" lon="1.47798">
        <ele>152</ele>
        <time>2013-07-04T10:52:05Z</time>
      </trkpt>
      <trkpt lat="49.6294" lon="1.47785">
        <ele>152</ele>
        <time>2013-07-04T10:52:12Z</time>
      </trkpt>
      <trkpt lat="49.62935" lon="1.47772">
        <ele>152</ele>
        <time>2013-07-04T10:52:20Z</time>
      </trkpt>
      <trkpt lat="49.6293" lon="1.47759">
        <ele>158</ele>
        <time>2013-07-04T10:52:28Z</time>
      </trkpt>
      <trkpt lat="49.62924" lon="1.47748">
        <ele>158</ele>
        <time>2013-07-04T10:52:36Z</time>
      </trkpt>
      <trkpt lat="49.6292" lon="1.47733">
        <ele>158</ele>
        <time>2013-07-04T10:52:45Z</time>
      </trkpt>
      <trkpt lat="49.62917" lon="1.47719">
        <ele>158</ele>
        <time>2013-07-04T10:52:54Z</time>
      </trkpt>
      <trkpt lat="49.62913" lon="1.47705">
        <ele>158</ele>
        <time>2013-07-04T10:53:03Z</time>
      </trkpt>
      <trkpt lat="49.62909" lon="1.47691">
        <ele>158</ele>
        <time>2013-07-04T10:53:11Z</time>
      </trkpt>
      <trkpt lat="49.62906" lon="1.47677">
        <ele>158</ele>
        <time>2013-07-04T10:53:19Z</time>
      </trkpt>
      <trkpt lat="49.62903" lon="1.47663">
        <ele>158</ele>
        <time>2013-07-04T10:53:26Z</time>
      </trkpt>
      <trkpt lat="49.62899" lon="1.47649">
        <ele>158</ele>
        <time>2013-07-04T10:53:34Z</time>
      </trkpt>
      <trkpt lat="49.62896" lon="1.47635">
        <ele>158</ele>
        <time>2013-07-04T10:53:42Z</time>
      </trkpt>
      <trkpt lat="49.62892" lon="1.47622">
        <ele>158</ele>
        <time>2013-07-04T10:53:49Z</time>
      </trkpt>
      <trkpt lat="49.62886" lon="1.47609">
        <ele>158</ele>
        <time>2013-07-04T10:53:57Z</time>
      </trkpt>
      <trkpt lat="49.62882" lon="1.47597">
        <ele>158</ele>
        <time>2013-07-04T10:54:05Z</time>
      </trkpt>
      <trkpt lat="49.62878" lon="1.47584">
        <ele>158</ele>
        <time>2013-07-04T10:54:12Z</time>
      </trkpt>
      <trkpt lat="49.62872" lon="1.47572">
        <ele>158</ele>
        <time>2013-07-04T10:54:20Z</time>
      </trkpt>
      <trkpt lat="49.62868" lon="1.47559">
        <ele>158</ele>
        <time>2013-07-04T10:54:28Z</time>
      </trkpt>
      <trkpt lat="49.62863" lon="1.47547">
        <ele>158</ele>
        <time>2013-07-04T10:54:36Z</time>
      </trkpt>
      <trkpt lat="49.62857" lon="1.47535">
        <ele>158</ele>
        <time>2013-07-04T10:54:44Z</time>
      </trkpt>
      <trkpt lat="49.62853" lon="1.47522">
        <ele>158</ele>
        <time>2013-07-04T10:54:51Z</time>
      </trkpt>
      <trkpt lat="49.62847" lon="1.47511">
        <ele>158</ele>
        <time>2013-07-04T10:54:59Z</time>
      </trkpt>
      <trkpt lat="49.62843" lon="1.47498">
        <ele>158</ele>
        <time>2013-07-04T10:55:06Z</time>
      </trkpt>
      <trkpt lat="49.62839" lon="1.47485">
        <ele>158</ele>
        <time>2013-07-04T10:55:14Z</time>
      </trkpt>
      <trkpt lat="49.62833" lon="1.47472">
        <ele>158</ele>
        <time>2013-07-04T10:55:23Z</time>
      </trkpt>
      <trkpt lat="49.62826" lon="1.4746">
        <ele>158</ele>
        <time>2013-07-04T10:55:31Z</time>
      </trkpt>
      <trkpt lat="49.62822" lon="1.47448">
        <ele>158</ele>
        <time>2013-07-04T10:55:39Z</time>
      </trkpt>
      <trkpt lat="49.62816" lon="1.47434">
        <ele>158</ele>
        <time>2013-07-04T10:55:48Z</time>
      </trkpt>
      <trkpt lat="49.62811" lon="1.47422">
        <ele>158</ele>
        <time>2013-07-04T10:55:56Z</time>
      </trkpt>
      <trkpt lat="49.62806" lon="1.47408">
        <ele>158</ele>
        <time>2013-07-04T10:56:04Z</time>
      </trkpt>
      <trkpt lat="49.62801" lon="1.47396">
        <ele>158</ele>
        <time>2013-07-04T10:56:12Z</time>
      </trkpt>
      <trkpt lat="49.62797" lon="1.47382">
        <ele>158</ele>
        <time>2013-07-04T10:56:20Z</time>
      </trkpt>
      <trkpt lat="49.62793" lon="1.47368">
        <ele>158</ele>
        <time>2013-07-04T10:56:29Z</time>
      </trkpt>
      <trkpt lat="49.6279" lon="1.47354">
        <ele>163</ele>
        <time>2013-07-04T10:56:37Z</time>
      </trkpt>
      <trkpt lat="49.62783" lon="1.47344">
        <ele>163</ele>
        <time>2013-07-04T10:56:44Z</time>
      </trkpt>
      <trkpt lat="49.62777" lon="1.47332">
        <ele>163</ele>
        <time>2013-07-04T10:56:52Z</time>
      </trkpt>
      <trkpt lat="49.62772" lon="1.47318">
        <ele>163</ele>
        <time>2013-07-04T10:57:00Z</time>
      </trkpt>
      <trkpt lat="49.62766" lon="1.47307">
        <ele>163</ele>
        <time>2013-07-04T10:57:10Z</time>
      </trkpt>
      <trkpt lat="49.62761" lon="1.47294">
        <ele>163</ele>
        <time>2013-07-04T10:57:19Z</time>
      </trkpt>
      <trkpt lat="49.62757" lon="1.47282">
        <ele>163</ele>
        <time>2013-07-04T10:57:27Z</time>
      </trkpt>
      <trkpt lat="49.62752" lon="1.47269">
        <ele>163</ele>
        <time>2013-07-04T10:57:36Z</time>
      </trkpt>
      <trkpt lat="49.62746" lon="1.47256">
        <ele>163</ele>
        <time>2013-07-04T10:57:45Z</time>
      </trkpt>
      <trkpt lat="49.62739" lon="1.47247">
        <ele>163</ele>
        <time>2013-07-04T10:57:54Z</time>
      </trkpt>
      <trkpt lat="49.62732" lon="1.47238">
        <ele>163</ele>
        <time>2013-07-04T10:58:02Z</time>
      </trkpt>
      <trkpt lat="49.62727" lon="1.47225">
        <ele>163</ele>
        <time>2013-07-04T10:58:12Z</time>
      </trkpt>
      <trkpt lat="49.62721" lon="1.47213">
        <ele>163</ele>
        <time>2013-07-04T10:58:23Z</time>
      </trkpt>
      <trkpt lat="49.62714" lon="1.47204">
        <ele>163</ele>
        <time>2013-07-04T11:02:10Z</time>
      </trkpt>
      <trkpt lat="49.62711" lon="1.47191">
        <ele>168</ele>
        <time>2013-07-04T11:03:22Z</time>
      </trkpt>
      <trkpt lat="49.62705" lon="1.47179">
        <ele>168</ele>
        <time>2013-07-04T11:03:32Z</time>
      </trkpt>
      <trkpt lat="49.62699" lon="1.47168">
        <ele>168</ele>
        <time>2013-07-04T11:03:41Z</time>
      </trkpt>
      <trkpt lat="49.62695" lon="1.47155">
        <ele>168</ele>
        <time>2013-07-04T11:03:51Z</time>
      </trkpt>
      <trkpt lat="49.6269" lon="1.47141">
        <ele>174</ele>
        <time>2013-07-04T11:04:01Z</time>
      </trkpt>
      <trkpt lat="49.62685" lon="1.47129">
        <ele>174</ele>
        <time>2013-07-04T11:04:10Z</time>
      </trkpt>
      <trkpt lat="49.6268" lon="1.47115">
        <ele>174</ele>
        <time>2013-07-04T11:04:19Z</time>
      </trkpt>
      <trkpt lat="49.62674" lon="1.47104">
        <ele>174</ele>
        <time>2013-07-04T11:04:29Z</time>
      </trkpt>
      <trkpt lat="49.6267" lon="1.47091">
        <ele>174</ele>
        <time>2013-07-04T11:04:39Z</time>
      </trkpt>
      <trkpt lat="49.62664" lon="1.47079">
        <ele>181</ele>
        <time>2013-07-04T11:04:48Z</time>
      </trkpt>
      <trkpt lat="49.62655" lon="1.4707">
        <ele>181</ele>
        <time>2013-07-04T11:04:58Z</time>
      </trkpt>
      <trkpt lat="49.62648" lon="1.4706">
        <ele>181</ele>
        <time>2013-07-04T11:05:08Z</time>
      </trkpt>
      <trkpt lat="49.62641" lon="1.4705">
        <ele>181</ele>
        <time>2013-07-04T11:05:16Z</time>
      </trkpt>
      <trkpt lat="49.62636" lon="1.47036">
        <ele>181</ele>
        <time>2013-07-04T11:05:25Z</time>
      </trkpt>
      <trkpt lat="49.62634" lon="1.47022">
        <ele>181</ele>
        <time>2013-07-04T11:05:37Z</time>
      </trkpt>
      <trkpt lat="49.62634" lon="1.47008">
        <ele>181</ele>
        <time>2013-07-04T11:05:49Z</time>
      </trkpt>
      <trkpt lat="49.62632" lon="1.46993">
        <ele>181</ele>
        <time>2013-07-04T11:06:00Z</time>
      </trkpt>
      <trkpt lat="49.62631" lon="1.46979">
        <ele>186</ele>
        <time>2013-07-04T11:06:13Z</time>
      </trkpt>
      <trkpt lat="49.62632" lon="1.46964">
        <ele>186</ele>
        <time>2013-07-04T11:06:22Z</time>
      </trkpt>
      <trkpt lat="49.6263" lon="1.46946">
        <ele>192</ele>
        <time>2013-07-04T11:06:32Z</time>
      </trkpt>
      <trkpt lat="49.62628" lon="1.46933">
        <ele>192</ele>
        <time>2013-07-04T11:06:43Z</time>
      </trkpt>
      <trkpt lat="49.62626" lon="1.46919">
        <ele>192</ele>
        <time>2013-07-04T11:06:52Z</time>
      </trkpt>
      <trkpt lat="49.62622" lon="1.46905">
        <ele>192</ele>
        <time>2013-07-04T11:07:00Z</time>
      </trkpt>
      <trkpt lat="49.62617" lon="1.46893">
        <ele>192</ele>
        <time>2013-07-04T11:07:09Z</time>
      </trkpt>
      <trkpt lat="49.62615" lon="1.4688">
        <ele>192</ele>
        <time>2013-07-04T11:07:20Z</time>
      </trkpt>
      <trkpt lat="49.62611" lon="1.46866">
        <ele>192</ele>
        <time>2013-07-04T11:07:29Z</time>
      </trkpt>
      <trkpt lat="49.62608" lon="1.46852">
        <ele>192</ele>
        <time>2013-07-04T11:07:38Z</time>
      </trkpt>
      <trkpt lat="49.62605" lon="1.46839">
        <ele>192</ele>
        <time>2013-07-04T11:07:47Z</time>
      </trkpt>
      <trkpt lat="49.62602" lon="1.46825">
        <ele>192</ele>
        <time>2013-07-04T11:07:56Z</time>
      </trkpt>
      <trkpt lat="49.62599" lon="1.46811">
        <ele>192</ele>
        <time>2013-07-04T11:08:05Z</time>
      </trkpt>
      <trkpt lat="49.62597" lon="1.46796">
        <ele>192</ele>
        <time>2013-07-04T11:08:14Z</time>
      </trkpt>
      <trkpt lat="49.62594" lon="1.46783">
        <ele>192</ele>
        <time>2013-07-04T11:08:22Z</time>
      </trkpt>
      <trkpt lat="49.62592" lon="1.46769">
        <ele>192</ele>
        <time>2013-07-04T11:08:30Z</time>
      </trkpt>
      <trkpt lat="49.62589" lon="1.46754">
        <ele>192</ele>
        <time>2013-07-04T11:08:38Z</time>
      </trkpt>
      <trkpt lat="49.62587" lon="1.46741">
        <ele>192</ele>
        <time>2013-07-04T11:08:46Z</time>
      </trkpt>
      <trkpt lat="49.62584" lon="1.46727">
        <ele>187</ele>
        <time>2013-07-04T11:08:55Z</time>
      </trkpt>
      <trkpt lat="49.6258" lon="1.46714">
        <ele>187</ele>
        <time>2013-07-04T11:09:04Z</time>
      </trkpt>
      <trkpt lat="49.62577" lon="1.467">
        <ele>187</ele>
        <time>2013-07-04T11:09:12Z</time>
      </trkpt>
      <trkpt lat="49.62573" lon="1.46687">
        <ele>187</ele>
        <time>2013-07-04T11:09:20Z</time>
      </trkpt>
      <trkpt lat="49.62568" lon="1.46672">
        <ele>187</ele>
        <time>2013-07-04T11:09:29Z</time>
      </trkpt>
      <trkpt lat="49.62566" lon="1.46659">
        <ele>187</ele>
        <time>2013-07-04T11:09:36Z</time>
      </trkpt>
      <trkpt lat="49.62561" lon="1.46645">
        <ele>187</ele>
        <time>2013-07-04T11:09:45Z</time>
      </trkpt>
      <trkpt lat="49.62557" lon="1.46631">
        <ele>187</ele>
        <time>2013-07-04T11:09:53Z</time>
      </trkpt>
      <trkpt lat="49.62553" lon="1.46619">
        <ele>187</ele>
        <time>2013-07-04T11:10:01Z</time>
      </trkpt>
      <trkpt lat="49.6255" lon="1.46604">
        <ele>187</ele>
        <time>2013-07-04T11:10:10Z</time>
      </trkpt>
      <trkpt lat="49.62546" lon="1.4659">
        <ele>187</ele>
        <time>2013-07-04T11:10:18Z</time>
      </trkpt>
      <trkpt lat="49.62543" lon="1.46575">
        <ele>187</ele>
        <time>2013-07-04T11:10:27Z</time>
      </trkpt>
      <trkpt lat="49.62539" lon="1.46563">
        <ele>187</ele>
        <time>2013-07-04T11:10:35Z</time>
      </trkpt>
      <trkpt lat="49.62535" lon="1.46549">
        <ele>187</ele>
        <time>2013-07-04T11:10:44Z</time>
      </trkpt>
      <trkpt lat="49.62531" lon="1.46535">
        <ele>187</ele>
        <time>2013-07-04T11:10:53Z</time>
      </trkpt>
      <trkpt lat="49.62527" lon="1.46522">
        <ele>187</ele>
        <time>2013-07-04T11:11:05Z</time>
      </trkpt>
      <trkpt lat="49.62523" lon="1.4651">
        <ele>187</ele>
        <time>2013-07-04T11:11:27Z</time>
      </trkpt>
      <trkpt lat="49.6252" lon="1.46496">
        <ele>187</ele>
        <time>2013-07-04T11:11:36Z</time>
      </trkpt>
      <trkpt lat="49.62518" lon="1.46481">
        <ele>187</ele>
        <time>2013-07-04T11:11:45Z</time>
      </trkpt>
      <trkpt lat="49.62514" lon="1.46467">
        <ele>187</ele>
        <time>2013-07-04T11:11:56Z</time>
      </trkpt>
      <trkpt lat="49.6251" lon="1.46454">
        <ele>187</ele>
        <time>2013-07-04T11:12:05Z</time>
      </trkpt>
      <trkpt lat="49.62507" lon="1.46441">
        <ele>187</ele>
        <time>2013-07-04T11:12:13Z</time>
      </trkpt>
      <trkpt lat="49.62504" lon="1.46427">
        <ele>181</ele>
        <time>2013-07-04T11:12:21Z</time>
      </trkpt>
      <trkpt lat="49.62501" lon="1.46414">
        <ele>181</ele>
        <time>2013-07-04T11:12:30Z</time>
      </trkpt>
      <trkpt lat="49.62497" lon="1.464">
        <ele>181</ele>
        <time>2013-07-04T11:12:38Z</time>
      </trkpt>
      <trkpt lat="49.62495" lon="1.46386">
        <ele>181</ele>
        <time>2013-07-04T11:12:47Z</time>
      </trkpt>
      <trkpt lat="49.62491" lon="1.46372">
        <ele>181</ele>
        <time>2013-07-04T11:12:56Z</time>
      </trkpt>
      <trkpt lat="49.62486" lon="1.4636">
        <ele>181</ele>
        <time>2013-07-04T11:13:04Z</time>
      </trkpt>
      <trkpt lat="49.62479" lon="1.4635">
        <ele>181</ele>
        <time>2013-07-04T11:13:13Z</time>
      </trkpt>
      <trkpt lat="49.62472" lon="1.46341">
        <ele>181</ele>
        <time>2013-07-04T11:13:21Z</time>
      </trkpt>
      <trkpt lat="49.62463" lon="1.46333">
        <ele>181</ele>
        <time>2013-07-04T11:13:30Z</time>
      </trkpt>
      <trkpt lat="49.62455" lon="1.46325">
        <ele>181</ele>
        <time>2013-07-04T11:13:39Z</time>
      </trkpt>
      <trkpt lat="49.62447" lon="1.46317">
        <ele>181</ele>
        <time>2013-07-04T11:13:47Z</time>
      </trkpt>
      <trkpt lat="49.6244" lon="1.46307">
        <ele>181</ele>
        <time>2013-07-04T11:13:56Z</time>
      </trkpt>
      <trkpt lat="49.62433" lon="1.46296">
        <ele>181</ele>
        <time>2013-07-04T11:14:04Z</time>
      </trkpt>
      <trkpt lat="49.62426" lon="1.46286">
        <ele>175</ele>
        <time>2013-07-04T11:14:12Z</time>
      </trkpt>
      <trkpt lat="49.6242" lon="1.46275">
        <ele>175</ele>
        <time>2013-07-04T11:14:20Z</time>
      </trkpt>
      <trkpt lat="49.62415" lon="1.46263">
        <ele>175</ele>
        <time>2013-07-04T11:14:28Z</time>
      </trkpt>
      <trkpt lat="49.62409" lon="1.4625">
        <ele>175</ele>
        <time>2013-07-04T11:14:37Z</time>
      </trkpt>
      <trkpt lat="49.62403" lon="1.46237">
        <ele>175</ele>
        <time>2013-07-04T11:14:45Z</time>
      </trkpt>
      <trkpt lat="49.62399" lon="1.46223">
        <ele>175</ele>
        <time>2013-07-04T11:14:53Z</time>
      </trkpt>
      <trkpt lat="49.62394" lon="1.46212">
        <ele>175</ele>
        <time>2013-07-04T11:15:01Z</time>
      </trkpt>
      <trkpt lat="49.62389" lon="1.46198">
        <ele>169</ele>
        <time>2013-07-04T11:15:10Z</time>
      </trkpt>
      <trkpt lat="49.62383" lon="1.46187">
        <ele>169</ele>
        <time>2013-07-04T11:15:17Z</time>
      </trkpt>
      <trkpt lat="49.62378" lon="1.46176">
        <ele>169</ele>
        <time>2013-07-04T11:15:24Z</time>
      </trkpt>
      <trkpt lat="49.62372" lon="1.46165">
        <ele>169</ele>
        <time>2013-07-04T11:15:32Z</time>
      </trkpt>
      <trkpt lat="49.62365" lon="1.46154">
        <ele>169</ele>
        <time>2013-07-04T11:15:41Z</time>
      </trkpt>
      <trkpt lat="49.62359" lon="1.46143">
        <ele>169</ele>
        <time>2013-07-04T11:15:49Z</time>
      </trkpt>
      <trkpt lat="49.62354" lon="1.46131">
        <ele>169</ele>
        <time>2013-07-04T11:15:57Z</time>
      </trkpt>
      <trkpt lat="49.62348" lon="1.46118">
        <ele>169</ele>
        <time>2013-07-04T11:16:05Z</time>
      </trkpt>
      <trkpt lat="49.62341" lon="1.46107">
        <ele>169</ele>
        <time>2013-07-04T11:16:13Z</time>
      </trkpt>
      <trkpt lat="49.62335" lon="1.46095">
        <ele>169</ele>
        <time>2013-07-04T11:16:21Z</time>
      </trkpt>
      <trkpt lat="49.62327" lon="1.46084">
        <ele>169</ele>
        <time>2013-07-04T11:16:29Z</time>
      </trkpt>
      <trkpt lat="49.6232" lon="1.46074">
        <ele>169</ele>
        <time>2013-07-04T11:16:37Z</time>
      </trkpt>
      <trkpt lat="49.62314" lon="1.46063">
        <ele>169</ele>
        <time>2013-07-04T11:16:45Z</time>
      </trkpt>
      <trkpt lat="49.62308" lon="1.46053">
        <ele>169</ele>
        <time>2013-07-04T11:16:53Z</time>
      </trkpt>
      <trkpt lat="49.62301" lon="1.46042">
        <ele>169</ele>
        <time>2013-07-04T11:17:01Z</time>
      </trkpt>
      <trkpt lat="49.62295" lon="1.46029">
        <ele>169</ele>
        <time>2013-07-04T11:17:09Z</time>
      </trkpt>
      <trkpt lat="49.62291" lon="1.46016">
        <ele>169</ele>
        <time>2013-07-04T11:17:18Z</time>
      </trkpt>
      <trkpt lat="49.62287" lon="1.46003">
        <ele>164</ele>
        <time>2013-07-04T11:17:26Z</time>
      </trkpt>
      <trkpt lat="49.62283" lon="1.45991">
        <ele>164</ele>
        <time>2013-07-04T11:17:34Z</time>
      </trkpt>
      <trkpt lat="49.62278" lon="1.45978">
        <ele>164</ele>
        <time>2013-07-04T11:17:43Z</time>
      </trkpt>
      <trkpt lat="49.62275" lon="1.45964">
        <ele>164</ele>
        <time>2013-07-04T11:17:53Z</time>
      </trkpt>
      <trkpt lat="49.62273" lon="1.4595">
        <ele>164</ele>
        <time>2013-07-04T11:18:01Z</time>
      </trkpt>
      <trkpt lat="49.6227" lon="1.45936">
        <ele>164</ele>
        <time>2013-07-04T11:18:09Z</time>
      </trkpt>
      <trkpt lat="49.62267" lon="1.45922">
        <ele>164</ele>
        <time>2013-07-04T11:18:17Z</time>
      </trkpt>
      <trkpt lat="49.62265" lon="1.45907">
        <ele>164</ele>
        <time>2013-07-04T11:18:26Z</time>
      </trkpt>
      <trkpt lat="49.62261" lon="1.45895">
        <ele>164</ele>
        <time>2013-07-04T11:18:35Z</time>
      </trkpt>
      <trkpt lat="49.62256" lon="1.45883">
        <ele>164</ele>
        <time>2013-07-04T11:18:44Z</time>
      </trkpt>
      <trkpt lat="49.6225" lon="1.45871">
        <ele>164</ele>
        <time>2013-07-04T11:18:53Z</time>
      </trkpt>
      <trkpt lat="49.62243" lon="1.4586">
        <ele>164</ele>
        <time>2013-07-04T11:19:01Z</time>
      </trkpt>
      <trkpt lat="49.62237" lon="1.4585">
        <ele>164</ele>
        <time>2013-07-04T11:19:09Z</time>
      </trkpt>
      <trkpt lat="49.62231" lon="1.45838">
        <ele>164</ele>
        <time>2013-07-04T11:19:17Z</time>
      </trkpt>
      <trkpt lat="49.62224" lon="1.45828">
        <ele>164</ele>
        <time>2013-07-04T11:19:25Z</time>
      </trkpt>
      <trkpt lat="49.62218" lon="1.45817">
        <ele>164</ele>
        <time>2013-07-04T11:19:34Z</time>
      </trkpt>
      <trkpt lat="49.62212" lon="1.45805">
        <ele>164</ele>
        <time>2013-07-04T11:19:44Z</time>
      </trkpt>
      <trkpt lat="49.62207" lon="1.45793">
        <ele>164</ele>
        <time>2013-07-04T11:19:52Z</time>
      </trkpt>
      <trkpt lat="49.62201" lon="1.45781">
        <ele>164</ele>
        <time>2013-07-04T11:20:00Z</time>
      </trkpt>
      <trkpt lat="49.62196" lon="1.45769">
        <ele>171</ele>
        <time>2013-07-04T11:20:17Z</time>
      </trkpt>
      <trkpt lat="49.62189" lon="1.45758">
        <ele>171</ele>
        <time>2013-07-04T11:20:27Z</time>
      </trkpt>
      <trkpt lat="49.62183" lon="1.45747">
        <ele>171</ele>
        <time>2013-07-04T11:20:37Z</time>
      </trkpt>
      <trkpt lat="49.62175" lon="1.45739">
        <ele>171</ele>
        <time>2013-07-04T11:20:47Z</time>
      </trkpt>
      <trkpt lat="49.62166" lon="1.45733">
        <ele>171</ele>
        <time>2013-07-04T11:20:56Z</time>
      </trkpt>
      <trkpt lat="49.62158" lon="1.45725">
        <ele>171</ele>
        <time>2013-07-04T11:21:04Z</time>
      </trkpt>
      <trkpt lat="49.62151" lon="1.45715">
        <ele>171</ele>
        <time>2013-07-04T11:21:15Z</time>
      </trkpt>
      <trkpt lat="49.62143" lon="1.45707">
        <ele>171</ele>
        <time>2013-07-04T11:21:24Z</time>
      </trkpt>
      <trkpt lat="49.62136" lon="1.45697">
        <ele>171</ele>
        <time>2013-07-04T11:21:36Z</time>
      </trkpt>
      <trkpt lat="49.6213" lon="1.45687">
        <ele>171</ele>
        <time>2013-07-04T11:21:57Z</time>
      </trkpt>
      <trkpt lat="49.62121" lon="1.45679">
        <ele>171</ele>
        <time>2013-07-04T11:22:14Z</time>
      </trkpt>
      <trkpt lat="49.62114" lon="1.45671">
        <ele>171</ele>
        <time>2013-07-04T11:22:23Z</time>
      </trkpt>
      <trkpt lat="49.62107" lon="1.45662">
        <ele>171</ele>
        <time>2013-07-04T11:22:32Z</time>
      </trkpt>
      <trkpt lat="49.62099" lon="1.45653">
        <ele>171</ele>
        <time>2013-07-04T11:22:41Z</time>
      </trkpt>
      <trkpt lat="49.62092" lon="1.45643">
        <ele>171</ele>
        <time>2013-07-04T11:22:50Z</time>
      </trkpt>
      <trkpt lat="49.62085" lon="1.45634">
        <ele>171</ele>
        <time>2013-07-04T11:22:58Z</time>
      </trkpt>
      <trkpt lat="49.62078" lon="1.45624">
        <ele>171</ele>
        <time>2013-07-04T11:23:06Z</time>
      </trkpt>
      <trkpt lat="49.62071" lon="1.45614">
        <ele>166</ele>
        <time>2013-07-04T11:23:15Z</time>
      </trkpt>
      <trkpt lat="49.62064" lon="1.45603">
        <ele>166</ele>
        <time>2013-07-04T11:23:26Z</time>
      </trkpt>
      <trkpt lat="49.6206" lon="1.4559">
        <ele>166</ele>
        <time>2013-07-04T11:59:33Z</time>
      </trkpt>
      <trkpt lat="49.62054" lon="1.45579">
        <ele>166</ele>
        <time>2013-07-04T11:59:43Z</time>
      </trkpt>
      <trkpt lat="49.62047" lon="1.45568">
        <ele>161</ele>
        <time>2013-07-04T11:59:56Z</time>
      </trkpt>
      <trkpt lat="49.6204" lon="1.45559">
        <ele>161</ele>
        <time>2013-07-04T12:00:20Z</time>
      </trkpt>
      <trkpt lat="49.62034" lon="1.45548">
        <ele>161</ele>
        <time>2013-07-04T12:00:28Z</time>
      </trkpt>
      <trkpt lat="49.62029" lon="1.45536">
        <ele>161</ele>
        <time>2013-07-04T12:00:36Z</time>
      </trkpt>
      <trkpt lat="49.62023" lon="1.45525">
        <ele>161</ele>
        <time>2013-07-04T12:00:44Z</time>
      </trkpt>
      <trkpt lat="49.62018" lon="1.45512">
        <ele>161</ele>
        <time>2013-07-04T12:00:53Z</time>
      </trkpt>
      <trkpt lat="49.62012" lon="1.455">
        <ele>161</ele>
        <time>2013-07-04T12:01:01Z</time>
      </trkpt>
      <trkpt lat="49.62008" lon="1.45486">
        <ele>161</ele>
        <time>2013-07-04T12:01:10Z</time>
      </trkpt>
      <trkpt lat="49.62002" lon="1.45473">
        <ele>161</ele>
        <time>2013-07-04T12:01:19Z</time>
      </trkpt>
      <trkpt lat="49.61999" lon="1.4546">
        <ele>161</ele>
        <time>2013-07-04T12:01:39Z</time>
      </trkpt>
      <trkpt lat="49.61993" lon="1.45446">
        <ele>161</ele>
        <time>2013-07-04T12:01:51Z</time>
      </trkpt>
      <trkpt lat="49.61987" lon="1.45435">
        <ele>161</ele>
        <time>2013-07-04T12:01:59Z</time>
      </trkpt>
      <trkpt lat="49.61982" lon="1.45423">
        <ele>161</ele>
        <time>2013-07-04T12:02:07Z</time>
      </trkpt>
      <trkpt lat="49.61975" lon="1.45412">
        <ele>161</ele>
        <time>2013-07-04T12:02:15Z</time>
      </trkpt>
      <trkpt lat="49.61969" lon="1.45401">
        <ele>161</ele>
        <time>2013-07-04T12:02:24Z</time>
      </trkpt>
      <trkpt lat="49.61962" lon="1.45391">
        <ele>161</ele>
        <time>2013-07-04T12:02:32Z</time>
      </trkpt>
      <trkpt lat="49.61956" lon="1.45382">
        <ele>161</ele>
        <time>2013-07-04T12:02:40Z</time>
      </trkpt>
      <trkpt lat="49.61949" lon="1.45372">
        <ele>161</ele>
        <time>2013-07-04T12:02:48Z</time>
      </trkpt>
      <trkpt lat="49.61941" lon="1.45364">
        <ele>161</ele>
        <time>2013-07-04T12:02:55Z</time>
      </trkpt>
      <trkpt lat="49.61933" lon="1.45356">
        <ele>161</ele>
        <time>2013-07-04T12:03:03Z</time>
      </trkpt>
      <trkpt lat="49.61925" lon="1.45347">
        <ele>161</ele>
        <time>2013-07-04T12:03:11Z</time>
      </trkpt>
      <trkpt lat="49.61915" lon="1.45341">
        <ele>161</ele>
        <time>2013-07-04T12:03:21Z</time>
      </trkpt>
      <trkpt lat="49.61908" lon="1.45332">
        <ele>161</ele>
        <time>2013-07-04T12:03:32Z</time>
      </trkpt>
      <trkpt lat="49.619" lon="1.45324">
        <ele>161</ele>
        <time>2013-07-04T12:03:46Z</time>
      </trkpt>
      <trkpt lat="49.61893" lon="1.45315">
        <ele>161</ele>
        <time>2013-07-04T12:03:57Z</time>
      </trkpt>
      <trkpt lat="49.61885" lon="1.45306">
        <ele>161</ele>
        <time>2013-07-04T12:04:07Z</time>
      </trkpt>
      <trkpt lat="49.61877" lon="1.45299">
        <ele>161</ele>
        <time>2013-07-04T12:04:16Z</time>
      </trkpt>
      <trkpt lat="49.6187" lon="1.4529">
        <ele>161</ele>
        <time>2013-07-04T12:04:24Z</time>
      </trkpt>
      <trkpt lat="49.61862" lon="1.45281">
        <ele>161</ele>
        <time>2013-07-04T12:04:33Z</time>
      </trkpt>
      <trkpt lat="49.61855" lon="1.45271">
        <ele>161</ele>
        <time>2013-07-04T12:04:42Z</time>
      </trkpt>
      <trkpt lat="49.61849" lon="1.45261">
        <ele>161</ele>
        <time>2013-07-04T12:04:51Z</time>
      </trkpt>
      <trkpt lat="49.61842" lon="1.45251">
        <ele>161</ele>
        <time>2013-07-04T12:05:00Z</time>
      </trkpt>
      <trkpt lat="49.61836" lon="1.45241">
        <ele>161</ele>
        <time>2013-07-04T12:05:10Z</time>
      </trkpt>
      <trkpt lat="49.61831" lon="1.4523">
        <ele>161</ele>
        <time>2013-07-04T12:05:20Z</time>
      </trkpt>
      <trkpt lat="49.61825" lon="1.45219">
        <ele>161</ele>
        <time>2013-07-04T12:05:30Z</time>
      </trkpt>
      <trkpt lat="49.61819" lon="1.45208">
        <ele>161</ele>
        <time>2013-07-04T12:05:42Z</time>
      </trkpt>
      <trkpt lat="49.61813" lon="1.45197">
        <ele>166</ele>
        <time>2013-07-04T12:05:51Z</time>
      </trkpt>
      <trkpt lat="49.61807" lon="1.45187">
        <ele>166</ele>
        <time>2013-07-04T12:06:03Z</time>
      </trkpt>
      <trkpt lat="49.61801" lon="1.45175">
        <ele>166</ele>
        <time>2013-07-04T12:06:18Z</time>
      </trkpt>
      <trkpt lat="49.61796" lon="1.45163">
        <ele>166</ele>
        <time>2013-07-04T12:06:30Z</time>
      </trkpt>
      <trkpt lat="49.6179" lon="1.45152">
        <ele>166</ele>
        <time>2013-07-04T12:06:44Z</time>
      </trkpt>
      <trkpt lat="49.61783" lon="1.45142">
        <ele>166</ele>
        <time>2013-07-04T12:06:55Z</time>
      </trkpt>
      <trkpt lat="49.61773" lon="1.45146">
        <ele>166</ele>
        <time>2013-07-04T12:07:15Z</time>
      </trkpt>
      <trkpt lat="49.61767" lon="1.45156">
        <ele>166</ele>
        <time>2013-07-04T12:07:21Z</time>
      </trkpt>
      <trkpt lat="49.61758" lon="1.45165">
        <ele>166</ele>
        <time>2013-07-04T12:07:28Z</time>
      </trkpt>
      <trkpt lat="49.61751" lon="1.45174">
        <ele>166</ele>
        <time>2013-07-04T12:08:05Z</time>
      </trkpt>
      <trkpt lat="49.61742" lon="1.45183">
        <ele>166</ele>
        <time>2013-07-04T12:08:12Z</time>
      </trkpt>
      <trkpt lat="49.61733" lon="1.45192">
        <ele>166</ele>
        <time>2013-07-04T12:08:19Z</time>
      </trkpt>
      <trkpt lat="49.61725" lon="1.45201">
        <ele>166</ele>
        <time>2013-07-04T12:08:26Z</time>
      </trkpt>
      <trkpt lat="49.61718" lon="1.45212">
        <ele>166</ele>
        <time>2013-07-04T12:08:34Z</time>
      </trkpt>
      <trkpt lat="49.61709" lon="1.45218">
        <ele>166</ele>
        <time>2013-07-04T12:08:40Z</time>
      </trkpt>
      <trkpt lat="49.61701" lon="1.45227">
        <ele>166</ele>
        <time>2013-07-04T12:08:48Z</time>
      </trkpt>
      <trkpt lat="49.61694" lon="1.45237">
        <ele>166</ele>
        <time>2013-07-04T12:08:55Z</time>
      </trkpt>
      <trkpt lat="49.61686" lon="1.45245">
        <ele>166</ele>
        <time>2013-07-04T12:09:02Z</time>
      </trkpt>
      <trkpt lat="49.61679" lon="1.45254">
        <ele>166</ele>
        <time>2013-07-04T12:09:10Z</time>
      </trkpt>
      <trkpt lat="49.61673" lon="1.45265">
        <ele>166</ele>
        <time>2013-07-04T12:09:17Z</time>
      </trkpt>
      <trkpt lat="49.61664" lon="1.45273">
        <ele>166</ele>
        <time>2013-07-04T12:09:24Z</time>
      </trkpt>
      <trkpt lat="49.61657" lon="1.45283">
        <ele>166</ele>
        <time>2013-07-04T12:09:31Z</time>
      </trkpt>
      <trkpt lat="49.61649" lon="1.45291">
        <ele>166</ele>
        <time>2013-07-04T12:09:38Z</time>
      </trkpt>
      <trkpt lat="49.61642" lon="1.45302">
        <ele>166</ele>
        <time>2013-07-04T12:09:46Z</time>
      </trkpt>
      <trkpt lat="49.61634" lon="1.4531">
        <ele>166</ele>
        <time>2013-07-04T12:09:53Z</time>
      </trkpt>
      <trkpt lat="49.61627" lon="1.45319">
        <ele>166</ele>
        <time>2013-07-04T12:10:00Z</time>
      </trkpt>
      <trkpt lat="49.6162" lon="1.45328">
        <ele>166</ele>
        <time>2013-07-04T12:10:07Z</time>
      </trkpt>
      <trkpt lat="49.61612" lon="1.45338">
        <ele>166</ele>
        <time>2013-07-04T12:10:15Z</time>
      </trkpt>
      <trkpt lat="49.61604" lon="1.45346">
        <ele>166</ele>
        <time>2013-07-04T12:10:22Z</time>
      </trkpt>
      <trkpt lat="49.61596" lon="1.45354">
        <ele>166</ele>
        <time>2013-07-04T12:10:29Z</time>
      </trkpt>
      <trkpt lat="49.61588" lon="1.45362">
        <ele>166</ele>
        <time>2013-07-04T12:10:36Z</time>
      </trkpt>
      <trkpt lat="49.6158" lon="1.45371">
        <ele>166</ele>
        <time>2013-07-04T12:10:43Z</time>
      </trkpt>
      <trkpt lat="49.61572" lon="1.45382">
        <ele>166</ele>
        <time>2013-07-04T12:10:51Z</time>
      </trkpt>
      <trkpt lat="49.61565" lon="1.45391">
        <ele>166</ele>
        <time>2013-07-04T12:10:58Z</time>
      </trkpt>
      <trkpt lat="49.61558" lon="1.45402">
        <ele>166</ele>
        <time>2013-07-04T12:11:06Z</time>
      </trkpt>
      <trkpt lat="49.61551" lon="1.4541">
        <ele>166</ele>
        <time>2013-07-04T12:11:13Z</time>
      </trkpt>
      <trkpt lat="49.61543" lon="1.45419">
        <ele>166</ele>
        <time>2013-07-04T12:11:21Z</time>
      </trkpt>
      <trkpt lat="49.61534" lon="1.45413">
        <ele>166</ele>
        <time>2013-07-04T12:11:30Z</time>
      </trkpt>
      <trkpt lat="49.61531" lon="1.454">
        <ele>166</ele>
        <time>2013-07-04T12:11:37Z</time>
      </trkpt>
      <trkpt lat="49.61527" lon="1.45386">
        <ele>166</ele>
        <time>2013-07-04T12:11:44Z</time>
      </trkpt>
      <trkpt lat="49.61525" lon="1.45372">
        <ele>166</ele>
        <time>2013-07-04T12:11:51Z</time>
      </trkpt>
      <trkpt lat="49.61521" lon="1.45358">
        <ele>166</ele>
        <time>2013-07-04T12:11:58Z</time>
      </trkpt>
      <trkpt lat="49.61517" lon="1.45345">
        <ele>166</ele>
        <time>2013-07-04T12:12:05Z</time>
      </trkpt>
      <trkpt lat="49.61513" lon="1.45331">
        <ele>166</ele>
        <time>2013-07-04T12:12:12Z</time>
      </trkpt>
      <trkpt lat="49.61511" lon="1.45318">
        <ele>166</ele>
        <time>2013-07-04T12:12:19Z</time>
      </trkpt>
      <trkpt lat="49.61509" lon="1.45304">
        <ele>166</ele>
        <time>2013-07-04T12:12:26Z</time>
      </trkpt>
      <trkpt lat="49.61505" lon="1.4529">
        <ele>166</ele>
        <time>2013-07-04T12:12:35Z</time>
      </trkpt>
      <trkpt lat="49.61501" lon="1.45277">
        <ele>166</ele>
        <time>2013-07-04T12:12:42Z</time>
      </trkpt>
      <trkpt lat="49.61498" lon="1.45264">
        <ele>166</ele>
        <time>2013-07-04T12:12:49Z</time>
      </trkpt>
      <trkpt lat="49.61496" lon="1.45249">
        <ele>166</ele>
        <time>2013-07-04T12:12:57Z</time>
      </trkpt>
      <trkpt lat="49.61493" lon="1.45235">
        <ele>166</ele>
        <time>2013-07-04T12:13:04Z</time>
      </trkpt>
      <trkpt lat="49.61491" lon="1.45222">
        <ele>166</ele>
        <time>2013-07-04T12:13:11Z</time>
      </trkpt>
      <trkpt lat="49.6149" lon="1.45207">
        <ele>166</ele>
        <time>2013-07-04T12:13:19Z</time>
      </trkpt>
      <trkpt lat="49.61489" lon="1.45192">
        <ele>166</ele>
        <time>2013-07-04T12:13:26Z</time>
      </trkpt>
      <trkpt lat="49.61488" lon="1.45177">
        <ele>166</ele>
        <time>2013-07-04T12:13:34Z</time>
      </trkpt>
      <trkpt lat="49.61485" lon="1.45162">
        <ele>166</ele>
        <time>2013-07-04T12:13:42Z</time>
      </trkpt>
      <trkpt lat="49.61484" lon="1.45147">
        <ele>166</ele>
        <time>2013-07-04T12:13:50Z</time>
      </trkpt>
      <trkpt lat="49.61482" lon="1.45133">
        <ele>166</ele>
        <time>2013-07-04T12:13:58Z</time>
      </trkpt>
      <trkpt lat="49.61479" lon="1.45117">
        <ele>166</ele>
        <time>2013-07-04T12:14:06Z</time>
      </trkpt>
      <trkpt lat="49.61478" lon="1.45103">
        <ele>166</ele>
        <time>2013-07-04T12:14:14Z</time>
      </trkpt>
      <trkpt lat="49.61477" lon="1.45089">
        <ele>166</ele>
        <time>2013-07-04T12:14:22Z</time>
      </trkpt>
      <trkpt lat="49.61474" lon="1.45073">
        <ele>166</ele>
        <time>2013-07-04T12:14:30Z</time>
      </trkpt>
      <trkpt lat="49.61472" lon="1.45059">
        <ele>166</ele>
        <time>2013-07-04T12:14:38Z</time>
      </trkpt>
      <trkpt lat="49.61471" lon="1.45045">
        <ele>166</ele>
        <time>2013-07-04T12:14:46Z</time>
      </trkpt>
      <trkpt lat="49.61468" lon="1.45029">
        <ele>166</ele>
        <time>2013-07-04T12:14:54Z</time>
      </trkpt>
      <trkpt lat="49.61467" lon="1.45014">
        <ele>166</ele>
        <time>2013-07-04T12:15:02Z</time>
      </trkpt>
      <trkpt lat="49.61465" lon="1.45">
        <ele>166</ele>
        <time>2013-07-04T12:15:10Z</time>
      </trkpt>
      <trkpt lat="49.61465" lon="1.44985">
        <ele>166</ele>
        <time>2013-07-04T12:15:17Z</time>
      </trkpt>
      <trkpt lat="49.61463" lon="1.44971">
        <ele>166</ele>
        <time>2013-07-04T12:15:25Z</time>
      </trkpt>
      <trkpt lat="49.61462" lon="1.44957">
        <ele>166</ele>
        <time>2013-07-04T12:15:33Z</time>
      </trkpt>
      <trkpt lat="49.6146" lon="1.44943">
        <ele>173</ele>
        <time>2013-07-04T12:15:41Z</time>
      </trkpt>
      <trkpt lat="49.61458" lon="1.44928">
        <ele>173</ele>
        <time>2013-07-04T12:15:51Z</time>
      </trkpt>
      <trkpt lat="49.61456" lon="1.44913">
        <ele>173</ele>
        <time>2013-07-04T12:16:00Z</time>
      </trkpt>
      <trkpt lat="49.61453" lon="1.44897">
        <ele>173</ele>
        <time>2013-07-04T12:16:09Z</time>
      </trkpt>
      <trkpt lat="49.6145" lon="1.44883">
        <ele>178</ele>
        <time>2013-07-04T12:16:19Z</time>
      </trkpt>
      <trkpt lat="49.61447" lon="1.44869">
        <ele>178</ele>
        <time>2013-07-04T12:16:29Z</time>
      </trkpt>
      <trkpt lat="49.61445" lon="1.44855">
        <ele>178</ele>
        <time>2013-07-04T12:16:39Z</time>
      </trkpt>
      <trkpt lat="49.61442" lon="1.44842">
        <ele>178</ele>
        <time>2013-07-04T12:16:49Z</time>
      </trkpt>
      <trkpt lat="49.61438" lon="1.44829">
        <ele>178</ele>
        <time>2013-07-04T12:16:59Z</time>
      </trkpt>
      <trkpt lat="49.61434" lon="1.44815">
        <ele>185</ele>
        <time>2013-07-04T12:17:09Z</time>
      </trkpt>
      <trkpt lat="49.61431" lon="1.44801">
        <ele>185</ele>
        <time>2013-07-04T12:17:20Z</time>
      </trkpt>
      <trkpt lat="49.61428" lon="1.44787">
        <ele>185</ele>
        <time>2013-07-04T12:17:32Z</time>
      </trkpt>
      <trkpt lat="49.61426" lon="1.44772">
        <ele>185</ele>
        <time>2013-07-04T12:17:43Z</time>
      </trkpt>
      <trkpt lat="49.61422" lon="1.44759">
        <ele>185</ele>
        <time>2013-07-04T12:17:54Z</time>
      </trkpt>
      <trkpt lat="49.61417" lon="1.44746">
        <ele>185</ele>
        <time>2013-07-04T12:18:05Z</time>
      </trkpt>
      <trkpt lat="49.61413" lon="1.44732">
        <ele>192</ele>
        <time>2013-07-04T12:18:16Z</time>
      </trkpt>
      <trkpt lat="49.61409" lon="1.44719">
        <ele>192</ele>
        <time>2013-07-04T12:18:27Z</time>
      </trkpt>
      <trkpt lat="49.61405" lon="1.44704">
        <ele>192</ele>
        <time>2013-07-04T12:18:38Z</time>
      </trkpt>
      <trkpt lat="49.61402" lon="1.4469">
        <ele>192</ele>
        <time>2013-07-04T12:18:49Z</time>
      </trkpt>
      <trkpt lat="49.61397" lon="1.44678">
        <ele>200</ele>
        <time>2013-07-04T12:18:59Z</time>
      </trkpt>
      <trkpt lat="49.61392" lon="1.44665">
        <ele>200</ele>
        <time>2013-07-04T12:19:10Z</time>
      </trkpt>
      <trkpt lat="49.61389" lon="1.44651">
        <ele>200</ele>
        <time>2013-07-04T12:19:20Z</time>
      </trkpt>
      <trkpt lat="49.61385" lon="1.44638">
        <ele>200</ele>
        <time>2013-07-04T12:19:31Z</time>
      </trkpt>
      <trkpt lat="49.61382" lon="1.44624">
        <ele>200</ele>
        <time>2013-07-04T12:19:43Z</time>
      </trkpt>
      <trkpt lat="49.61378" lon="1.44612">
        <ele>200</ele>
        <time>2013-07-04T12:19:53Z</time>
      </trkpt>
      <trkpt lat="49.61374" lon="1.44598">
        <ele>207</ele>
        <time>2013-07-04T12:20:05Z</time>
      </trkpt>
      <trkpt lat="49.6137" lon="1.44585">
        <ele>207</ele>
        <time>2013-07-04T12:20:14Z</time>
      </trkpt>
      <trkpt lat="49.61366" lon="1.44571">
        <ele>207</ele>
        <time>2013-07-04T12:20:24Z</time>
      </trkpt>
      <trkpt lat="49.61363" lon="1.44557">
        <ele>207</ele>
        <time>2013-07-04T12:20:32Z</time>
      </trkpt>
      <trkpt lat="49.61356" lon="1.44547">
        <ele>216</ele>
        <time>2013-07-04T12:20:42Z</time>
      </trkpt>
      <trkpt lat="49.61357" lon="1.44533">
        <ele>216</ele>
        <time>2013-07-04T12:20:54Z</time>
      </trkpt>
      <trkpt lat="49.61352" lon="1.4452">
        <ele>216</ele>
        <time>2013-07-04T12:21:07Z</time>
      </trkpt>
      <trkpt lat="49.61347" lon="1.44508">
        <ele>216</ele>
        <time>2013-07-04T12:21:15Z</time>
      </trkpt>
      <trkpt lat="49.6134" lon="1.44496">
        <ele>216</ele>
        <time>2013-07-04T12:21:22Z</time>
      </trkpt>
      <trkpt lat="49.61339" lon="1.44481">
        <ele>221</ele>
        <time>2013-07-04T12:21:33Z</time>
      </trkpt>
      <trkpt lat="49.61338" lon="1.44466">
        <ele>221</ele>
        <time>2013-07-04T12:21:45Z</time>
      </trkpt>
      <trkpt lat="49.61341" lon="1.4445">
        <ele>221</ele>
        <time>2013-07-04T12:21:55Z</time>
      </trkpt>
      <trkpt lat="49.61345" lon="1.44433">
        <ele>216</ele>
        <time>2013-07-04T12:22:05Z</time>
      </trkpt>
      <trkpt lat="49.61341" lon="1.44419">
        <ele>224</ele>
        <time>2013-07-04T12:22:17Z</time>
      </trkpt>
      <trkpt lat="49.61339" lon="1.44404">
        <ele>224</ele>
        <time>2013-07-04T12:22:26Z</time>
      </trkpt>
      <trkpt lat="49.61334" lon="1.44393">
        <ele>224</ele>
        <time>2013-07-04T12:22:35Z</time>
      </trkpt>
      <trkpt lat="49.61334" lon="1.44378">
        <ele>230</ele>
        <time>2013-07-04T12:22:43Z</time>
      </trkpt>
      <trkpt lat="49.61331" lon="1.44364">
        <ele>230</ele>
        <time>2013-07-04T12:22:53Z</time>
      </trkpt>
      <trkpt lat="49.61327" lon="1.4435">
        <ele>230</ele>
        <time>2013-07-04T12:23:02Z</time>
      </trkpt>
      <trkpt lat="49.61325" lon="1.44336">
        <ele>230</ele>
        <time>2013-07-04T12:23:11Z</time>
      </trkpt>
      <trkpt lat="49.61324" lon="1.44321">
        <ele>223</ele>
        <time>2013-07-04T12:23:20Z</time>
      </trkpt>
      <trkpt lat="49.6132" lon="1.44308">
        <ele>223</ele>
        <time>2013-07-04T12:23:28Z</time>
      </trkpt>
      <trkpt lat="49.61314" lon="1.44296">
        <ele>223</ele>
        <time>2013-07-04T12:23:38Z</time>
      </trkpt>
      <trkpt lat="49.61312" lon="1.44283">
        <ele>223</ele>
        <time>2013-07-04T12:23:46Z</time>
      </trkpt>
      <trkpt lat="49.61308" lon="1.44269">
        <ele>223</ele>
        <time>2013-07-04T12:23:54Z</time>
      </trkpt>
      <trkpt lat="49.61306" lon="1.44256">
        <ele>228</ele>
        <time>2013-07-04T12:24:02Z</time>
      </trkpt>
      <trkpt lat="49.61303" lon="1.44243">
        <ele>228</ele>
        <time>2013-07-04T12:24:11Z</time>
      </trkpt>
      <trkpt lat="49.61301" lon="1.44228">
        <ele>228</ele>
        <time>2013-07-04T12:24:19Z</time>
      </trkpt>
      <trkpt lat="49.61298" lon="1.44215">
        <ele>228</ele>
        <time>2013-07-04T12:24:27Z</time>
      </trkpt>
      <trkpt lat="49.61297" lon="1.442">
        <ele>228</ele>
        <time>2013-07-04T12:24:35Z</time>
      </trkpt>
      <trkpt lat="49.61294" lon="1.44187">
        <ele>235</ele>
        <time>2013-07-04T12:24:44Z</time>
      </trkpt>
      <trkpt lat="49.61293" lon="1.44172">
        <ele>235</ele>
        <time>2013-07-04T12:24:53Z</time>
      </trkpt>
      <trkpt lat="49.61291" lon="1.44159">
        <ele>240</ele>
        <time>2013-07-04T12:25:01Z</time>
      </trkpt>
      <trkpt lat="49.61291" lon="1.44145">
        <ele>240</ele>
        <time>2013-07-04T12:25:10Z</time>
      </trkpt>
      <trkpt lat="49.6129" lon="1.44129">
        <ele>240</ele>
        <time>2013-07-04T12:25:18Z</time>
      </trkpt>
      <trkpt lat="49.61292" lon="1.44115">
        <ele>240</ele>
        <time>2013-07-04T12:25:27Z</time>
      </trkpt>
      <trkpt lat="49.61293" lon="1.44101">
        <ele>240</ele>
        <time>2013-07-04T12:25:38Z</time>
      </trkpt>
      <trkpt lat="49.61289" lon="1.44088">
        <ele>240</ele>
        <time>2013-07-04T12:26:18Z</time>
      </trkpt>
      <trkpt lat="49.6129" lon="1.44073">
        <ele>240</ele>
        <time>2013-07-04T12:28:31Z</time>
      </trkpt>
      <trkpt lat="49.61287" lon="1.44058">
        <ele>240</ele>
        <time>2013-07-04T12:28:42Z</time>
      </trkpt>
      <trkpt lat="49.61285" lon="1.44045">
        <ele>235</ele>
        <time>2013-07-04T12:28:50Z</time>
      </trkpt>
      <trkpt lat="49.6128" lon="1.44032">
        <ele>235</ele>
        <time>2013-07-04T12:28:58Z</time>
      </trkpt>
      <trkpt lat="49.61275" lon="1.44019">
        <ele>235</ele>
        <time>2013-07-04T12:29:12Z</time>
      </trkpt>
      <trkpt lat="49.61272" lon="1.44005">
        <ele>235</ele>
        <time>2013-07-04T12:29:20Z</time>
      </trkpt>
      <trkpt lat="49.61269" lon="1.43992">
        <ele>235</ele>
        <time>2013-07-04T12:29:28Z</time>
      </trkpt>
      <trkpt lat="49.61266" lon="1.43978">
        <ele>235</ele>
        <time>2013-07-04T12:29:36Z</time>
      </trkpt>
      <trkpt lat="49.61261" lon="1.43965">
        <ele>235</ele>
        <time>2013-07-04T12:29:44Z</time>
      </trkpt>
      <trkpt lat="49.61257" lon="1.43952">
        <ele>235</ele>
        <time>2013-07-04T12:29:51Z</time>
      </trkpt>
      <trkpt lat="49.61253" lon="1.4394">
        <ele>235</ele>
        <time>2013-07-04T12:29:59Z</time>
      </trkpt>
      <trkpt lat="49.61248" lon="1.43926">
        <ele>235</ele>
        <time>2013-07-04T12:30:07Z</time>
      </trkpt>
      <trkpt lat="49.61242" lon="1.43915">
        <ele>235</ele>
        <time>2013-07-04T12:30:15Z</time>
      </trkpt>
      <trkpt lat="49.61238" lon="1.43902">
        <ele>235</ele>
        <time>2013-07-04T12:30:22Z</time>
      </trkpt>
      <trkpt lat="49.61233" lon="1.4389">
        <ele>235</ele>
        <time>2013-07-04T12:30:29Z</time>
      </trkpt>
      <trkpt lat="49.61228" lon="1.43877">
        <ele>235</ele>
        <time>2013-07-04T12:30:37Z</time>
      </trkpt>
      <trkpt lat="49.61224" lon="1.43864">
        <ele>235</ele>
        <time>2013-07-04T12:30:44Z</time>
      </trkpt>
      <trkpt lat="49.61221" lon="1.43849">
        <ele>235</ele>
        <time>2013-07-04T12:30:52Z</time>
      </trkpt>
      <trkpt lat="49.61219" lon="1.43835">
        <ele>235</ele>
        <time>2013-07-04T12:31:00Z</time>
      </trkpt>
      <trkpt lat="49.61216" lon="1.4382">
        <ele>235</ele>
        <time>2013-07-04T12:31:08Z</time>
      </trkpt>
      <trkpt lat="49.61213" lon="1.43807">
        <ele>235</ele>
        <time>2013-07-04T12:31:16Z</time>
      </trkpt>
      <trkpt lat="49.61212" lon="1.43792">
        <ele>235</ele>
        <time>2013-07-04T12:31:24Z</time>
      </trkpt>
      <trkpt lat="49.61209" lon="1.43778">
        <ele>235</ele>
        <time>2013-07-04T12:31:32Z</time>
      </trkpt>
      <trkpt lat="49.61207" lon="1.43763">
        <ele>235</ele>
        <time>2013-07-04T12:31:40Z</time>
      </trkpt>
      <trkpt lat="49.61201" lon="1.43774">
        <ele>235</ele>
        <time>2013-07-04T12:32:08Z</time>
      </trkpt>
      <trkpt lat="49.61195" lon="1.43785">
        <ele>235</ele>
        <time>2013-07-04T12:32:16Z</time>
      </trkpt>
      <trkpt lat="49.61188" lon="1.43797">
        <ele>235</ele>
        <time>2013-07-04T12:32:25Z</time>
      </trkpt>
      <trkpt lat="49.6118" lon="1.43808">
        <ele>235</ele>
        <time>2013-07-04T12:32:33Z</time>
      </trkpt>
      <trkpt lat="49.61174" lon="1.43819">
        <ele>235</ele>
        <time>2013-07-04T12:32:42Z</time>
      </trkpt>
      <trkpt lat="49.61166" lon="1.43829">
        <ele>235</ele>
        <time>2013-07-04T12:32:49Z</time>
      </trkpt>
      <trkpt lat="49.61159" lon="1.43839">
        <ele>235</ele>
        <time>2013-07-04T12:32:59Z</time>
      </trkpt>
      <trkpt lat="49.61151" lon="1.43847">
        <ele>225</ele>
        <time>2013-07-04T12:33:10Z</time>
      </trkpt>
      <trkpt lat="49.61144" lon="1.43855">
        <ele>217</ele>
        <time>2013-07-04T12:33:18Z</time>
      </trkpt>
      <trkpt lat="49.61133" lon="1.4386">
        <ele>217</ele>
        <time>2013-07-04T12:33:27Z</time>
      </trkpt>
      <trkpt lat="49.61125" lon="1.43867">
        <ele>217</ele>
        <time>2013-07-04T12:33:33Z</time>
      </trkpt>
      <trkpt lat="49.6112" lon="1.4388">
        <ele>217</ele>
        <time>2013-07-04T12:33:41Z</time>
      </trkpt>
      <trkpt lat="49.61113" lon="1.43889">
        <ele>217</ele>
        <time>2013-07-04T12:33:47Z</time>
      </trkpt>
      <trkpt lat="49.61112" lon="1.43903">
        <ele>224</ele>
        <time>2013-07-04T12:33:54Z</time>
      </trkpt>
      <trkpt lat="49.61109" lon="1.43917">
        <ele>224</ele>
        <time>2013-07-04T12:34:01Z</time>
      </trkpt>
      <trkpt lat="49.61108" lon="1.43932">
        <ele>224</ele>
        <time>2013-07-04T12:34:10Z</time>
      </trkpt>
      <trkpt lat="49.61104" lon="1.43946">
        <ele>224</ele>
        <time>2013-07-04T12:34:17Z</time>
      </trkpt>
      <trkpt lat="49.61101" lon="1.4396">
        <ele>224</ele>
        <time>2013-07-04T12:34:24Z</time>
      </trkpt>
      <trkpt lat="49.61101" lon="1.43976">
        <ele>224</ele>
        <time>2013-07-04T12:34:32Z</time>
      </trkpt>
      <trkpt lat="49.61099" lon="1.4399">
        <ele>224</ele>
        <time>2013-07-04T12:34:41Z</time>
      </trkpt>
      <trkpt lat="49.61097" lon="1.44005">
        <ele>218</ele>
        <time>2013-07-04T12:34:50Z</time>
      </trkpt>
      <trkpt lat="49.61094" lon="1.44019">
        <ele>218</ele>
        <time>2013-07-04T12:34:59Z</time>
      </trkpt>
      <trkpt lat="49.61094" lon="1.44033">
        <ele>212</ele>
        <time>2013-07-04T12:35:07Z</time>
      </trkpt>
      <trkpt lat="49.6109" lon="1.44048">
        <ele>212</ele>
        <time>2013-07-04T12:35:16Z</time>
      </trkpt>
      <trkpt lat="49.61087" lon="1.44062">
        <ele>212</ele>
        <time>2013-07-04T12:35:22Z</time>
      </trkpt>
      <trkpt lat="49.61081" lon="1.44074">
        <ele>212</ele>
        <time>2013-07-04T12:35:30Z</time>
      </trkpt>
      <trkpt lat="49.61075" lon="1.44085">
        <ele>228</ele>
        <time>2013-07-04T12:35:37Z</time>
      </trkpt>
      <trkpt lat="49.61072" lon="1.44099">
        <ele>237</ele>
        <time>2013-07-04T12:35:43Z</time>
      </trkpt>
      <trkpt lat="49.61066" lon="1.44109">
        <ele>237</ele>
        <time>2013-07-04T12:35:49Z</time>
      </trkpt>
      <trkpt lat="49.61062" lon="1.44122">
        <ele>237</ele>
        <time>2013-07-04T12:35:57Z</time>
      </trkpt>
      <trkpt lat="49.61056" lon="1.44134">
        <ele>221</ele>
        <time>2013-07-04T12:36:17Z</time>
      </trkpt>
      <trkpt lat="49.61049" lon="1.44144">
        <ele>221</ele>
        <time>2013-07-04T12:36:27Z</time>
      </trkpt>
      <trkpt lat="49.61041" lon="1.44152">
        <ele>221</ele>
        <time>2013-07-04T12:36:36Z</time>
      </trkpt>
      <trkpt lat="49.61033" lon="1.44161">
        <ele>221</ele>
        <time>2013-07-04T12:36:44Z</time>
      </trkpt>
      <trkpt lat="49.61026" lon="1.44171">
        <ele>221</ele>
        <time>2013-07-04T12:36:51Z</time>
      </trkpt>
      <trkpt lat="49.61019" lon="1.44181">
        <ele>215</ele>
        <time>2013-07-04T12:36:58Z</time>
      </trkpt>
      <trkpt lat="49.61012" lon="1.4419">
        <ele>215</ele>
        <time>2013-07-04T12:37:05Z</time>
      </trkpt>
      <trkpt lat="49.61005" lon="1.44199">
        <ele>215</ele>
        <time>2013-07-04T12:37:12Z</time>
      </trkpt>
      <trkpt lat="49.60997" lon="1.44208">
        <ele>215</ele>
        <time>2013-07-04T12:37:20Z</time>
      </trkpt>
      <trkpt lat="49.6099" lon="1.44217">
        <ele>215</ele>
        <time>2013-07-04T12:37:28Z</time>
      </trkpt>
      <trkpt lat="49.60983" lon="1.44227">
        <ele>209</ele>
        <time>2013-07-04T12:37:35Z</time>
      </trkpt>
      <trkpt lat="49.60976" lon="1.44237">
        <ele>209</ele>
        <time>2013-07-04T12:37:42Z</time>
      </trkpt>
      <trkpt lat="49.60969" lon="1.44246">
        <ele>203</ele>
        <time>2013-07-04T12:37:50Z</time>
      </trkpt>
      <trkpt lat="49.60962" lon="1.44255">
        <ele>203</ele>
        <time>2013-07-04T12:37:57Z</time>
      </trkpt>
      <trkpt lat="49.60955" lon="1.44264">
        <ele>203</ele>
        <time>2013-07-04T12:38:04Z</time>
      </trkpt>
      <trkpt lat="49.60948" lon="1.44275">
        <ele>203</ele>
        <time>2013-07-04T12:38:12Z</time>
      </trkpt>
      <trkpt lat="49.60941" lon="1.44285">
        <ele>203</ele>
        <time>2013-07-04T12:38:20Z</time>
      </trkpt>
      <trkpt lat="49.60933" lon="1.44296">
        <ele>203</ele>
        <time>2013-07-04T12:38:28Z</time>
      </trkpt>
      <trkpt lat="49.60926" lon="1.44305">
        <ele>197</ele>
        <time>2013-07-04T12:38:36Z</time>
      </trkpt>
      <trkpt lat="49.60919" lon="1.44315">
        <ele>197</ele>
        <time>2013-07-04T12:38:44Z</time>
      </trkpt>
      <trkpt lat="49.60912" lon="1.44326">
        <ele>197</ele>
        <time>2013-07-04T12:38:52Z</time>
      </trkpt>
      <trkpt lat="49.60906" lon="1.44336">
        <ele>197</ele>
        <time>2013-07-04T12:38:59Z</time>
      </trkpt>
      <trkpt lat="49.60897" lon="1.44344">
        <ele>197</ele>
        <time>2013-07-04T12:39:07Z</time>
      </trkpt>
      <trkpt lat="49.6089" lon="1.44354">
        <ele>197</ele>
        <time>2013-07-04T12:39:15Z</time>
      </trkpt>
      <trkpt lat="49.60881" lon="1.44362">
        <ele>192</ele>
        <time>2013-07-04T12:39:23Z</time>
      </trkpt>
      <trkpt lat="49.60873" lon="1.44368">
        <ele>192</ele>
        <time>2013-07-04T12:39:30Z</time>
      </trkpt>
      <trkpt lat="49.60864" lon="1.44377">
        <ele>192</ele>
        <time>2013-07-04T12:39:38Z</time>
      </trkpt>
      <trkpt lat="49.60857" lon="1.44387">
        <ele>192</ele>
        <time>2013-07-04T12:39:46Z</time>
      </trkpt>
      <trkpt lat="49.60849" lon="1.44396">
        <ele>192</ele>
        <time>2013-07-04T12:39:54Z</time>
      </trkpt>
      <trkpt lat="49.60841" lon="1.44405">
        <ele>192</ele>
        <time>2013-07-04T12:40:02Z</time>
      </trkpt>
      <trkpt lat="49.60833" lon="1.44414">
        <ele>192</ele>
        <time>2013-07-04T12:40:10Z</time>
      </trkpt>
      <trkpt lat="49.60826" lon="1.44424">
        <ele>192</ele>
        <time>2013-07-04T12:40:18Z</time>
      </trkpt>
      <trkpt lat="49.60819" lon="1.44434">
        <ele>192</ele>
        <time>2013-07-04T12:40:26Z</time>
      </trkpt>
      <trkpt lat="49.6081" lon="1.44442">
        <ele>192</ele>
        <time>2013-07-04T12:40:34Z</time>
      </trkpt>
      <trkpt lat="49.60802" lon="1.44452">
        <ele>187</ele>
        <time>2013-07-04T12:40:42Z</time>
      </trkpt>
      <trkpt lat="49.60794" lon="1.4446">
        <ele>187</ele>
        <time>2013-07-04T12:40:50Z</time>
      </trkpt>
      <trkpt lat="49.60786" lon="1.44466">
        <ele>187</ele>
        <time>2013-07-04T12:40:57Z</time>
      </trkpt>
      <trkpt lat="49.60777" lon="1.44472">
        <ele>187</ele>
        <time>2013-07-04T12:41:04Z</time>
      </trkpt>
      <trkpt lat="49.60767" lon="1.44474">
        <ele>187</ele>
        <time>2013-07-04T12:41:12Z</time>
      </trkpt>
      <trkpt lat="49.60758" lon="1.44479">
        <ele>187</ele>
        <time>2013-07-04T12:41:19Z</time>
      </trkpt>
      <trkpt lat="49.60749" lon="1.44481">
        <ele>187</ele>
        <time>2013-07-04T12:41:27Z</time>
      </trkpt>
      <trkpt lat="49.60739" lon="1.44484">
        <ele>187</ele>
        <time>2013-07-04T12:41:35Z</time>
      </trkpt>
      <trkpt lat="49.60729" lon="1.44488">
        <ele>187</ele>
        <time>2013-07-04T12:41:43Z</time>
      </trkpt>
      <trkpt lat="49.6072" lon="1.4449">
        <ele>187</ele>
        <time>2013-07-04T12:41:50Z</time>
      </trkpt>
      <trkpt lat="49.60709" lon="1.44493">
        <ele>180</ele>
        <time>2013-07-04T12:41:58Z</time>
      </trkpt>
      <trkpt lat="49.607" lon="1.44497">
        <ele>180</ele>
        <time>2013-07-04T12:42:06Z</time>
      </trkpt>
      <trkpt lat="49.60691" lon="1.44502">
        <ele>180</ele>
        <time>2013-07-04T12:42:13Z</time>
      </trkpt>
      <trkpt lat="49.60681" lon="1.44508">
        <ele>180</ele>
        <time>2013-07-04T12:42:21Z</time>
      </trkpt>
      <trkpt lat="49.60673" lon="1.44513">
        <ele>180</ele>
        <time>2013-07-04T12:42:29Z</time>
      </trkpt>
      <trkpt lat="49.60663" lon="1.44519">
        <ele>180</ele>
        <time>2013-07-04T12:42:37Z</time>
      </trkpt>
      <trkpt lat="49.60655" lon="1.44526">
        <ele>180</ele>
        <time>2013-07-04T12:42:45Z</time>
      </trkpt>
      <trkpt lat="49.60646" lon="1.44532">
        <ele>180</ele>
        <time>2013-07-04T12:42:52Z</time>
      </trkpt>
      <trkpt lat="49.60638" lon="1.44538">
        <ele>174</ele>
        <time>2013-07-04T12:43:00Z</time>
      </trkpt>
      <trkpt lat="49.6063" lon="1.44544">
        <ele>174</ele>
        <time>2013-07-04T12:43:07Z</time>
      </trkpt>
      <trkpt lat="49.60621" lon="1.44552">
        <ele>174</ele>
        <time>2013-07-04T12:43:15Z</time>
      </trkpt>
      <trkpt lat="49.60613" lon="1.44561">
        <ele>174</ele>
        <time>2013-07-04T12:43:23Z</time>
      </trkpt>
      <trkpt lat="49.60606" lon="1.4457">
        <ele>174</ele>
        <time>2013-07-04T12:43:31Z</time>
      </trkpt>
      <trkpt lat="49.60597" lon="1.44577">
        <ele>174</ele>
        <time>2013-07-04T12:43:38Z</time>
      </trkpt>
      <trkpt lat="49.6059" lon="1.44586">
        <ele>174</ele>
        <time>2013-07-04T12:43:45Z</time>
      </trkpt>
      <trkpt lat="49.60581" lon="1.44594">
        <ele>174</ele>
        <time>2013-07-04T12:43:53Z</time>
      </trkpt>
      <trkpt lat="49.60573" lon="1.44603">
        <ele>174</ele>
        <time>2013-07-04T12:44:01Z</time>
      </trkpt>
      <trkpt lat="49.60566" lon="1.44612">
        <ele>174</ele>
        <time>2013-07-04T12:44:09Z</time>
      </trkpt>
      <trkpt lat="49.60558" lon="1.44622">
        <ele>174</ele>
        <time>2013-07-04T12:44:17Z</time>
      </trkpt>
      <trkpt lat="49.60551" lon="1.44632">
        <ele>174</ele>
        <time>2013-07-04T12:44:25Z</time>
      </trkpt>
      <trkpt lat="49.60544" lon="1.44643">
        <ele>174</ele>
        <time>2013-07-04T12:44:33Z</time>
      </trkpt>
      <trkpt lat="49.60536" lon="1.44651">
        <ele>174</ele>
        <time>2013-07-04T12:44:41Z</time>
      </trkpt>
      <trkpt lat="49.6053" lon="1.44664">
        <ele>174</ele>
        <time>2013-07-04T12:44:49Z</time>
      </trkpt>
      <trkpt lat="49.60522" lon="1.4467">
        <ele>174</ele>
        <time>2013-07-04T12:44:56Z</time>
      </trkpt>
      <trkpt lat="49.60514" lon="1.44678">
        <ele>174</ele>
        <time>2013-07-04T12:45:05Z</time>
      </trkpt>
      <trkpt lat="49.60506" lon="1.44689">
        <ele>174</ele>
        <time>2013-07-04T12:45:13Z</time>
      </trkpt>
      <trkpt lat="49.605" lon="1.44699">
        <ele>174</ele>
        <time>2013-07-04T12:45:20Z</time>
      </trkpt>
      <trkpt lat="49.60493" lon="1.4471">
        <ele>174</ele>
        <time>2013-07-04T12:45:28Z</time>
      </trkpt>
      <trkpt lat="49.60486" lon="1.44719">
        <ele>174</ele>
        <time>2013-07-04T12:45:35Z</time>
      </trkpt>
      <trkpt lat="49.60479" lon="1.44729">
        <ele>168</ele>
        <time>2013-07-04T12:45:42Z</time>
      </trkpt>
      <trkpt lat="49.60471" lon="1.44738">
        <ele>168</ele>
        <time>2013-07-04T12:45:49Z</time>
      </trkpt>
      <trkpt lat="49.60464" lon="1.44746">
        <ele>168</ele>
        <time>2013-07-04T12:45:56Z</time>
      </trkpt>
      <trkpt lat="49.60457" lon="1.44758">
        <ele>168</ele>
        <time>2013-07-04T12:46:04Z</time>
      </trkpt>
      <trkpt lat="49.6045" lon="1.4477">
        <ele>168</ele>
        <time>2013-07-04T12:46:12Z</time>
      </trkpt>
      <trkpt lat="49.60443" lon="1.44779">
        <ele>168</ele>
        <time>2013-07-04T12:46:20Z</time>
      </trkpt>
      <trkpt lat="49.60436" lon="1.44787">
        <ele>168</ele>
        <time>2013-07-04T12:46:27Z</time>
      </trkpt>
      <trkpt lat="49.60429" lon="1.44796">
        <ele>168</ele>
        <time>2013-07-04T12:46:34Z</time>
      </trkpt>
      <trkpt lat="49.60422" lon="1.44807">
        <ele>168</ele>
        <time>2013-07-04T12:46:42Z</time>
      </trkpt>
      <trkpt lat="49.60414" lon="1.44816">
        <ele>168</ele>
        <time>2013-07-04T12:46:50Z</time>
      </trkpt>
      <trkpt lat="49.60407" lon="1.44826">
        <ele>168</ele>
        <time>2013-07-04T12:46:58Z</time>
      </trkpt>
      <trkpt lat="49.60399" lon="1.44835">
        <ele>168</ele>
        <time>2013-07-04T12:47:06Z</time>
      </trkpt>
      <trkpt lat="49.60392" lon="1.44844">
        <ele>168</ele>
        <time>2013-07-04T12:47:14Z</time>
      </trkpt>
      <trkpt lat="49.60385" lon="1.44855">
        <ele>168</ele>
        <time>2013-07-04T12:47:22Z</time>
      </trkpt>
      <trkpt lat="49.60378" lon="1.44866">
        <ele>168</ele>
        <time>2013-07-04T12:47:30Z</time>
      </trkpt>
      <trkpt lat="49.60371" lon="1.44876">
        <ele>168</ele>
        <time>2013-07-04T12:47:38Z</time>
      </trkpt>
      <trkpt lat="49.60365" lon="1.44888">
        <ele>168</ele>
        <time>2013-07-04T12:47:45Z</time>
      </trkpt>
      <trkpt lat="49.60359" lon="1.44897">
        <ele>168</ele>
        <time>2013-07-04T12:47:52Z</time>
      </trkpt>
      <trkpt lat="49.60352" lon="1.44907">
        <ele>168</ele>
        <time>2013-07-04T12:47:59Z</time>
      </trkpt>
      <trkpt lat="49.60345" lon="1.44916">
        <ele>168</ele>
        <time>2013-07-04T12:48:07Z</time>
      </trkpt>
      <trkpt lat="49.60336" lon="1.44925">
        <ele>168</ele>
        <time>2013-07-04T12:48:14Z</time>
      </trkpt>
      <trkpt lat="49.60328" lon="1.44933">
        <ele>168</ele>
        <time>2013-07-04T12:48:23Z</time>
      </trkpt>
      <trkpt lat="49.60321" lon="1.44942">
        <ele>168</ele>
        <time>2013-07-04T12:51:41Z</time>
      </trkpt>
      <trkpt lat="49.60313" lon="1.44952">
        <ele>168</ele>
        <time>2013-07-04T12:52:34Z</time>
      </trkpt>
      <trkpt lat="49.60307" lon="1.44964">
        <ele>168</ele>
        <time>2013-07-04T12:52:42Z</time>
      </trkpt>
      <trkpt lat="49.60301" lon="1.44976">
        <ele>168</ele>
        <time>2013-07-04T12:52:50Z</time>
      </trkpt>
      <trkpt lat="49.60297" lon="1.44988">
        <ele>163</ele>
        <time>2013-07-04T12:52:58Z</time>
      </trkpt>
      <trkpt lat="49.60293" lon="1.45001">
        <ele>163</ele>
        <time>2013-07-04T12:53:05Z</time>
      </trkpt>
      <trkpt lat="49.60288" lon="1.45014">
        <ele>163</ele>
        <time>2013-07-04T12:53:13Z</time>
      </trkpt>
      <trkpt lat="49.60283" lon="1.45028">
        <ele>163</ele>
        <time>2013-07-04T12:53:21Z</time>
      </trkpt>
      <trkpt lat="49.60279" lon="1.45041">
        <ele>163</ele>
        <time>2013-07-04T12:53:28Z</time>
      </trkpt>
      <trkpt lat="49.60274" lon="1.45054">
        <ele>163</ele>
        <time>2013-07-04T12:53:36Z</time>
      </trkpt>
      <trkpt lat="49.6027" lon="1.45067">
        <ele>163</ele>
        <time>2013-07-04T12:53:43Z</time>
      </trkpt>
      <trkpt lat="49.60267" lon="1.45081">
        <ele>163</ele>
        <time>2013-07-04T12:53:50Z</time>
      </trkpt>
      <trkpt lat="49.60262" lon="1.45094">
        <ele>163</ele>
        <time>2013-07-04T12:53:58Z</time>
      </trkpt>
      <trkpt lat="49.60258" lon="1.45109">
        <ele>163</ele>
        <time>2013-07-04T12:54:06Z</time>
      </trkpt>
      <trkpt lat="49.60254" lon="1.45122">
        <ele>163</ele>
        <time>2013-07-04T12:54:14Z</time>
      </trkpt>
      <trkpt lat="49.60249" lon="1.45135">
        <ele>163</ele>
        <time>2013-07-04T12:54:22Z</time>
      </trkpt>
      <trkpt lat="49.60245" lon="1.45148">
        <ele>163</ele>
        <time>2013-07-04T12:54:29Z</time>
      </trkpt>
      <trkpt lat="49.60241" lon="1.45161">
        <ele>163</ele>
        <time>2013-07-04T12:54:36Z</time>
      </trkpt>
      <trkpt lat="49.60237" lon="1.45173">
        <ele>163</ele>
        <time>2013-07-04T12:54:43Z</time>
      </trkpt>
      <trkpt lat="49.60233" lon="1.45186">
        <ele>163</ele>
        <time>2013-07-04T12:54:50Z</time>
      </trkpt>
      <trkpt lat="49.60228" lon="1.45198">
        <ele>163</ele>
        <time>2013-07-04T12:54:57Z</time>
      </trkpt>
      <trkpt lat="49.60224" lon="1.45211">
        <ele>163</ele>
        <time>2013-07-04T12:55:04Z</time>
      </trkpt>
      <trkpt lat="49.6022" lon="1.45223">
        <ele>163</ele>
        <time>2013-07-04T12:55:11Z</time>
      </trkpt>
      <trkpt lat="49.60215" lon="1.45236">
        <ele>163</ele>
        <time>2013-07-04T12:55:18Z</time>
      </trkpt>
      <trkpt lat="49.6021" lon="1.4525">
        <ele>163</ele>
        <time>2013-07-04T12:55:26Z</time>
      </trkpt>
      <trkpt lat="49.60205" lon="1.45262">
        <ele>163</ele>
        <time>2013-07-04T12:55:33Z</time>
      </trkpt>
      <trkpt lat="49.60199" lon="1.45273">
        <ele>158</ele>
        <time>2013-07-04T12:55:40Z</time>
      </trkpt>
      <trkpt lat="49.60193" lon="1.45285">
        <ele>158</ele>
        <time>2013-07-04T12:55:48Z</time>
      </trkpt>
      <trkpt lat="49.60187" lon="1.45297">
        <ele>158</ele>
        <time>2013-07-04T12:55:56Z</time>
      </trkpt>
      <trkpt lat="49.60181" lon="1.45308">
        <ele>158</ele>
        <time>2013-07-04T12:56:03Z</time>
      </trkpt>
      <trkpt lat="49.60174" lon="1.45318">
        <ele>158</ele>
        <time>2013-07-04T12:56:10Z</time>
      </trkpt>
      <trkpt lat="49.60168" lon="1.45328">
        <ele>158</ele>
        <time>2013-07-04T12:56:17Z</time>
      </trkpt>
      <trkpt lat="49.60161" lon="1.45338">
        <ele>158</ele>
        <time>2013-07-04T12:56:24Z</time>
      </trkpt>
      <trkpt lat="49.60154" lon="1.45348">
        <ele>158</ele>
        <time>2013-07-04T12:56:32Z</time>
      </trkpt>
      <trkpt lat="49.60147" lon="1.45358">
        <ele>158</ele>
        <time>2013-07-04T12:56:39Z</time>
      </trkpt>
      <trkpt lat="49.60141" lon="1.45369">
        <ele>158</ele>
        <time>2013-07-04T12:56:47Z</time>
      </trkpt>
      <trkpt lat="49.60135" lon="1.4538">
        <ele>158</ele>
        <time>2013-07-04T12:56:54Z</time>
      </trkpt>
      <trkpt lat="49.60129" lon="1.45392">
        <ele>158</ele>
        <time>2013-07-04T12:57:02Z</time>
      </trkpt>
      <trkpt lat="49.60123" lon="1.45404">
        <ele>158</ele>
        <time>2013-07-04T12:57:10Z</time>
      </trkpt>
      <trkpt lat="49.60117" lon="1.45417">
        <ele>158</ele>
        <time>2013-07-04T12:57:18Z</time>
      </trkpt>
      <trkpt lat="49.60111" lon="1.45428">
        <ele>158</ele>
        <time>2013-07-04T12:57:25Z</time>
      </trkpt>
      <trkpt lat="49.60106" lon="1.4544">
        <ele>158</ele>
        <time>2013-07-04T12:57:32Z</time>
      </trkpt>
      <trkpt lat="49.60101" lon="1.45453">
        <ele>158</ele>
        <time>2013-07-04T12:57:40Z</time>
      </trkpt>
      <trkpt lat="49.60095" lon="1.45464">
        <ele>158</ele>
        <time>2013-07-04T12:57:47Z</time>
      </trkpt>
      <trkpt lat="49.60089" lon="1.45475">
        <ele>158</ele>
        <time>2013-07-04T12:57:54Z</time>
      </trkpt>
      <trkpt lat="49.60084" lon="1.45488">
        <ele>158</ele>
        <time>2013-07-04T12:58:02Z</time>
      </trkpt>
      <trkpt lat="49.60078" lon="1.45498">
        <ele>158</ele>
        <time>2013-07-04T12:58:09Z</time>
      </trkpt>
      <trkpt lat="49.60071" lon="1.4551">
        <ele>158</ele>
        <time>2013-07-04T12:58:16Z</time>
      </trkpt>
      <trkpt lat="49.60065" lon="1.45522">
        <ele>158</ele>
        <time>2013-07-04T12:58:24Z</time>
      </trkpt>
      <trkpt lat="49.60059" lon="1.45533">
        <ele>153</ele>
        <time>2013-07-04T12:58:31Z</time>
      </trkpt>
      <trkpt lat="49.60053" lon="1.45544">
        <ele>153</ele>
        <time>2013-07-04T12:58:38Z</time>
      </trkpt>
      <trkpt lat="49.60047" lon="1.45555">
        <ele>153</ele>
        <time>2013-07-04T12:58:45Z</time>
      </trkpt>
      <trkpt lat="49.60042" lon="1.45567">
        <ele>153</ele>
        <time>2013-07-04T12:58:52Z</time>
      </trkpt>
      <trkpt lat="49.60035" lon="1.45577">
        <ele>153</ele>
        <time>2013-07-04T12:58:59Z</time>
      </trkpt>
      <trkpt lat="49.60029" lon="1.45588">
        <ele>153</ele>
        <time>2013-07-04T12:59:07Z</time>
      </trkpt>
      <trkpt lat="49.60023" lon="1.45601">
        <ele>153</ele>
        <time>2013-07-04T12:59:16Z</time>
      </trkpt>
      <trkpt lat="49.60016" lon="1.45612">
        <ele>153</ele>
        <time>2013-07-04T12:59:24Z</time>
      </trkpt>
      <trkpt lat="49.6001" lon="1.45622">
        <ele>153</ele>
        <time>2013-07-04T12:59:31Z</time>
      </trkpt>
      <trkpt lat="49.60004" lon="1.45633">
        <ele>153</ele>
        <time>2013-07-04T12:59:38Z</time>
      </trkpt>
      <trkpt lat="49.59996" lon="1.45644">
        <ele>153</ele>
        <time>2013-07-04T12:59:46Z</time>
      </trkpt>
      <trkpt lat="49.5999" lon="1.45656">
        <ele>153</ele>
        <time>2013-07-04T12:59:55Z</time>
      </trkpt>
      <trkpt lat="49.59983" lon="1.45668">
        <ele>153</ele>
        <time>2013-07-04T13:00:04Z</time>
      </trkpt>
      <trkpt lat="49.59976" lon="1.45679">
        <ele>153</ele>
        <time>2013-07-04T13:00:35Z</time>
      </trkpt>
      <trkpt lat="49.59973" lon="1.45693">
        <ele>153</ele>
        <time>2013-07-04T13:00:44Z</time>
      </trkpt>
      <trkpt lat="49.59971" lon="1.45707">
        <ele>153</ele>
        <time>2013-07-04T13:00:52Z</time>
      </trkpt>
      <trkpt lat="49.59969" lon="1.45721">
        <ele>153</ele>
        <time>2013-07-04T13:01:00Z</time>
      </trkpt>
      <trkpt lat="49.59967" lon="1.45736">
        <ele>153</ele>
        <time>2013-07-04T13:01:08Z</time>
      </trkpt>
      <trkpt lat="49.59965" lon="1.45751">
        <ele>153</ele>
        <time>2013-07-04T13:01:16Z</time>
      </trkpt>
      <trkpt lat="49.59963" lon="1.45766">
        <ele>153</ele>
        <time>2013-07-04T13:01:24Z</time>
      </trkpt>
      <trkpt lat="49.59962" lon="1.45781">
        <ele>153</ele>
        <time>2013-07-04T13:01:32Z</time>
      </trkpt>
      <trkpt lat="49.59962" lon="1.45797">
        <ele>153</ele>
        <time>2013-07-04T13:01:40Z</time>
      </trkpt>
      <trkpt lat="49.59962" lon="1.45811">
        <ele>153</ele>
        <time>2013-07-04T13:01:50Z</time>
      </trkpt>
      <trkpt lat="49.59963" lon="1.45825">
        <ele>153</ele>
        <time>2013-07-04T13:01:57Z</time>
      </trkpt>
      <trkpt lat="49.59964" lon="1.4584">
        <ele>153</ele>
        <time>2013-07-04T13:02:05Z</time>
      </trkpt>
      <trkpt lat="49.59965" lon="1.45854">
        <ele>153</ele>
        <time>2013-07-04T13:02:13Z</time>
      </trkpt>
      <trkpt lat="49.59957" lon="1.45863">
        <ele>148</ele>
        <time>2013-07-04T13:02:21Z</time>
      </trkpt>
      <trkpt lat="49.59948" lon="1.45869">
        <ele>148</ele>
        <time>2013-07-04T13:02:30Z</time>
      </trkpt>
      <trkpt lat="49.59939" lon="1.45876">
        <ele>148</ele>
        <time>2013-07-04T13:02:38Z</time>
      </trkpt>
      <trkpt lat="49.59931" lon="1.45883">
        <ele>148</ele>
        <time>2013-07-04T13:02:45Z</time>
      </trkpt>
      <trkpt lat="49.59922" lon="1.4589">
        <ele>148</ele>
        <time>2013-07-04T13:02:53Z</time>
      </trkpt>
      <trkpt lat="49.59914" lon="1.45895">
        <ele>148</ele>
        <time>2013-07-04T13:03:01Z</time>
      </trkpt>
      <trkpt lat="49.59905" lon="1.45903">
        <ele>148</ele>
        <time>2013-07-04T13:03:09Z</time>
      </trkpt>
      <trkpt lat="49.59897" lon="1.45912">
        <ele>148</ele>
        <time>2013-07-04T13:03:16Z</time>
      </trkpt>
      <trkpt lat="49.59888" lon="1.4592">
        <ele>148</ele>
        <time>2013-07-04T13:03:24Z</time>
      </trkpt>
      <trkpt lat="49.5988" lon="1.45927">
        <ele>148</ele>
        <time>2013-07-04T13:03:31Z</time>
      </trkpt>
      <trkpt lat="49.59871" lon="1.45933">
        <ele>148</ele>
        <time>2013-07-04T13:03:38Z</time>
      </trkpt>
      <trkpt lat="49.59863" lon="1.45939">
        <ele>148</ele>
        <time>2013-07-04T13:03:45Z</time>
      </trkpt>
      <trkpt lat="49.59854" lon="1.45946">
        <ele>148</ele>
        <time>2013-07-04T13:03:53Z</time>
      </trkpt>
      <trkpt lat="49.59845" lon="1.45953">
        <ele>148</ele>
        <time>2013-07-04T13:04:01Z</time>
      </trkpt>
      <trkpt lat="49.59837" lon="1.45959">
        <ele>148</ele>
        <time>2013-07-04T13:04:08Z</time>
      </trkpt>
      <trkpt lat="49.59828" lon="1.45966">
        <ele>148</ele>
        <time>2013-07-04T13:04:15Z</time>
      </trkpt>
      <trkpt lat="49.5982" lon="1.45974">
        <ele>148</ele>
        <time>2013-07-04T13:04:23Z</time>
      </trkpt>
      <trkpt lat="49.59812" lon="1.4598">
        <ele>148</ele>
        <time>2013-07-04T13:04:30Z</time>
      </trkpt>
      <trkpt lat="49.59803" lon="1.45987">
        <ele>148</ele>
        <time>2013-07-04T13:04:38Z</time>
      </trkpt>
      <trkpt lat="49.59795" lon="1.45995">
        <ele>148</ele>
        <time>2013-07-04T13:04:46Z</time>
      </trkpt>
      <trkpt lat="49.59786" lon="1.46003">
        <ele>148</ele>
        <time>2013-07-04T13:04:54Z</time>
      </trkpt>
      <trkpt lat="49.59778" lon="1.4601">
        <ele>148</ele>
        <time>2013-07-04T13:05:02Z</time>
      </trkpt>
      <trkpt lat="49.59769" lon="1.46018">
        <ele>148</ele>
        <time>2013-07-04T13:05:10Z</time>
      </trkpt>
      <trkpt lat="49.59761" lon="1.46025">
        <ele>148</ele>
        <time>2013-07-04T13:05:18Z</time>
      </trkpt>
      <trkpt lat="49.59752" lon="1.46033">
        <ele>148</ele>
        <time>2013-07-04T13:05:26Z</time>
      </trkpt>
      <trkpt lat="49.59744" lon="1.46041">
        <ele>148</ele>
        <time>2013-07-04T13:05:33Z</time>
      </trkpt>
      <trkpt lat="49.59736" lon="1.46049">
        <ele>148</ele>
        <time>2013-07-04T13:05:41Z</time>
      </trkpt>
      <trkpt lat="49.59728" lon="1.46058">
        <ele>148</ele>
        <time>2013-07-04T13:05:49Z</time>
      </trkpt>
      <trkpt lat="49.5972" lon="1.46066">
        <ele>148</ele>
        <time>2013-07-04T13:05:56Z</time>
      </trkpt>
      <trkpt lat="49.59712" lon="1.46074">
        <ele>148</ele>
        <time>2013-07-04T13:06:04Z</time>
      </trkpt>
      <trkpt lat="49.59704" lon="1.46083">
        <ele>148</ele>
        <time>2013-07-04T13:06:11Z</time>
      </trkpt>
      <trkpt lat="49.59697" lon="1.46091">
        <ele>148</ele>
        <time>2013-07-04T13:06:18Z</time>
      </trkpt>
      <trkpt lat="49.59688" lon="1.461">
        <ele>148</ele>
        <time>2013-07-04T13:06:26Z</time>
      </trkpt>
      <trkpt lat="49.5968" lon="1.46109">
        <ele>148</ele>
        <time>2013-07-04T13:06:34Z</time>
      </trkpt>
      <trkpt lat="49.59673" lon="1.46117">
        <ele>148</ele>
        <time>2013-07-04T13:06:41Z</time>
      </trkpt>
      <trkpt lat="49.59665" lon="1.46127">
        <ele>148</ele>
        <time>2013-07-04T13:06:49Z</time>
      </trkpt>
      <trkpt lat="49.59656" lon="1.46136">
        <ele>148</ele>
        <time>2013-07-04T13:06:57Z</time>
      </trkpt>
      <trkpt lat="49.59648" lon="1.46144">
        <ele>148</ele>
        <time>2013-07-04T13:07:05Z</time>
      </trkpt>
      <trkpt lat="49.59641" lon="1.46153">
        <ele>148</ele>
        <time>2013-07-04T13:07:12Z</time>
      </trkpt>
      <trkpt lat="49.59633" lon="1.46162">
        <ele>148</ele>
        <time>2013-07-04T13:07:20Z</time>
      </trkpt>
      <trkpt lat="49.59625" lon="1.46171">
        <ele>148</ele>
        <time>2013-07-04T13:07:28Z</time>
      </trkpt>
      <trkpt lat="49.59617" lon="1.46179">
        <ele>148</ele>
        <time>2013-07-04T13:07:37Z</time>
      </trkpt>
      <trkpt lat="49.5961" lon="1.46191">
        <ele>148</ele>
        <time>2013-07-04T13:08:07Z</time>
      </trkpt>
      <trkpt lat="49.59602" lon="1.462">
        <ele>148</ele>
        <time>2013-07-04T13:08:14Z</time>
      </trkpt>
      <trkpt lat="49.59594" lon="1.46207">
        <ele>148</ele>
        <time>2013-07-04T13:08:21Z</time>
      </trkpt>
      <trkpt lat="49.59587" lon="1.46216">
        <ele>148</ele>
        <time>2013-07-04T13:08:28Z</time>
      </trkpt>
      <trkpt lat="49.59579" lon="1.46224">
        <ele>148</ele>
        <time>2013-07-04T13:08:35Z</time>
      </trkpt>
      <trkpt lat="49.59572" lon="1.46233">
        <ele>148</ele>
        <time>2013-07-04T13:08:43Z</time>
      </trkpt>
      <trkpt lat="49.59563" lon="1.46239">
        <ele>142</ele>
        <time>2013-07-04T13:08:51Z</time>
      </trkpt>
      <trkpt lat="49.59555" lon="1.46247">
        <ele>142</ele>
        <time>2013-07-04T13:08:59Z</time>
      </trkpt>
      <trkpt lat="49.59546" lon="1.46255">
        <ele>142</ele>
        <time>2013-07-04T13:09:07Z</time>
      </trkpt>
      <trkpt lat="49.59538" lon="1.46263">
        <ele>142</ele>
        <time>2013-07-04T13:09:15Z</time>
      </trkpt>
      <trkpt lat="49.5953" lon="1.46271">
        <ele>142</ele>
        <time>2013-07-04T13:09:23Z</time>
      </trkpt>
      <trkpt lat="49.59521" lon="1.46279">
        <ele>142</ele>
        <time>2013-07-04T13:09:31Z</time>
      </trkpt>
      <trkpt lat="49.59513" lon="1.46286">
        <ele>142</ele>
        <time>2013-07-04T13:09:39Z</time>
      </trkpt>
      <trkpt lat="49.59504" lon="1.46294">
        <ele>142</ele>
        <time>2013-07-04T13:09:47Z</time>
      </trkpt>
      <trkpt lat="49.59496" lon="1.46302">
        <ele>142</ele>
        <time>2013-07-04T13:09:55Z</time>
      </trkpt>
      <trkpt lat="49.59487" lon="1.46309">
        <ele>142</ele>
        <time>2013-07-04T13:10:03Z</time>
      </trkpt>
      <trkpt lat="49.59479" lon="1.46317">
        <ele>142</ele>
        <time>2013-07-04T13:10:11Z</time>
      </trkpt>
      <trkpt lat="49.59471" lon="1.46324">
        <ele>142</ele>
        <time>2013-07-04T13:10:19Z</time>
      </trkpt>
      <trkpt lat="49.59462" lon="1.46331">
        <ele>142</ele>
        <time>2013-07-04T13:10:27Z</time>
      </trkpt>
      <trkpt lat="49.59453" lon="1.46338">
        <ele>142</ele>
        <time>2013-07-04T13:10:35Z</time>
      </trkpt>
      <trkpt lat="49.59444" lon="1.46345">
        <ele>142</ele>
        <time>2013-07-04T13:10:43Z</time>
      </trkpt>
      <trkpt lat="49.59436" lon="1.46352">
        <ele>142</ele>
        <time>2013-07-04T13:10:50Z</time>
      </trkpt>
      <trkpt lat="49.59427" lon="1.4636">
        <ele>142</ele>
        <time>2013-07-04T13:10:57Z</time>
      </trkpt>
      <trkpt lat="49.59419" lon="1.46367">
        <ele>142</ele>
        <time>2013-07-04T13:11:05Z</time>
      </trkpt>
      <trkpt lat="49.5941" lon="1.46374">
        <ele>142</ele>
        <time>2013-07-04T13:11:13Z</time>
      </trkpt>
      <trkpt lat="49.59402" lon="1.46382">
        <ele>142</ele>
        <time>2013-07-04T13:11:21Z</time>
      </trkpt>
      <trkpt lat="49.59393" lon="1.4639">
        <ele>142</ele>
        <time>2013-07-04T13:11:29Z</time>
      </trkpt>
      <trkpt lat="49.59385" lon="1.46398">
        <ele>142</ele>
        <time>2013-07-04T13:11:37Z</time>
      </trkpt>
      <trkpt lat="49.59376" lon="1.46407">
        <ele>142</ele>
        <time>2013-07-04T13:11:45Z</time>
      </trkpt>
      <trkpt lat="49.59368" lon="1.46415">
        <ele>142</ele>
        <time>2013-07-04T13:11:52Z</time>
      </trkpt>
      <trkpt lat="49.59361" lon="1.46424">
        <ele>142</ele>
        <time>2013-07-04T13:12:00Z</time>
      </trkpt>
      <trkpt lat="49.59353" lon="1.46433">
        <ele>142</ele>
        <time>2013-07-04T13:12:07Z</time>
      </trkpt>
      <trkpt lat="49.59344" lon="1.46442">
        <ele>142</ele>
        <time>2013-07-04T13:12:15Z</time>
      </trkpt>
      <trkpt lat="49.59336" lon="1.46449">
        <ele>142</ele>
        <time>2013-07-04T13:12:22Z</time>
      </trkpt>
      <trkpt lat="49.59328" lon="1.46458">
        <ele>142</ele>
        <time>2013-07-04T13:12:30Z</time>
      </trkpt>
      <trkpt lat="49.5932" lon="1.46468">
        <ele>142</ele>
        <time>2013-07-04T13:12:38Z</time>
      </trkpt>
      <trkpt lat="49.59312" lon="1.46477">
        <ele>142</ele>
        <time>2013-07-04T13:12:46Z</time>
      </trkpt>
      <trkpt lat="49.59305" lon="1.46485">
        <ele>142</ele>
        <time>2013-07-04T13:12:53Z</time>
      </trkpt>
      <trkpt lat="49.59297" lon="1.46492">
        <ele>142</ele>
        <time>2013-07-04T13:13:00Z</time>
      </trkpt>
      <trkpt lat="49.59288" lon="1.46499">
        <ele>142</ele>
        <time>2013-07-04T13:13:07Z</time>
      </trkpt>
      <trkpt lat="49.5928" lon="1.46507">
        <ele>142</ele>
        <time>2013-07-04T13:13:15Z</time>
      </trkpt>
      <trkpt lat="49.59272" lon="1.46514">
        <ele>142</ele>
        <time>2013-07-04T13:13:22Z</time>
      </trkpt>
      <trkpt lat="49.59264" lon="1.46522">
        <ele>142</ele>
        <time>2013-07-04T13:13:30Z</time>
      </trkpt>
      <trkpt lat="49.59256" lon="1.46531">
        <ele>142</ele>
        <time>2013-07-04T13:13:38Z</time>
      </trkpt>
      <trkpt lat="49.59247" lon="1.46539">
        <ele>142</ele>
        <time>2013-07-04T13:13:46Z</time>
      </trkpt>
      <trkpt lat="49.59238" lon="1.46545">
        <ele>142</ele>
        <time>2013-07-04T13:13:54Z</time>
      </trkpt>
      <trkpt lat="49.5923" lon="1.46551">
        <ele>142</ele>
        <time>2013-07-04T13:14:02Z</time>
      </trkpt>
      <trkpt lat="49.59222" lon="1.46557">
        <ele>142</ele>
        <time>2013-07-04T13:14:09Z</time>
      </trkpt>
      <trkpt lat="49.59213" lon="1.46565">
        <ele>142</ele>
        <time>2013-07-04T13:14:17Z</time>
      </trkpt>
      <trkpt lat="49.59204" lon="1.4657">
        <ele>142</ele>
        <time>2013-07-04T13:14:24Z</time>
      </trkpt>
      <trkpt lat="49.59196" lon="1.46576">
        <ele>142</ele>
        <time>2013-07-04T13:14:32Z</time>
      </trkpt>
      <trkpt lat="49.59187" lon="1.46582">
        <ele>142</ele>
        <time>2013-07-04T13:14:40Z</time>
      </trkpt>
      <trkpt lat="49.59177" lon="1.46587">
        <ele>142</ele>
        <time>2013-07-04T13:14:48Z</time>
      </trkpt>
      <trkpt lat="49.59169" lon="1.46592">
        <ele>142</ele>
        <time>2013-07-04T13:14:56Z</time>
      </trkpt>
      <trkpt lat="49.59159" lon="1.46596">
        <ele>142</ele>
        <time>2013-07-04T13:15:04Z</time>
      </trkpt>
      <trkpt lat="49.5915" lon="1.46601">
        <ele>142</ele>
        <time>2013-07-04T13:15:12Z</time>
      </trkpt>
      <trkpt lat="49.59141" lon="1.46606">
        <ele>142</ele>
        <time>2013-07-04T13:15:20Z</time>
      </trkpt>
      <trkpt lat="49.59132" lon="1.4661">
        <ele>142</ele>
        <time>2013-07-04T13:15:27Z</time>
      </trkpt>
      <trkpt lat="49.59122" lon="1.46615">
        <ele>142</ele>
        <time>2013-07-04T13:15:35Z</time>
      </trkpt>
      <trkpt lat="49.59113" lon="1.46621">
        <ele>142</ele>
        <time>2013-07-04T13:15:43Z</time>
      </trkpt>
      <trkpt lat="49.59103" lon="1.46628">
        <ele>142</ele>
        <time>2013-07-04T13:15:51Z</time>
      </trkpt>
      <trkpt lat="49.59096" lon="1.46636">
        <ele>142</ele>
        <time>2013-07-04T13:15:58Z</time>
      </trkpt>
      <trkpt lat="49.59087" lon="1.46644">
        <ele>142</ele>
        <time>2013-07-04T13:16:07Z</time>
      </trkpt>
      <trkpt lat="49.59079" lon="1.46651">
        <ele>142</ele>
        <time>2013-07-04T13:16:14Z</time>
      </trkpt>
      <trkpt lat="49.59071" lon="1.46659">
        <ele>142</ele>
        <time>2013-07-04T13:16:22Z</time>
      </trkpt>
      <trkpt lat="49.59062" lon="1.46666">
        <ele>142</ele>
        <time>2013-07-04T13:16:30Z</time>
      </trkpt>
      <trkpt lat="49.59055" lon="1.46674">
        <ele>142</ele>
        <time>2013-07-04T13:16:37Z</time>
      </trkpt>
      <trkpt lat="49.59047" lon="1.46682">
        <ele>142</ele>
        <time>2013-07-04T13:16:45Z</time>
      </trkpt>
      <trkpt lat="49.59039" lon="1.4669">
        <ele>142</ele>
        <time>2013-07-04T13:16:54Z</time>
      </trkpt>
      <trkpt lat="49.59033" lon="1.46701">
        <ele>142</ele>
        <time>2013-07-04T13:17:05Z</time>
      </trkpt>
      <trkpt lat="49.59026" lon="1.46712">
        <ele>142</ele>
        <time>2013-07-04T13:17:14Z</time>
      </trkpt>
      <trkpt lat="49.59018" lon="1.46723">
        <ele>142</ele>
        <time>2013-07-04T13:17:26Z</time>
      </trkpt>
      <trkpt lat="49.59009" lon="1.46733">
        <ele>142</ele>
        <time>2013-07-04T13:17:31Z</time>
      </trkpt>
      <trkpt lat="49.59002" lon="1.46743">
        <ele>142</ele>
        <time>2013-07-04T13:17:38Z</time>
      </trkpt>
      <trkpt lat="49.58993" lon="1.46752">
        <ele>142</ele>
        <time>2013-07-04T13:17:45Z</time>
      </trkpt>
      <trkpt lat="49.58985" lon="1.46759">
        <ele>142</ele>
        <time>2013-07-04T13:17:52Z</time>
      </trkpt>
      <trkpt lat="49.58977" lon="1.46766">
        <ele>137</ele>
        <time>2013-07-04T13:18:00Z</time>
      </trkpt>
      <trkpt lat="49.58968" lon="1.46771">
        <ele>137</ele>
        <time>2013-07-04T13:20:05Z</time>
      </trkpt>
      <trkpt lat="49.58964" lon="1.46784">
        <ele>137</ele>
        <time>2013-07-04T13:20:14Z</time>
      </trkpt>
      <trkpt lat="49.58958" lon="1.46796">
        <ele>137</ele>
        <time>2013-07-04T13:20:23Z</time>
      </trkpt>
      <trkpt lat="49.58953" lon="1.46808">
        <ele>137</ele>
        <time>2013-07-04T13:20:31Z</time>
      </trkpt>
      <trkpt lat="49.5895" lon="1.46822">
        <ele>137</ele>
        <time>2013-07-04T13:20:38Z</time>
      </trkpt>
      <trkpt lat="49.58946" lon="1.46835">
        <ele>137</ele>
        <time>2013-07-04T13:20:46Z</time>
      </trkpt>
      <trkpt lat="49.58944" lon="1.4685">
        <ele>137</ele>
        <time>2013-07-04T13:20:54Z</time>
      </trkpt>
      <trkpt lat="49.58943" lon="1.46866">
        <ele>137</ele>
        <time>2013-07-04T13:21:02Z</time>
      </trkpt>
      <trkpt lat="49.58941" lon="1.4688">
        <ele>137</ele>
        <time>2013-07-04T13:21:10Z</time>
      </trkpt>
      <trkpt lat="49.5894" lon="1.46895">
        <ele>137</ele>
        <time>2013-07-04T13:21:19Z</time>
      </trkpt>
      <trkpt lat="49.58939" lon="1.4691">
        <ele>137</ele>
        <time>2013-07-04T13:21:28Z</time>
      </trkpt>
      <trkpt lat="49.58937" lon="1.46924">
        <ele>137</ele>
        <time>2013-07-04T13:21:36Z</time>
      </trkpt>
      <trkpt lat="49.58936" lon="1.46939">
        <ele>137</ele>
        <time>2013-07-04T13:21:44Z</time>
      </trkpt>
      <trkpt lat="49.58936" lon="1.46955">
        <ele>137</ele>
        <time>2013-07-04T13:21:53Z</time>
      </trkpt>
      <trkpt lat="49.58936" lon="1.4697">
        <ele>137</ele>
        <time>2013-07-04T13:22:01Z</time>
      </trkpt>
      <trkpt lat="49.58932" lon="1.46983">
        <ele>137</ele>
        <time>2013-07-04T13:22:09Z</time>
      </trkpt>
      <trkpt lat="49.58928" lon="1.46997">
        <ele>137</ele>
        <time>2013-07-04T13:22:18Z</time>
      </trkpt>
      <trkpt lat="49.58923" lon="1.47008">
        <ele>137</ele>
        <time>2013-07-04T13:22:25Z</time>
      </trkpt>
      <trkpt lat="49.58916" lon="1.47017">
        <ele>145</ele>
        <time>2013-07-04T13:22:32Z</time>
      </trkpt>
      <trkpt lat="49.58914" lon="1.47032">
        <ele>145</ele>
        <time>2013-07-04T13:22:42Z</time>
      </trkpt>
      <trkpt lat="49.58908" lon="1.47043">
        <ele>145</ele>
        <time>2013-07-04T13:22:51Z</time>
      </trkpt>
      <trkpt lat="49.58902" lon="1.47055">
        <ele>145</ele>
        <time>2013-07-04T13:22:58Z</time>
      </trkpt>
      <trkpt lat="49.58895" lon="1.47067">
        <ele>145</ele>
        <time>2013-07-04T13:23:06Z</time>
      </trkpt>
      <trkpt lat="49.58889" lon="1.47077">
        <ele>145</ele>
        <time>2013-07-04T13:23:14Z</time>
      </trkpt>
      <trkpt lat="49.58882" lon="1.47087">
        <ele>139</ele>
        <time>2013-07-04T13:23:23Z</time>
      </trkpt>
      <trkpt lat="49.58875" lon="1.47096">
        <ele>139</ele>
        <time>2013-07-04T13:23:31Z</time>
      </trkpt>
      <trkpt lat="49.58867" lon="1.47105">
        <ele>139</ele>
        <time>2013-07-04T13:23:37Z</time>
      </trkpt>
      <trkpt lat="49.58859" lon="1.47112">
        <ele>139</ele>
        <time>2013-07-04T13:23:45Z</time>
      </trkpt>
      <trkpt lat="49.58851" lon="1.4712">
        <ele>139</ele>
        <time>2013-07-04T13:23:53Z</time>
      </trkpt>
      <trkpt lat="49.58844" lon="1.47129">
        <ele>139</ele>
        <time>2013-07-04T13:24:01Z</time>
      </trkpt>
      <trkpt lat="49.58836" lon="1.47137">
        <ele>139</ele>
        <time>2013-07-04T13:24:08Z</time>
      </trkpt>
      <trkpt lat="49.58828" lon="1.47145">
        <ele>139</ele>
        <time>2013-07-04T13:24:16Z</time>
      </trkpt>
      <trkpt lat="49.58819" lon="1.47155">
        <ele>139</ele>
        <time>2013-07-04T13:24:25Z</time>
      </trkpt>
      <trkpt lat="49.58814" lon="1.47167">
        <ele>139</ele>
        <time>2013-07-04T13:24:33Z</time>
      </trkpt>
      <trkpt lat="49.5881" lon="1.47181">
        <ele>139</ele>
        <time>2013-07-04T13:24:41Z</time>
      </trkpt>
      <trkpt lat="49.58807" lon="1.47195">
        <ele>139</ele>
        <time>2013-07-04T13:24:49Z</time>
      </trkpt>
      <trkpt lat="49.58808" lon="1.4721">
        <ele>139</ele>
        <time>2013-07-04T13:24:58Z</time>
      </trkpt>
      <trkpt lat="49.58809" lon="1.47225">
        <ele>139</ele>
        <time>2013-07-04T13:25:07Z</time>
      </trkpt>
      <trkpt lat="49.5881" lon="1.47241">
        <ele>139</ele>
        <time>2013-07-04T13:25:17Z</time>
      </trkpt>
      <trkpt lat="49.58812" lon="1.47255">
        <ele>139</ele>
        <time>2013-07-04T13:25:23Z</time>
      </trkpt>
      <trkpt lat="49.58811" lon="1.4727">
        <ele>139</ele>
        <time>2013-07-04T13:25:30Z</time>
      </trkpt>
      <trkpt lat="49.5881" lon="1.47285">
        <ele>139</ele>
        <time>2013-07-04T13:25:39Z</time>
      </trkpt>
      <trkpt lat="49.58808" lon="1.473">
        <ele>139</ele>
        <time>2013-07-04T13:25:49Z</time>
      </trkpt>
      <trkpt lat="49.58809" lon="1.47316">
        <ele>139</ele>
        <time>2013-07-04T13:25:57Z</time>
      </trkpt>
      <trkpt lat="49.58807" lon="1.4733">
        <ele>139</ele>
        <time>2013-07-04T13:26:06Z</time>
      </trkpt>
      <trkpt lat="49.58806" lon="1.47345">
        <ele>130</ele>
        <time>2013-07-04T13:26:16Z</time>
      </trkpt>
      <trkpt lat="49.58804" lon="1.4736">
        <ele>130</ele>
        <time>2013-07-04T13:26:24Z</time>
      </trkpt>
      <trkpt lat="49.58797" lon="1.4737">
        <ele>130</ele>
        <time>2013-07-04T13:26:32Z</time>
      </trkpt>
      <trkpt lat="49.58792" lon="1.47383">
        <ele>136</ele>
        <time>2013-07-04T13:26:39Z</time>
      </trkpt>
      <trkpt lat="49.58789" lon="1.47398">
        <ele>136</ele>
        <time>2013-07-04T13:26:48Z</time>
      </trkpt>
      <trkpt lat="49.58783" lon="1.47409">
        <ele>136</ele>
        <time>2013-07-04T13:26:56Z</time>
      </trkpt>
      <trkpt lat="49.5878" lon="1.47423">
        <ele>136</ele>
        <time>2013-07-04T13:27:05Z</time>
      </trkpt>
      <trkpt lat="49.58773" lon="1.47432">
        <ele>136</ele>
        <time>2013-07-04T13:27:13Z</time>
      </trkpt>
      <trkpt lat="49.58766" lon="1.47444">
        <ele>136</ele>
        <time>2013-07-04T13:27:21Z</time>
      </trkpt>
      <trkpt lat="49.58763" lon="1.47459">
        <ele>136</ele>
        <time>2013-07-04T13:27:31Z</time>
      </trkpt>
      <trkpt lat="49.58764" lon="1.47473">
        <ele>136</ele>
        <time>2013-07-04T13:27:40Z</time>
      </trkpt>
      <trkpt lat="49.58764" lon="1.47488">
        <ele>136</ele>
        <time>2013-07-04T13:27:51Z</time>
      </trkpt>
      <trkpt lat="49.58756" lon="1.47496">
        <ele>136</ele>
        <time>2013-07-04T13:28:01Z</time>
      </trkpt>
      <trkpt lat="49.58747" lon="1.47503">
        <ele>136</ele>
        <time>2013-07-04T13:28:11Z</time>
      </trkpt>
      <trkpt lat="49.58738" lon="1.47508">
        <ele>136</ele>
        <time>2013-07-04T13:28:22Z</time>
      </trkpt>
      <trkpt lat="49.58729" lon="1.47514">
        <ele>136</ele>
        <time>2013-07-04T13:28:33Z</time>
      </trkpt>
      <trkpt lat="49.58721" lon="1.4752">
        <ele>136</ele>
        <time>2013-07-04T13:28:43Z</time>
      </trkpt>
      <trkpt lat="49.58713" lon="1.47526">
        <ele>136</ele>
        <time>2013-07-04T13:28:52Z</time>
      </trkpt>
      <trkpt lat="49.58704" lon="1.47532">
        <ele>136</ele>
        <time>2013-07-04T13:29:02Z</time>
      </trkpt>
      <trkpt lat="49.58696" lon="1.47538">
        <ele>136</ele>
        <time>2013-07-04T13:29:12Z</time>
      </trkpt>
      <trkpt lat="49.58687" lon="1.47546">
        <ele>136</ele>
        <time>2013-07-04T13:29:21Z</time>
      </trkpt>
      <trkpt lat="49.58679" lon="1.47552">
        <ele>136</ele>
        <time>2013-07-04T13:29:30Z</time>
      </trkpt>
      <trkpt lat="49.58671" lon="1.4756">
        <ele>136</ele>
        <time>2013-07-04T13:29:39Z</time>
      </trkpt>
      <trkpt lat="49.58663" lon="1.47568">
        <ele>136</ele>
        <time>2013-07-04T13:29:48Z</time>
      </trkpt>
      <trkpt lat="49.58655" lon="1.47577">
        <ele>136</ele>
        <time>2013-07-04T13:29:57Z</time>
      </trkpt>
      <trkpt lat="49.58647" lon="1.47587">
        <ele>136</ele>
        <time>2013-07-04T13:30:06Z</time>
      </trkpt>
      <trkpt lat="49.5864" lon="1.47596">
        <ele>136</ele>
        <time>2013-07-04T13:30:14Z</time>
      </trkpt>
      <trkpt lat="49.58632" lon="1.47604">
        <ele>136</ele>
        <time>2013-07-04T13:30:22Z</time>
      </trkpt>
      <trkpt lat="49.58624" lon="1.47615">
        <ele>141</ele>
        <time>2013-07-04T13:30:31Z</time>
      </trkpt>
      <trkpt lat="49.58617" lon="1.47624">
        <ele>141</ele>
        <time>2013-07-04T13:30:39Z</time>
      </trkpt>
      <trkpt lat="49.58609" lon="1.47634">
        <ele>141</ele>
        <time>2013-07-04T13:30:48Z</time>
      </trkpt>
      <trkpt lat="49.58602" lon="1.47644">
        <ele>141</ele>
        <time>2013-07-04T13:30:57Z</time>
      </trkpt>
      <trkpt lat="49.58594" lon="1.47653">
        <ele>141</ele>
        <time>2013-07-04T13:31:05Z</time>
      </trkpt>
      <trkpt lat="49.58587" lon="1.47662">
        <ele>141</ele>
        <time>2013-07-04T13:31:13Z</time>
      </trkpt>
      <trkpt lat="49.58579" lon="1.47672">
        <ele>141</ele>
        <time>2013-07-04T13:31:22Z</time>
      </trkpt>
      <trkpt lat="49.58573" lon="1.47682">
        <ele>141</ele>
        <time>2013-07-04T13:31:30Z</time>
      </trkpt>
      <trkpt lat="49.58565" lon="1.47691">
        <ele>141</ele>
        <time>2013-07-04T13:31:38Z</time>
      </trkpt>
      <trkpt lat="49.58558" lon="1.47701">
        <ele>141</ele>
        <time>2013-07-04T13:31:46Z</time>
      </trkpt>
      <trkpt lat="49.58551" lon="1.4771">
        <ele>141</ele>
        <time>2013-07-04T13:31:53Z</time>
      </trkpt>
      <trkpt lat="49.58543" lon="1.4772">
        <ele>141</ele>
        <time>2013-07-04T13:32:01Z</time>
      </trkpt>
      <trkpt lat="49.58536" lon="1.47729">
        <ele>141</ele>
        <time>2013-07-04T13:32:09Z</time>
      </trkpt>
      <trkpt lat="49.58529" lon="1.47738">
        <ele>141</ele>
        <time>2013-07-04T13:32:17Z</time>
      </trkpt>
      <trkpt lat="49.58522" lon="1.47748">
        <ele>141</ele>
        <time>2013-07-04T13:32:25Z</time>
      </trkpt>
      <trkpt lat="49.58514" lon="1.47758">
        <ele>141</ele>
        <time>2013-07-04T13:32:33Z</time>
      </trkpt>
      <trkpt lat="49.58506" lon="1.47766">
        <ele>141</ele>
        <time>2013-07-04T13:32:41Z</time>
      </trkpt>
      <trkpt lat="49.58502" lon="1.47778">
        <ele>141</ele>
        <time>2013-07-04T13:34:03Z</time>
      </trkpt>
      <trkpt lat="49.58494" lon="1.47786">
        <ele>141</ele>
        <time>2013-07-04T13:34:30Z</time>
      </trkpt>
      <trkpt lat="49.58486" lon="1.47793">
        <ele>141</ele>
        <time>2013-07-04T13:34:39Z</time>
      </trkpt>
      <trkpt lat="49.58478" lon="1.47803">
        <ele>141</ele>
        <time>2013-07-04T13:34:46Z</time>
      </trkpt>
      <trkpt lat="49.58471" lon="1.47812">
        <ele>141</ele>
        <time>2013-07-04T13:34:53Z</time>
      </trkpt>
      <trkpt lat="49.58463" lon="1.47822">
        <ele>141</ele>
        <time>2013-07-04T13:35:01Z</time>
      </trkpt>
      <trkpt lat="49.58456" lon="1.47832">
        <ele>141</ele>
        <time>2013-07-04T13:35:09Z</time>
      </trkpt>
      <trkpt lat="49.58449" lon="1.47841">
        <ele>141</ele>
        <time>2013-07-04T13:35:16Z</time>
      </trkpt>
      <trkpt lat="49.58442" lon="1.47851">
        <ele>141</ele>
        <time>2013-07-04T13:35:23Z</time>
      </trkpt>
      <trkpt lat="49.58434" lon="1.4786">
        <ele>141</ele>
        <time>2013-07-04T13:35:30Z</time>
      </trkpt>
      <trkpt lat="49.58426" lon="1.4787">
        <ele>141</ele>
        <time>2013-07-04T13:35:38Z</time>
      </trkpt>
      <trkpt lat="49.5842" lon="1.47881">
        <ele>141</ele>
        <time>2013-07-04T13:35:45Z</time>
      </trkpt>
      <trkpt lat="49.58412" lon="1.47891">
        <ele>141</ele>
        <time>2013-07-04T13:35:53Z</time>
      </trkpt>
      <trkpt lat="49.58405" lon="1.479">
        <ele>141</ele>
        <time>2013-07-04T13:36:00Z</time>
      </trkpt>
      <trkpt lat="49.58397" lon="1.47909">
        <ele>141</ele>
        <time>2013-07-04T13:36:08Z</time>
      </trkpt>
      <trkpt lat="49.5839" lon="1.47918">
        <ele>141</ele>
        <time>2013-07-04T13:36:16Z</time>
      </trkpt>
      <trkpt lat="49.58382" lon="1.47927">
        <ele>141</ele>
        <time>2013-07-04T13:36:23Z</time>
      </trkpt>
      <trkpt lat="49.58375" lon="1.47937">
        <ele>141</ele>
        <time>2013-07-04T13:36:31Z</time>
      </trkpt>
      <trkpt lat="49.58368" lon="1.47947">
        <ele>141</ele>
        <time>2013-07-04T13:36:38Z</time>
      </trkpt>
      <trkpt lat="49.58361" lon="1.47956">
        <ele>141</ele>
        <time>2013-07-04T13:36:45Z</time>
      </trkpt>
      <trkpt lat="49.58354" lon="1.47966">
        <ele>141</ele>
        <time>2013-07-04T13:36:52Z</time>
      </trkpt>
      <trkpt lat="49.58347" lon="1.47975">
        <ele>141</ele>
        <time>2013-07-04T13:36:59Z</time>
      </trkpt>
      <trkpt lat="49.5834" lon="1.47984">
        <ele>141</ele>
        <time>2013-07-04T13:37:06Z</time>
      </trkpt>
      <trkpt lat="49.58332" lon="1.47993">
        <ele>141</ele>
        <time>2013-07-04T13:37:13Z</time>
      </trkpt>
      <trkpt lat="49.58325" lon="1.48002">
        <ele>141</ele>
        <time>2013-07-04T13:37:20Z</time>
      </trkpt>
      <trkpt lat="49.58318" lon="1.48013">
        <ele>141</ele>
        <time>2013-07-04T13:37:27Z</time>
      </trkpt>
      <trkpt lat="49.5831" lon="1.48023">
        <ele>141</ele>
        <time>2013-07-04T13:37:35Z</time>
      </trkpt>
      <trkpt lat="49.58303" lon="1.48032">
        <ele>141</ele>
        <time>2013-07-04T13:37:43Z</time>
      </trkpt>
      <trkpt lat="49.58296" lon="1.48041">
        <ele>141</ele>
        <time>2013-07-04T13:37:50Z</time>
      </trkpt>
      <trkpt lat="49.58288" lon="1.4805">
        <ele>141</ele>
        <time>2013-07-04T13:37:58Z</time>
      </trkpt>
      <trkpt lat="49.58281" lon="1.48059">
        <ele>141</ele>
        <time>2013-07-04T13:38:05Z</time>
      </trkpt>
      <trkpt lat="49.58274" lon="1.4807">
        <ele>141</ele>
        <time>2013-07-04T13:38:12Z</time>
      </trkpt>
      <trkpt lat="49.58267" lon="1.48079">
        <ele>141</ele>
        <time>2013-07-04T13:38:19Z</time>
      </trkpt>
      <trkpt lat="49.5826" lon="1.48089">
        <ele>141</ele>
        <time>2013-07-04T13:38:27Z</time>
      </trkpt>
      <trkpt lat="49.58252" lon="1.48099">
        <ele>141</ele>
        <time>2013-07-04T13:38:35Z</time>
      </trkpt>
      <trkpt lat="49.58245" lon="1.48108">
        <ele>141</ele>
        <time>2013-07-04T13:38:43Z</time>
      </trkpt>
      <trkpt lat="49.58238" lon="1.48117">
        <ele>141</ele>
        <time>2013-07-04T13:38:50Z</time>
      </trkpt>
      <trkpt lat="49.58231" lon="1.48126">
        <ele>141</ele>
        <time>2013-07-04T13:38:57Z</time>
      </trkpt>
      <trkpt lat="49.58223" lon="1.48137">
        <ele>141</ele>
        <time>2013-07-04T13:39:05Z</time>
      </trkpt>
      <trkpt lat="49.58216" lon="1.48146">
        <ele>141</ele>
        <time>2013-07-04T13:39:12Z</time>
      </trkpt>
      <trkpt lat="49.58209" lon="1.48155">
        <ele>141</ele>
        <time>2013-07-04T13:39:19Z</time>
      </trkpt>
      <trkpt lat="49.58202" lon="1.48165">
        <ele>141</ele>
        <time>2013-07-04T13:39:27Z</time>
      </trkpt>
      <trkpt lat="49.58194" lon="1.48174">
        <ele>141</ele>
        <time>2013-07-04T13:39:35Z</time>
      </trkpt>
      <trkpt lat="49.58186" lon="1.48183">
        <ele>141</ele>
        <time>2013-07-04T13:39:42Z</time>
      </trkpt>
      <trkpt lat="49.58179" lon="1.48192">
        <ele>141</ele>
        <time>2013-07-04T13:39:50Z</time>
      </trkpt>
      <trkpt lat="49.58172" lon="1.48202">
        <ele>141</ele>
        <time>2013-07-04T13:39:59Z</time>
      </trkpt>
      <trkpt lat="49.58165" lon="1.48213">
        <ele>141</ele>
        <time>2013-07-04T13:42:16Z</time>
      </trkpt>
      <trkpt lat="49.58157" lon="1.48223">
        <ele>141</ele>
        <time>2013-07-04T13:42:24Z</time>
      </trkpt>
      <trkpt lat="49.5815" lon="1.48231">
        <ele>141</ele>
        <time>2013-07-04T13:42:31Z</time>
      </trkpt>
      <trkpt lat="49.58143" lon="1.48242">
        <ele>141</ele>
        <time>2013-07-04T13:42:39Z</time>
      </trkpt>
      <trkpt lat="49.58136" lon="1.48252">
        <ele>141</ele>
        <time>2013-07-04T13:42:47Z</time>
      </trkpt>
      <trkpt lat="49.58129" lon="1.48262">
        <ele>141</ele>
        <time>2013-07-04T13:42:55Z</time>
      </trkpt>
      <trkpt lat="49.58121" lon="1.48272">
        <ele>141</ele>
        <time>2013-07-04T13:43:03Z</time>
      </trkpt>
      <trkpt lat="49.58114" lon="1.48283">
        <ele>141</ele>
        <time>2013-07-04T13:43:10Z</time>
      </trkpt>
      <trkpt lat="49.58108" lon="1.48293">
        <ele>141</ele>
        <time>2013-07-04T13:43:17Z</time>
      </trkpt>
      <trkpt lat="49.58102" lon="1.48304">
        <ele>141</ele>
        <time>2013-07-04T13:43:24Z</time>
      </trkpt>
      <trkpt lat="49.58096" lon="1.48316">
        <ele>136</ele>
        <time>2013-07-04T13:43:32Z</time>
      </trkpt>
      <trkpt lat="49.5809" lon="1.48327">
        <ele>136</ele>
        <time>2013-07-04T13:43:39Z</time>
      </trkpt>
      <trkpt lat="49.58085" lon="1.4834">
        <ele>136</ele>
        <time>2013-07-04T13:43:46Z</time>
      </trkpt>
      <trkpt lat="49.58079" lon="1.48352">
        <ele>136</ele>
        <time>2013-07-04T13:43:53Z</time>
      </trkpt>
      <trkpt lat="49.58074" lon="1.48364">
        <ele>136</ele>
        <time>2013-07-04T13:44:00Z</time>
      </trkpt>
      <trkpt lat="49.58068" lon="1.48377">
        <ele>136</ele>
        <time>2013-07-04T13:44:07Z</time>
      </trkpt>
      <trkpt lat="49.58063" lon="1.4839">
        <ele>136</ele>
        <time>2013-07-04T13:44:15Z</time>
      </trkpt>
      <trkpt lat="49.58058" lon="1.48403">
        <ele>136</ele>
        <time>2013-07-04T13:44:22Z</time>
      </trkpt>
      <trkpt lat="49.58053" lon="1.48415">
        <ele>136</ele>
        <time>2013-07-04T13:44:29Z</time>
      </trkpt>
      <trkpt lat="49.58047" lon="1.48427">
        <ele>136</ele>
        <time>2013-07-04T13:44:37Z</time>
      </trkpt>
      <trkpt lat="49.58041" lon="1.4844">
        <ele>136</ele>
        <time>2013-07-04T13:44:45Z</time>
      </trkpt>
      <trkpt lat="49.58037" lon="1.48453">
        <ele>136</ele>
        <time>2013-07-04T13:44:52Z</time>
      </trkpt>
      <trkpt lat="49.58031" lon="1.48466">
        <ele>136</ele>
        <time>2013-07-04T13:44:59Z</time>
      </trkpt>
      <trkpt lat="49.58025" lon="1.48476">
        <ele>129</ele>
        <time>2013-07-04T13:45:05Z</time>
      </trkpt>
      <trkpt lat="49.5802" lon="1.48488">
        <ele>129</ele>
        <time>2013-07-04T13:45:12Z</time>
      </trkpt>
      <trkpt lat="49.58015" lon="1.48501">
        <ele>129</ele>
        <time>2013-07-04T13:45:19Z</time>
      </trkpt>
      <trkpt lat="49.5801" lon="1.48512">
        <ele>129</ele>
        <time>2013-07-04T13:45:26Z</time>
      </trkpt>
      <trkpt lat="49.58005" lon="1.48525">
        <ele>129</ele>
        <time>2013-07-04T13:45:34Z</time>
      </trkpt>
      <trkpt lat="49.58" lon="1.48537">
        <ele>129</ele>
        <time>2013-07-04T13:45:41Z</time>
      </trkpt>
      <trkpt lat="49.57996" lon="1.48551">
        <ele>124</ele>
        <time>2013-07-04T13:45:48Z</time>
      </trkpt>
      <trkpt lat="49.57992" lon="1.48563">
        <ele>124</ele>
        <time>2013-07-04T13:45:55Z</time>
      </trkpt>
      <trkpt lat="49.57988" lon="1.48577">
        <ele>124</ele>
        <time>2013-07-04T13:46:02Z</time>
      </trkpt>
      <trkpt lat="49.57985" lon="1.4859">
        <ele>124</ele>
        <time>2013-07-04T13:46:09Z</time>
      </trkpt>
      <trkpt lat="49.57982" lon="1.48604">
        <ele>124</ele>
        <time>2013-07-04T13:46:16Z</time>
      </trkpt>
      <trkpt lat="49.57979" lon="1.48618">
        <ele>124</ele>
        <time>2013-07-04T13:46:23Z</time>
      </trkpt>
      <trkpt lat="49.57977" lon="1.48634">
        <ele>124</ele>
        <time>2013-07-04T13:46:30Z</time>
      </trkpt>
      <trkpt lat="49.57977" lon="1.48648">
        <ele>124</ele>
        <time>2013-07-04T13:46:37Z</time>
      </trkpt>
      <trkpt lat="49.57975" lon="1.48662">
        <ele>124</ele>
        <time>2013-07-04T13:46:44Z</time>
      </trkpt>
      <trkpt lat="49.57972" lon="1.48677">
        <ele>124</ele>
        <time>2013-07-04T13:46:52Z</time>
      </trkpt>
      <trkpt lat="49.57974" lon="1.48692">
        <ele>124</ele>
        <time>2013-07-04T13:46:59Z</time>
      </trkpt>
      <trkpt lat="49.57975" lon="1.48706">
        <ele>124</ele>
        <time>2013-07-04T13:47:06Z</time>
      </trkpt>
      <trkpt lat="49.57978" lon="1.4872">
        <ele>124</ele>
        <time>2013-07-04T13:47:13Z</time>
      </trkpt>
      <trkpt lat="49.57977" lon="1.48734">
        <ele>124</ele>
        <time>2013-07-04T13:47:21Z</time>
      </trkpt>
      <trkpt lat="49.57973" lon="1.48747">
        <ele>124</ele>
        <time>2013-07-04T13:47:29Z</time>
      </trkpt>
      <trkpt lat="49.57966" lon="1.48757">
        <ele>124</ele>
        <time>2013-07-04T13:47:37Z</time>
      </trkpt>
      <trkpt lat="49.57957" lon="1.4876">
        <ele>124</ele>
        <time>2013-07-04T13:47:44Z</time>
      </trkpt>
      <trkpt lat="49.57947" lon="1.4876">
        <ele>124</ele>
        <time>2013-07-04T13:47:51Z</time>
      </trkpt>
      <trkpt lat="49.57938" lon="1.4876">
        <ele>124</ele>
        <time>2013-07-04T13:47:58Z</time>
      </trkpt>
      <trkpt lat="49.57928" lon="1.48762">
        <ele>119</ele>
        <time>2013-07-04T13:48:05Z</time>
      </trkpt>
      <trkpt lat="49.57917" lon="1.48763">
        <ele>119</ele>
        <time>2013-07-04T13:48:13Z</time>
      </trkpt>
      <trkpt lat="49.57907" lon="1.48765">
        <ele>119</ele>
        <time>2013-07-04T13:48:21Z</time>
      </trkpt>
      <trkpt lat="49.57898" lon="1.48765">
        <ele>119</ele>
        <time>2013-07-04T13:48:28Z</time>
      </trkpt>
      <trkpt lat="49.5789" lon="1.48774">
        <ele>119</ele>
        <time>2013-07-04T13:48:38Z</time>
      </trkpt>
      <trkpt lat="49.57888" lon="1.4879">
        <ele>119</ele>
        <time>2013-07-04T13:48:46Z</time>
      </trkpt>
      <trkpt lat="49.57884" lon="1.48804">
        <ele>119</ele>
        <time>2013-07-04T13:48:54Z</time>
      </trkpt>
      <trkpt lat="49.57883" lon="1.48819">
        <ele>119</ele>
        <time>2013-07-04T13:49:01Z</time>
      </trkpt>
      <trkpt lat="49.57881" lon="1.48832">
        <ele>119</ele>
        <time>2013-07-04T13:49:08Z</time>
      </trkpt>
      <trkpt lat="49.57879" lon="1.48847">
        <ele>119</ele>
        <time>2013-07-04T13:49:16Z</time>
      </trkpt>
      <trkpt lat="49.57877" lon="1.48863">
        <ele>119</ele>
        <time>2013-07-04T13:49:24Z</time>
      </trkpt>
      <trkpt lat="49.57874" lon="1.48879">
        <ele>119</ele>
        <time>2013-07-04T13:49:32Z</time>
      </trkpt>
      <trkpt lat="49.57872" lon="1.48893">
        <ele>119</ele>
        <time>2013-07-04T13:49:39Z</time>
      </trkpt>
      <trkpt lat="49.57867" lon="1.48906">
        <ele>119</ele>
        <time>2013-07-04T13:49:46Z</time>
      </trkpt>
      <trkpt lat="49.57864" lon="1.48919">
        <ele>119</ele>
        <time>2013-07-04T13:49:59Z</time>
      </trkpt>
      <trkpt lat="49.5786" lon="1.48934">
        <ele>119</ele>
        <time>2013-07-04T13:50:07Z</time>
      </trkpt>
      <trkpt lat="49.57856" lon="1.48946">
        <ele>119</ele>
        <time>2013-07-04T13:50:15Z</time>
      </trkpt>
      <trkpt lat="49.57851" lon="1.4896">
        <ele>119</ele>
        <time>2013-07-04T13:50:23Z</time>
      </trkpt>
      <trkpt lat="49.57845" lon="1.48971">
        <ele>119</ele>
        <time>2013-07-04T13:50:29Z</time>
      </trkpt>
      <trkpt lat="49.57838" lon="1.48983">
        <ele>119</ele>
        <time>2013-07-04T13:50:36Z</time>
      </trkpt>
      <trkpt lat="49.57831" lon="1.48995">
        <ele>119</ele>
        <time>2013-07-04T13:50:44Z</time>
      </trkpt>
      <trkpt lat="49.57826" lon="1.49006">
        <ele>119</ele>
        <time>2013-07-04T13:50:51Z</time>
      </trkpt>
      <trkpt lat="49.57819" lon="1.49017">
        <ele>119</ele>
        <time>2013-07-04T13:50:58Z</time>
      </trkpt>
      <trkpt lat="49.57814" lon="1.4903">
        <ele>119</ele>
        <time>2013-07-04T13:51:06Z</time>
      </trkpt>
      <trkpt lat="49.57808" lon="1.49041">
        <ele>119</ele>
        <time>2013-07-04T13:51:14Z</time>
      </trkpt>
      <trkpt lat="49.57803" lon="1.49052">
        <ele>119</ele>
        <time>2013-07-04T13:51:22Z</time>
      </trkpt>
      <trkpt lat="49.57796" lon="1.49062">
        <ele>119</ele>
        <time>2013-07-04T13:51:30Z</time>
      </trkpt>
      <trkpt lat="49.5779" lon="1.49074">
        <ele>119</ele>
        <time>2013-07-04T13:51:59Z</time>
      </trkpt>
      <trkpt lat="49.57784" lon="1.49085">
        <ele>119</ele>
        <time>2013-07-04T13:52:16Z</time>
      </trkpt>
      <trkpt lat="49.57778" lon="1.49096">
        <ele>119</ele>
        <time>2013-07-04T13:52:25Z</time>
      </trkpt>
      <trkpt lat="49.57772" lon="1.49107">
        <ele>119</ele>
        <time>2013-07-04T13:52:33Z</time>
      </trkpt>
      <trkpt lat="49.57767" lon="1.4912">
        <ele>119</ele>
        <time>2013-07-04T13:52:41Z</time>
      </trkpt>
      <trkpt lat="49.57761" lon="1.49133">
        <ele>119</ele>
        <time>2013-07-04T13:52:49Z</time>
      </trkpt>
      <trkpt lat="49.57755" lon="1.49145">
        <ele>119</ele>
        <time>2013-07-04T13:52:58Z</time>
      </trkpt>
      <trkpt lat="49.57751" lon="1.49157">
        <ele>119</ele>
        <time>2013-07-04T13:55:14Z</time>
      </trkpt>
      <trkpt lat="49.57746" lon="1.49171">
        <ele>119</ele>
        <time>2013-07-04T13:55:24Z</time>
      </trkpt>
      <trkpt lat="49.57742" lon="1.49183">
        <ele>124</ele>
        <time>2013-07-04T13:55:32Z</time>
      </trkpt>
      <trkpt lat="49.57738" lon="1.49196">
        <ele>124</ele>
        <time>2013-07-04T13:55:41Z</time>
      </trkpt>
      <trkpt lat="49.57734" lon="1.49208">
        <ele>124</ele>
        <time>2013-07-04T13:55:50Z</time>
      </trkpt>
      <trkpt lat="49.57729" lon="1.49221">
        <ele>124</ele>
        <time>2013-07-04T13:55:59Z</time>
      </trkpt>
      <trkpt lat="49.57723" lon="1.49234">
        <ele>124</ele>
        <time>2013-07-04T13:56:07Z</time>
      </trkpt>
      <trkpt lat="49.57719" lon="1.49247">
        <ele>124</ele>
        <time>2013-07-04T13:56:16Z</time>
      </trkpt>
      <trkpt lat="49.57714" lon="1.49261">
        <ele>124</ele>
        <time>2013-07-04T13:56:25Z</time>
      </trkpt>
      <trkpt lat="49.57709" lon="1.49273">
        <ele>124</ele>
        <time>2013-07-04T13:56:33Z</time>
      </trkpt>
      <trkpt lat="49.57703" lon="1.49286">
        <ele>124</ele>
        <time>2013-07-04T13:56:41Z</time>
      </trkpt>
      <trkpt lat="49.57697" lon="1.49297">
        <ele>124</ele>
        <time>2013-07-04T13:56:49Z</time>
      </trkpt>
      <trkpt lat="49.57693" lon="1.4931">
        <ele>124</ele>
        <time>2013-07-04T13:56:58Z</time>
      </trkpt>
      <trkpt lat="49.57689" lon="1.49323">
        <ele>124</ele>
        <time>2013-07-04T13:57:06Z</time>
      </trkpt>
      <trkpt lat="49.57685" lon="1.49336">
        <ele>124</ele>
        <time>2013-07-04T13:57:14Z</time>
      </trkpt>
      <trkpt lat="49.5768" lon="1.49349">
        <ele>124</ele>
        <time>2013-07-04T13:57:22Z</time>
      </trkpt>
      <trkpt lat="49.57675" lon="1.49362">
        <ele>124</ele>
        <time>2013-07-04T13:57:30Z</time>
      </trkpt>
      <trkpt lat="49.5767" lon="1.49375">
        <ele>124</ele>
        <time>2013-07-04T13:57:38Z</time>
      </trkpt>
      <trkpt lat="49.57665" lon="1.49388">
        <ele>124</ele>
        <time>2013-07-04T13:57:47Z</time>
      </trkpt>
      <trkpt lat="49.57659" lon="1.49401">
        <ele>124</ele>
        <time>2013-07-04T13:57:55Z</time>
      </trkpt>
      <trkpt lat="49.57655" lon="1.49413">
        <ele>124</ele>
        <time>2013-07-04T13:58:03Z</time>
      </trkpt>
      <trkpt lat="49.5765" lon="1.49426">
        <ele>124</ele>
        <time>2013-07-04T13:58:11Z</time>
      </trkpt>
      <trkpt lat="49.57645" lon="1.49439">
        <ele>130</ele>
        <time>2013-07-04T13:58:19Z</time>
      </trkpt>
      <trkpt lat="49.57639" lon="1.49449">
        <ele>130</ele>
        <time>2013-07-04T13:58:27Z</time>
      </trkpt>
      <trkpt lat="49.57634" lon="1.49461">
        <ele>130</ele>
        <time>2013-07-04T13:58:35Z</time>
      </trkpt>
      <trkpt lat="49.57628" lon="1.49473">
        <ele>130</ele>
        <time>2013-07-04T13:58:43Z</time>
      </trkpt>
      <trkpt lat="49.57621" lon="1.49485">
        <ele>130</ele>
        <time>2013-07-04T13:58:52Z</time>
      </trkpt>
      <trkpt lat="49.57615" lon="1.49496">
        <ele>130</ele>
        <time>2013-07-04T13:59:00Z</time>
      </trkpt>
      <trkpt lat="49.5761" lon="1.49509">
        <ele>130</ele>
        <time>2013-07-04T13:59:08Z</time>
      </trkpt>
      <trkpt lat="49.57604" lon="1.4952">
        <ele>130</ele>
        <time>2013-07-04T13:59:16Z</time>
      </trkpt>
      <trkpt lat="49.57597" lon="1.49533">
        <ele>130</ele>
        <time>2013-07-04T13:59:25Z</time>
      </trkpt>
      <trkpt lat="49.57592" lon="1.49544">
        <ele>130</ele>
        <time>2013-07-04T13:59:31Z</time>
      </trkpt>
      <trkpt lat="49.57584" lon="1.49555">
        <ele>130</ele>
        <time>2013-07-04T13:59:39Z</time>
      </trkpt>
      <trkpt lat="49.57578" lon="1.49568">
        <ele>130</ele>
        <time>2013-07-04T13:59:46Z</time>
      </trkpt>
      <trkpt lat="49.57572" lon="1.49578">
        <ele>130</ele>
        <time>2013-07-04T13:59:52Z</time>
      </trkpt>
      <trkpt lat="49.57565" lon="1.49588">
        <ele>130</ele>
        <time>2013-07-04T14:00:00Z</time>
      </trkpt>
      <trkpt lat="49.57558" lon="1.49598">
        <ele>130</ele>
        <time>2013-07-04T14:00:07Z</time>
      </trkpt>
      <trkpt lat="49.57551" lon="1.49607">
        <ele>130</ele>
        <time>2013-07-04T14:00:15Z</time>
      </trkpt>
      <trkpt lat="49.57543" lon="1.49617">
        <ele>130</ele>
        <time>2013-07-04T14:00:23Z</time>
      </trkpt>
      <trkpt lat="49.57536" lon="1.49625">
        <ele>130</ele>
        <time>2013-07-04T14:00:31Z</time>
      </trkpt>
      <trkpt lat="49.57526" lon="1.49633">
        <ele>130</ele>
        <time>2013-07-04T14:00:39Z</time>
      </trkpt>
      <trkpt lat="49.57518" lon="1.49642">
        <ele>130</ele>
        <time>2013-07-04T14:00:47Z</time>
      </trkpt>
      <trkpt lat="49.57509" lon="1.4965">
        <ele>130</ele>
        <time>2013-07-04T14:00:55Z</time>
      </trkpt>
      <trkpt lat="49.57501" lon="1.49657">
        <ele>130</ele>
        <time>2013-07-04T14:01:02Z</time>
      </trkpt>
      <trkpt lat="49.57493" lon="1.49663">
        <ele>130</ele>
        <time>2013-07-04T14:01:09Z</time>
      </trkpt>
      <trkpt lat="49.57485" lon="1.49669">
        <ele>130</ele>
        <time>2013-07-04T14:01:15Z</time>
      </trkpt>
      <trkpt lat="49.57475" lon="1.49676">
        <ele>135</ele>
        <time>2013-07-04T14:01:24Z</time>
      </trkpt>
      <trkpt lat="49.57466" lon="1.49682">
        <ele>135</ele>
        <time>2013-07-04T14:01:32Z</time>
      </trkpt>
      <trkpt lat="49.57457" lon="1.49687">
        <ele>135</ele>
        <time>2013-07-04T14:01:40Z</time>
      </trkpt>
      <trkpt lat="49.57447" lon="1.49694">
        <ele>135</ele>
        <time>2013-07-04T14:01:48Z</time>
      </trkpt>
      <trkpt lat="49.57439" lon="1.497">
        <ele>135</ele>
        <time>2013-07-04T14:01:55Z</time>
      </trkpt>
      <trkpt lat="49.5743" lon="1.49706">
        <ele>135</ele>
        <time>2013-07-04T14:02:03Z</time>
      </trkpt>
      <trkpt lat="49.57421" lon="1.49711">
        <ele>135</ele>
        <time>2013-07-04T14:02:10Z</time>
      </trkpt>
      <trkpt lat="49.57412" lon="1.49718">
        <ele>135</ele>
        <time>2013-07-04T14:02:18Z</time>
      </trkpt>
      <trkpt lat="49.57403" lon="1.49724">
        <ele>135</ele>
        <time>2013-07-04T14:02:26Z</time>
      </trkpt>
      <trkpt lat="49.57395" lon="1.49731">
        <ele>135</ele>
        <time>2013-07-04T14:02:33Z</time>
      </trkpt>
      <trkpt lat="49.57386" lon="1.49738">
        <ele>135</ele>
        <time>2013-07-04T14:02:41Z</time>
      </trkpt>
      <trkpt lat="49.57378" lon="1.49744">
        <ele>135</ele>
        <time>2013-07-04T14:02:48Z</time>
      </trkpt>
      <trkpt lat="49.5737" lon="1.49752">
        <ele>135</ele>
        <time>2013-07-04T14:02:56Z</time>
      </trkpt>
      <trkpt lat="49.57363" lon="1.49761">
        <ele>135</ele>
        <time>2013-07-04T14:03:04Z</time>
      </trkpt>
      <trkpt lat="49.57356" lon="1.4977">
        <ele>135</ele>
        <time>2013-07-04T14:03:11Z</time>
      </trkpt>
      <trkpt lat="49.57349" lon="1.4978">
        <ele>135</ele>
        <time>2013-07-04T14:03:18Z</time>
      </trkpt>
      <trkpt lat="49.57343" lon="1.49791">
        <ele>135</ele>
        <time>2013-07-04T14:03:24Z</time>
      </trkpt>
      <trkpt lat="49.57336" lon="1.49802">
        <ele>135</ele>
        <time>2013-07-04T14:03:33Z</time>
      </trkpt>
      <trkpt lat="49.5733" lon="1.49815">
        <ele>135</ele>
        <time>2013-07-04T14:03:41Z</time>
      </trkpt>
      <trkpt lat="49.57326" lon="1.49829">
        <ele>141</ele>
        <time>2013-07-04T14:03:49Z</time>
      </trkpt>
      <trkpt lat="49.57321" lon="1.49841">
        <ele>141</ele>
        <time>2013-07-04T14:03:56Z</time>
      </trkpt>
      <trkpt lat="49.57316" lon="1.49854">
        <ele>141</ele>
        <time>2013-07-04T14:04:04Z</time>
      </trkpt>
      <trkpt lat="49.57312" lon="1.49868">
        <ele>141</ele>
        <time>2013-07-04T14:04:11Z</time>
      </trkpt>
      <trkpt lat="49.57309" lon="1.49882">
        <ele>141</ele>
        <time>2013-07-04T14:04:19Z</time>
      </trkpt>
      <trkpt lat="49.57306" lon="1.49896">
        <ele>141</ele>
        <time>2013-07-04T14:04:26Z</time>
      </trkpt>
      <trkpt lat="49.57304" lon="1.4991">
        <ele>141</ele>
        <time>2013-07-04T14:04:34Z</time>
      </trkpt>
      <trkpt lat="49.57301" lon="1.49924">
        <ele>141</ele>
        <time>2013-07-04T14:04:42Z</time>
      </trkpt>
      <trkpt lat="49.57298" lon="1.4994">
        <ele>141</ele>
        <time>2013-07-04T14:04:50Z</time>
      </trkpt>
      <trkpt lat="49.57296" lon="1.49954">
        <ele>141</ele>
        <time>2013-07-04T14:04:57Z</time>
      </trkpt>
      <trkpt lat="49.57294" lon="1.49969">
        <ele>141</ele>
        <time>2013-07-04T14:05:05Z</time>
      </trkpt>
      <trkpt lat="49.57293" lon="1.49985">
        <ele>141</ele>
        <time>2013-07-04T14:05:13Z</time>
      </trkpt>
      <trkpt lat="49.5729" lon="1.5">
        <ele>141</ele>
        <time>2013-07-04T14:05:21Z</time>
      </trkpt>
      <trkpt lat="49.57288" lon="1.50015">
        <ele>141</ele>
        <time>2013-07-04T14:05:29Z</time>
      </trkpt>
      <trkpt lat="49.57285" lon="1.50029">
        <ele>141</ele>
        <time>2013-07-04T14:05:37Z</time>
      </trkpt>
      <trkpt lat="49.5728" lon="1.50043">
        <ele>141</ele>
        <time>2013-07-04T14:05:45Z</time>
      </trkpt>
      <trkpt lat="49.57277" lon="1.50057">
        <ele>141</ele>
        <time>2013-07-04T14:05:53Z</time>
      </trkpt>
      <trkpt lat="49.57273" lon="1.50072">
        <ele>141</ele>
        <time>2013-07-04T14:06:01Z</time>
      </trkpt>
      <trkpt lat="49.57268" lon="1.50085">
        <ele>147</ele>
        <time>2013-07-04T14:06:08Z</time>
      </trkpt>
      <trkpt lat="49.57264" lon="1.50098">
        <ele>147</ele>
        <time>2013-07-04T14:06:15Z</time>
      </trkpt>
      <trkpt lat="49.57259" lon="1.50111">
        <ele>147</ele>
        <time>2013-07-04T14:06:24Z</time>
      </trkpt>
      <trkpt lat="49.57255" lon="1.50125">
        <ele>147</ele>
        <time>2013-07-04T14:06:31Z</time>
      </trkpt>
      <trkpt lat="49.5725" lon="1.50138">
        <ele>147</ele>
        <time>2013-07-04T14:06:40Z</time>
      </trkpt>
      <trkpt lat="49.57245" lon="1.50151">
        <ele>147</ele>
        <time>2013-07-04T14:06:48Z</time>
      </trkpt>
      <trkpt lat="49.57239" lon="1.50164">
        <ele>147</ele>
        <time>2013-07-04T14:06:56Z</time>
      </trkpt>
      <trkpt lat="49.57233" lon="1.50177">
        <ele>147</ele>
        <time>2013-07-04T14:07:04Z</time>
      </trkpt>
      <trkpt lat="49.57228" lon="1.5019">
        <ele>147</ele>
        <time>2013-07-04T14:07:13Z</time>
      </trkpt>
      <trkpt lat="49.57224" lon="1.50203">
        <ele>147</ele>
        <time>2013-07-04T14:07:22Z</time>
      </trkpt>
      <trkpt lat="49.57218" lon="1.50213">
        <ele>147</ele>
        <time>2013-07-04T14:07:47Z</time>
      </trkpt>
      <trkpt lat="49.57213" lon="1.50226">
        <ele>147</ele>
        <time>2013-07-04T14:10:52Z</time>
      </trkpt>
      <trkpt lat="49.57207" lon="1.50236">
        <ele>147</ele>
        <time>2013-07-04T14:11:00Z</time>
      </trkpt>
      <trkpt lat="49.572" lon="1.50247">
        <ele>147</ele>
        <time>2013-07-04T14:11:08Z</time>
      </trkpt>
      <trkpt lat="49.57194" lon="1.50258">
        <ele>147</ele>
        <time>2013-07-04T14:11:16Z</time>
      </trkpt>
      <trkpt lat="49.57187" lon="1.50267">
        <ele>147</ele>
        <time>2013-07-04T14:11:23Z</time>
      </trkpt>
      <trkpt lat="49.5718" lon="1.50277">
        <ele>147</ele>
        <time>2013-07-04T14:11:30Z</time>
      </trkpt>
      <trkpt lat="49.57173" lon="1.50288">
        <ele>147</ele>
        <time>2013-07-04T14:11:38Z</time>
      </trkpt>
      <trkpt lat="49.57166" lon="1.50299">
        <ele>147</ele>
        <time>2013-07-04T14:11:45Z</time>
      </trkpt>
      <trkpt lat="49.57159" lon="1.50309">
        <ele>147</ele>
        <time>2013-07-04T14:11:53Z</time>
      </trkpt>
      <trkpt lat="49.57151" lon="1.50318">
        <ele>147</ele>
        <time>2013-07-04T14:12:02Z</time>
      </trkpt>
      <trkpt lat="49.57144" lon="1.50328">
        <ele>147</ele>
        <time>2013-07-04T14:12:10Z</time>
      </trkpt>
      <trkpt lat="49.57138" lon="1.50338">
        <ele>152</ele>
        <time>2013-07-04T14:12:18Z</time>
      </trkpt>
      <trkpt lat="49.5713" lon="1.50346">
        <ele>152</ele>
        <time>2013-07-04T14:12:25Z</time>
      </trkpt>
      <trkpt lat="49.57123" lon="1.50354">
        <ele>152</ele>
        <time>2013-07-04T14:12:31Z</time>
      </trkpt>
      <trkpt lat="49.57115" lon="1.50363">
        <ele>152</ele>
        <time>2013-07-04T14:12:39Z</time>
      </trkpt>
      <trkpt lat="49.57107" lon="1.50372">
        <ele>152</ele>
        <time>2013-07-04T14:12:46Z</time>
      </trkpt>
      <trkpt lat="49.57099" lon="1.5038">
        <ele>152</ele>
        <time>2013-07-04T14:12:53Z</time>
      </trkpt>
      <trkpt lat="49.57091" lon="1.50388">
        <ele>152</ele>
        <time>2013-07-04T14:13:00Z</time>
      </trkpt>
      <trkpt lat="49.57083" lon="1.50395">
        <ele>152</ele>
        <time>2013-07-04T14:13:07Z</time>
      </trkpt>
      <trkpt lat="49.57075" lon="1.50402">
        <ele>152</ele>
        <time>2013-07-04T14:13:14Z</time>
      </trkpt>
      <trkpt lat="49.57067" lon="1.50409">
        <ele>152</ele>
        <time>2013-07-04T14:13:25Z</time>
      </trkpt>
      <trkpt lat="49.57058" lon="1.50417">
        <ele>152</ele>
        <time>2013-07-04T14:13:33Z</time>
      </trkpt>
      <trkpt lat="49.57049" lon="1.50423">
        <ele>152</ele>
        <time>2013-07-04T14:13:40Z</time>
      </trkpt>
      <trkpt lat="49.57041" lon="1.50429">
        <ele>152</ele>
        <time>2013-07-04T14:13:47Z</time>
      </trkpt>
      <trkpt lat="49.57031" lon="1.50436">
        <ele>152</ele>
        <time>2013-07-04T14:13:55Z</time>
      </trkpt>
      <trkpt lat="49.57022" lon="1.50442">
        <ele>152</ele>
        <time>2013-07-04T14:14:03Z</time>
      </trkpt>
      <trkpt lat="49.57014" lon="1.50448">
        <ele>152</ele>
        <time>2013-07-04T14:14:10Z</time>
      </trkpt>
      <trkpt lat="49.57005" lon="1.50454">
        <ele>152</ele>
        <time>2013-07-04T14:14:18Z</time>
      </trkpt>
      <trkpt lat="49.56995" lon="1.50461">
        <ele>152</ele>
        <time>2013-07-04T14:14:26Z</time>
      </trkpt>
      <trkpt lat="49.56986" lon="1.50464">
        <ele>152</ele>
        <time>2013-07-04T14:14:33Z</time>
      </trkpt>
      <trkpt lat="49.56977" lon="1.5047">
        <ele>152</ele>
        <time>2013-07-04T14:14:41Z</time>
      </trkpt>
      <trkpt lat="49.56968" lon="1.50474">
        <ele>152</ele>
        <time>2013-07-04T14:14:49Z</time>
      </trkpt>
      <trkpt lat="49.56958" lon="1.50478">
        <ele>152</ele>
        <time>2013-07-04T14:14:56Z</time>
      </trkpt>
      <trkpt lat="49.56949" lon="1.50482">
        <ele>152</ele>
        <time>2013-07-04T14:15:04Z</time>
      </trkpt>
      <trkpt lat="49.5694" lon="1.50486">
        <ele>152</ele>
        <time>2013-07-04T14:15:12Z</time>
      </trkpt>
      <trkpt lat="49.56929" lon="1.50489">
        <ele>152</ele>
        <time>2013-07-04T14:15:21Z</time>
      </trkpt>
      <trkpt lat="49.5692" lon="1.50495">
        <ele>152</ele>
        <time>2013-07-04T14:15:28Z</time>
      </trkpt>
      <trkpt lat="49.5691" lon="1.50498">
        <ele>152</ele>
        <time>2013-07-04T14:15:49Z</time>
      </trkpt>
      <trkpt lat="49.569" lon="1.50503">
        <ele>152</ele>
        <time>2013-07-04T14:15:57Z</time>
      </trkpt>
      <trkpt lat="49.56891" lon="1.50507">
        <ele>152</ele>
        <time>2013-07-04T14:16:04Z</time>
      </trkpt>
      <trkpt lat="49.56881" lon="1.50509">
        <ele>152</ele>
        <time>2013-07-04T14:16:12Z</time>
      </trkpt>
      <trkpt lat="49.56873" lon="1.50515">
        <ele>152</ele>
        <time>2013-07-04T14:16:19Z</time>
      </trkpt>
      <trkpt lat="49.56867" lon="1.50527">
        <ele>152</ele>
        <time>2013-07-04T14:16:28Z</time>
      </trkpt>
      <trkpt lat="49.56863" lon="1.50541">
        <ele>152</ele>
        <time>2013-07-04T14:16:37Z</time>
      </trkpt>
      <trkpt lat="49.5686" lon="1.50555">
        <ele>152</ele>
        <time>2013-07-04T14:16:46Z</time>
      </trkpt>
      <trkpt lat="49.56857" lon="1.50568">
        <ele>157</ele>
        <time>2013-07-04T14:16:54Z</time>
      </trkpt>
      <trkpt lat="49.56854" lon="1.50582">
        <ele>157</ele>
        <time>2013-07-04T14:17:01Z</time>
      </trkpt>
      <trkpt lat="49.56851" lon="1.50595">
        <ele>157</ele>
        <time>2013-07-04T14:17:09Z</time>
      </trkpt>
      <trkpt lat="49.56847" lon="1.5061">
        <ele>157</ele>
        <time>2013-07-04T14:17:19Z</time>
      </trkpt>
      <trkpt lat="49.56845" lon="1.50624">
        <ele>157</ele>
        <time>2013-07-04T14:17:27Z</time>
      </trkpt>
      <trkpt lat="49.56841" lon="1.50638">
        <ele>157</ele>
        <time>2013-07-04T14:17:35Z</time>
      </trkpt>
      <trkpt lat="49.56839" lon="1.50651">
        <ele>157</ele>
        <time>2013-07-04T14:17:42Z</time>
      </trkpt>
      <trkpt lat="49.56837" lon="1.50666">
        <ele>157</ele>
        <time>2013-07-04T14:17:51Z</time>
      </trkpt>
      <trkpt lat="49.56834" lon="1.50681">
        <ele>157</ele>
        <time>2013-07-04T14:17:59Z</time>
      </trkpt>
      <trkpt lat="49.56831" lon="1.50694">
        <ele>157</ele>
        <time>2013-07-04T14:18:06Z</time>
      </trkpt>
      <trkpt lat="49.56828" lon="1.50709">
        <ele>157</ele>
        <time>2013-07-04T14:18:14Z</time>
      </trkpt>
      <trkpt lat="49.56826" lon="1.50723">
        <ele>157</ele>
        <time>2013-07-04T14:18:22Z</time>
      </trkpt>
      <trkpt lat="49.56822" lon="1.50736">
        <ele>157</ele>
        <time>2013-07-04T14:18:30Z</time>
      </trkpt>
      <trkpt lat="49.56819" lon="1.50751">
        <ele>157</ele>
        <time>2013-07-04T14:18:38Z</time>
      </trkpt>
      <trkpt lat="49.56816" lon="1.50765">
        <ele>157</ele>
        <time>2013-07-04T14:18:46Z</time>
      </trkpt>
      <trkpt lat="49.56813" lon="1.50779">
        <ele>157</ele>
        <time>2013-07-04T14:18:53Z</time>
      </trkpt>
      <trkpt lat="49.56809" lon="1.50793">
        <ele>157</ele>
        <time>2013-07-04T14:19:01Z</time>
      </trkpt>
      <trkpt lat="49.56807" lon="1.50807">
        <ele>157</ele>
        <time>2013-07-04T14:19:08Z</time>
      </trkpt>
      <trkpt lat="49.56804" lon="1.50821">
        <ele>157</ele>
        <time>2013-07-04T14:19:16Z</time>
      </trkpt>
      <trkpt lat="49.56801" lon="1.50835">
        <ele>157</ele>
        <time>2013-07-04T14:19:24Z</time>
      </trkpt>
      <trkpt lat="49.56798" lon="1.50849">
        <ele>157</ele>
        <time>2013-07-04T14:19:31Z</time>
      </trkpt>
      <trkpt lat="49.56795" lon="1.50863">
        <ele>157</ele>
        <time>2013-07-04T14:19:39Z</time>
      </trkpt>
      <trkpt lat="49.56793" lon="1.50877">
        <ele>157</ele>
        <time>2013-07-04T14:19:47Z</time>
      </trkpt>
      <trkpt lat="49.56789" lon="1.50891">
        <ele>157</ele>
        <time>2013-07-04T14:19:54Z</time>
      </trkpt>
      <trkpt lat="49.56787" lon="1.50906">
        <ele>157</ele>
        <time>2013-07-04T14:20:02Z</time>
      </trkpt>
      <trkpt lat="49.56785" lon="1.5092">
        <ele>157</ele>
        <time>2013-07-04T14:20:09Z</time>
      </trkpt>
      <trkpt lat="49.56783" lon="1.50933">
        <ele>157</ele>
        <time>2013-07-04T14:20:16Z</time>
      </trkpt>
      <trkpt lat="49.5678" lon="1.50948">
        <ele>157</ele>
        <time>2013-07-04T14:20:23Z</time>
      </trkpt>
      <trkpt lat="49.56778" lon="1.50963">
        <ele>157</ele>
        <time>2013-07-04T14:20:31Z</time>
      </trkpt>
      <trkpt lat="49.56777" lon="1.50978">
        <ele>157</ele>
        <time>2013-07-04T14:20:39Z</time>
      </trkpt>
      <trkpt lat="49.56776" lon="1.50993">
        <ele>157</ele>
        <time>2013-07-04T14:20:47Z</time>
      </trkpt>
      <trkpt lat="49.56775" lon="1.51009">
        <ele>163</ele>
        <time>2013-07-04T14:20:54Z</time>
      </trkpt>
      <trkpt lat="49.56775" lon="1.51024">
        <ele>163</ele>
        <time>2013-07-04T14:21:02Z</time>
      </trkpt>
      <trkpt lat="49.56776" lon="1.51038">
        <ele>163</ele>
        <time>2013-07-04T14:21:09Z</time>
      </trkpt>
      <trkpt lat="49.56775" lon="1.51053">
        <ele>163</ele>
        <time>2013-07-04T14:21:16Z</time>
      </trkpt>
      <trkpt lat="49.56776" lon="1.51067">
        <ele>163</ele>
        <time>2013-07-04T14:21:23Z</time>
      </trkpt>
      <trkpt lat="49.56776" lon="1.51082">
        <ele>163</ele>
        <time>2013-07-04T14:21:31Z</time>
      </trkpt>
      <trkpt lat="49.56777" lon="1.51098">
        <ele>163</ele>
        <time>2013-07-04T14:21:40Z</time>
      </trkpt>
      <trkpt lat="49.56778" lon="1.51113">
        <ele>163</ele>
        <time>2013-07-04T14:21:49Z</time>
      </trkpt>
      <trkpt lat="49.56778" lon="1.51127">
        <ele>163</ele>
        <time>2013-07-04T14:21:57Z</time>
      </trkpt>
      <trkpt lat="49.56774" lon="1.51141">
        <ele>163</ele>
        <time>2013-07-04T14:22:05Z</time>
      </trkpt>
      <trkpt lat="49.56775" lon="1.51156">
        <ele>163</ele>
        <time>2013-07-04T14:22:13Z</time>
      </trkpt>
      <trkpt lat="49.5678" lon="1.51169">
        <ele>163</ele>
        <time>2013-07-04T14:22:30Z</time>
      </trkpt>
      <trkpt lat="49.56786" lon="1.51179">
        <ele>163</ele>
        <time>2013-07-04T14:22:37Z</time>
      </trkpt>
      <trkpt lat="49.56788" lon="1.51194">
        <ele>163</ele>
        <time>2013-07-04T14:22:45Z</time>
      </trkpt>
      <trkpt lat="49.56788" lon="1.51209">
        <ele>163</ele>
        <time>2013-07-04T14:22:53Z</time>
      </trkpt>
      <trkpt lat="49.5679" lon="1.51224">
        <ele>163</ele>
        <time>2013-07-04T14:23:01Z</time>
      </trkpt>
      <trkpt lat="49.5679" lon="1.51239">
        <ele>163</ele>
        <time>2013-07-04T14:23:09Z</time>
      </trkpt>
      <trkpt lat="49.5679" lon="1.51254">
        <ele>163</ele>
        <time>2013-07-04T14:23:16Z</time>
      </trkpt>
      <trkpt lat="49.56789" lon="1.5127">
        <ele>163</ele>
        <time>2013-07-04T14:23:24Z</time>
      </trkpt>
      <trkpt lat="49.56787" lon="1.51284">
        <ele>163</ele>
        <time>2013-07-04T14:23:31Z</time>
      </trkpt>
      <trkpt lat="49.56785" lon="1.51299">
        <ele>163</ele>
        <time>2013-07-04T14:23:38Z</time>
      </trkpt>
      <trkpt lat="49.56783" lon="1.51312">
        <ele>163</ele>
        <time>2013-07-04T14:23:45Z</time>
      </trkpt>
      <trkpt lat="49.5678" lon="1.51327">
        <ele>163</ele>
        <time>2013-07-04T14:23:52Z</time>
      </trkpt>
      <trkpt lat="49.56778" lon="1.51342">
        <ele>163</ele>
        <time>2013-07-04T14:24:00Z</time>
      </trkpt>
      <trkpt lat="49.56776" lon="1.51356">
        <ele>163</ele>
        <time>2013-07-04T14:24:07Z</time>
      </trkpt>
      <trkpt lat="49.56774" lon="1.5137">
        <ele>163</ele>
        <time>2013-07-04T14:24:13Z</time>
      </trkpt>
      <trkpt lat="49.56771" lon="1.51384">
        <ele>163</ele>
        <time>2013-07-04T14:24:20Z</time>
      </trkpt>
      <trkpt lat="49.56769" lon="1.51398">
        <ele>163</ele>
        <time>2013-07-04T14:24:27Z</time>
      </trkpt>
      <trkpt lat="49.56766" lon="1.51411">
        <ele>163</ele>
        <time>2013-07-04T14:24:34Z</time>
      </trkpt>
      <trkpt lat="49.56764" lon="1.51425">
        <ele>163</ele>
        <time>2013-07-04T14:24:41Z</time>
      </trkpt>
      <trkpt lat="49.5676" lon="1.5144">
        <ele>163</ele>
        <time>2013-07-04T14:24:48Z</time>
      </trkpt>
      <trkpt lat="49.56758" lon="1.51454">
        <ele>163</ele>
        <time>2013-07-04T14:24:55Z</time>
      </trkpt>
      <trkpt lat="49.56755" lon="1.51468">
        <ele>156</ele>
        <time>2013-07-04T14:25:02Z</time>
      </trkpt>
      <trkpt lat="49.56752" lon="1.51483">
        <ele>156</ele>
        <time>2013-07-04T14:25:10Z</time>
      </trkpt>
      <trkpt lat="49.5675" lon="1.51497">
        <ele>156</ele>
        <time>2013-07-04T14:25:17Z</time>
      </trkpt>
      <trkpt lat="49.56746" lon="1.51511">
        <ele>156</ele>
        <time>2013-07-04T14:25:24Z</time>
      </trkpt>
      <trkpt lat="49.56742" lon="1.51525">
        <ele>156</ele>
        <time>2013-07-04T14:25:32Z</time>
      </trkpt>
      <trkpt lat="49.56737" lon="1.51539">
        <ele>156</ele>
        <time>2013-07-04T14:25:39Z</time>
      </trkpt>
      <trkpt lat="49.56733" lon="1.51553">
        <ele>156</ele>
        <time>2013-07-04T14:25:47Z</time>
      </trkpt>
      <trkpt lat="49.56729" lon="1.51567">
        <ele>156</ele>
        <time>2013-07-04T14:25:54Z</time>
      </trkpt>
      <trkpt lat="49.56725" lon="1.51581">
        <ele>156</ele>
        <time>2013-07-04T14:26:01Z</time>
      </trkpt>
      <trkpt lat="49.56723" lon="1.51594">
        <ele>156</ele>
        <time>2013-07-04T14:26:09Z</time>
      </trkpt>
      <trkpt lat="49.56719" lon="1.51609">
        <ele>156</ele>
        <time>2013-07-04T14:26:15Z</time>
      </trkpt>
      <trkpt lat="49.56718" lon="1.51623">
        <ele>156</ele>
        <time>2013-07-04T14:26:22Z</time>
      </trkpt>
      <trkpt lat="49.56717" lon="1.51638">
        <ele>156</ele>
        <time>2013-07-04T14:26:30Z</time>
      </trkpt>
      <trkpt lat="49.56717" lon="1.51653">
        <ele>156</ele>
        <time>2013-07-04T14:26:37Z</time>
      </trkpt>
      <trkpt lat="49.56715" lon="1.51667">
        <ele>156</ele>
        <time>2013-07-04T14:26:44Z</time>
      </trkpt>
      <trkpt lat="49.56715" lon="1.51681">
        <ele>156</ele>
        <time>2013-07-04T14:26:51Z</time>
      </trkpt>
      <trkpt lat="49.56712" lon="1.51696">
        <ele>156</ele>
        <time>2013-07-04T14:26:58Z</time>
      </trkpt>
      <trkpt lat="49.56712" lon="1.5171">
        <ele>156</ele>
        <time>2013-07-04T14:27:05Z</time>
      </trkpt>
      <trkpt lat="49.56711" lon="1.51725">
        <ele>156</ele>
        <time>2013-07-04T14:27:12Z</time>
      </trkpt>
      <trkpt lat="49.56711" lon="1.5174">
        <ele>156</ele>
        <time>2013-07-04T14:27:19Z</time>
      </trkpt>
      <trkpt lat="49.56711" lon="1.51754">
        <ele>156</ele>
        <time>2013-07-04T14:27:27Z</time>
      </trkpt>
      <trkpt lat="49.56711" lon="1.51769">
        <ele>156</ele>
        <time>2013-07-04T14:27:34Z</time>
      </trkpt>
      <trkpt lat="49.56711" lon="1.51785">
        <ele>156</ele>
        <time>2013-07-04T14:27:42Z</time>
      </trkpt>
      <trkpt lat="49.5671" lon="1.51801">
        <ele>156</ele>
        <time>2013-07-04T14:27:54Z</time>
      </trkpt>
      <trkpt lat="49.56711" lon="1.51816">
        <ele>156</ele>
        <time>2013-07-04T14:28:03Z</time>
      </trkpt>
      <trkpt lat="49.5671" lon="1.51832">
        <ele>156</ele>
        <time>2013-07-04T14:28:10Z</time>
      </trkpt>
      <trkpt lat="49.56709" lon="1.51847">
        <ele>156</ele>
        <time>2013-07-04T14:28:18Z</time>
      </trkpt>
      <trkpt lat="49.56707" lon="1.51861">
        <ele>156</ele>
        <time>2013-07-04T14:28:25Z</time>
      </trkpt>
      <trkpt lat="49.56706" lon="1.51877">
        <ele>156</ele>
        <time>2013-07-04T14:28:32Z</time>
      </trkpt>
      <trkpt lat="49.56706" lon="1.51893">
        <ele>156</ele>
        <time>2013-07-04T14:28:40Z</time>
      </trkpt>
      <trkpt lat="49.56704" lon="1.51909">
        <ele>156</ele>
        <time>2013-07-04T14:28:49Z</time>
      </trkpt>
      <trkpt lat="49.56701" lon="1.51923">
        <ele>156</ele>
        <time>2013-07-04T14:28:56Z</time>
      </trkpt>
      <trkpt lat="49.56701" lon="1.51939">
        <ele>156</ele>
        <time>2013-07-04T14:29:03Z</time>
      </trkpt>
      <trkpt lat="49.56701" lon="1.51955">
        <ele>156</ele>
        <time>2013-07-04T14:29:11Z</time>
      </trkpt>
      <trkpt lat="49.567" lon="1.5197">
        <ele>156</ele>
        <time>2013-07-04T14:29:18Z</time>
      </trkpt>
      <trkpt lat="49.56699" lon="1.51985">
        <ele>156</ele>
        <time>2013-07-04T14:29:25Z</time>
      </trkpt>
      <trkpt lat="49.56697" lon="1.51999">
        <ele>156</ele>
        <time>2013-07-04T14:29:33Z</time>
      </trkpt>
      <trkpt lat="49.56694" lon="1.52013">
        <ele>156</ele>
        <time>2013-07-04T14:29:39Z</time>
      </trkpt>
      <trkpt lat="49.56691" lon="1.52028">
        <ele>156</ele>
        <time>2013-07-04T14:29:46Z</time>
      </trkpt>
      <trkpt lat="49.56687" lon="1.52044">
        <ele>156</ele>
        <time>2013-07-04T14:29:54Z</time>
      </trkpt>
      <trkpt lat="49.56686" lon="1.52058">
        <ele>156</ele>
        <time>2013-07-04T14:30:03Z</time>
      </trkpt>
      <trkpt lat="49.56693" lon="1.52068">
        <ele>156</ele>
        <time>2013-07-04T14:30:10Z</time>
      </trkpt>
      <trkpt lat="49.56699" lon="1.52079">
        <ele>156</ele>
        <time>2013-07-04T14:30:16Z</time>
      </trkpt>
      <trkpt lat="49.56704" lon="1.52093">
        <ele>149</ele>
        <time>2013-07-04T14:30:25Z</time>
      </trkpt>
      <trkpt lat="49.56712" lon="1.52105">
        <ele>149</ele>
        <time>2013-07-04T14:30:32Z</time>
      </trkpt>
      <trkpt lat="49.5672" lon="1.52112">
        <ele>149</ele>
        <time>2013-07-04T14:30:39Z</time>
      </trkpt>
      <trkpt lat="49.56729" lon="1.52119">
        <ele>149</ele>
        <time>2013-07-04T14:30:46Z</time>
      </trkpt>
      <trkpt lat="49.56737" lon="1.52127">
        <ele>149</ele>
        <time>2013-07-04T14:30:53Z</time>
      </trkpt>
      <trkpt lat="49.56745" lon="1.52135">
        <ele>149</ele>
        <time>2013-07-04T14:31:00Z</time>
      </trkpt>
      <trkpt lat="49.56753" lon="1.52143">
        <ele>149</ele>
        <time>2013-07-04T14:31:07Z</time>
      </trkpt>
      <trkpt lat="49.56762" lon="1.5215">
        <ele>149</ele>
        <time>2013-07-04T14:31:14Z</time>
      </trkpt>
      <trkpt lat="49.56771" lon="1.52158">
        <ele>149</ele>
        <time>2013-07-04T14:31:21Z</time>
      </trkpt>
      <trkpt lat="49.5678" lon="1.52164">
        <ele>142</ele>
        <time>2013-07-04T14:31:28Z</time>
      </trkpt>
      <trkpt lat="49.56789" lon="1.5217">
        <ele>142</ele>
        <time>2013-07-04T14:31:36Z</time>
      </trkpt>
      <trkpt lat="49.56798" lon="1.52176">
        <ele>142</ele>
        <time>2013-07-04T14:31:43Z</time>
      </trkpt>
      <trkpt lat="49.56807" lon="1.52179">
        <ele>142</ele>
        <time>2013-07-04T14:31:50Z</time>
      </trkpt>
      <trkpt lat="49.56816" lon="1.52185">
        <ele>142</ele>
        <time>2013-07-04T14:31:57Z</time>
      </trkpt>
      <trkpt lat="49.56824" lon="1.52194">
        <ele>142</ele>
        <time>2013-07-04T14:32:05Z</time>
      </trkpt>
      <trkpt lat="49.56832" lon="1.52205">
        <ele>142</ele>
        <time>2013-07-04T14:32:12Z</time>
      </trkpt>
      <trkpt lat="49.56839" lon="1.52216">
        <ele>142</ele>
        <time>2013-07-04T14:32:19Z</time>
      </trkpt>
      <trkpt lat="49.56846" lon="1.52227">
        <ele>142</ele>
        <time>2013-07-04T14:32:27Z</time>
      </trkpt>
      <trkpt lat="49.56853" lon="1.52237">
        <ele>142</ele>
        <time>2013-07-04T14:32:34Z</time>
      </trkpt>
      <trkpt lat="49.5686" lon="1.52247">
        <ele>142</ele>
        <time>2013-07-04T14:32:42Z</time>
      </trkpt>
      <trkpt lat="49.56867" lon="1.52256">
        <ele>142</ele>
        <time>2013-07-04T14:32:49Z</time>
      </trkpt>
      <trkpt lat="49.56875" lon="1.52264">
        <ele>142</ele>
        <time>2013-07-04T14:32:56Z</time>
      </trkpt>
      <trkpt lat="49.56883" lon="1.52272">
        <ele>137</ele>
        <time>2013-07-04T14:33:03Z</time>
      </trkpt>
      <trkpt lat="49.56892" lon="1.5228">
        <ele>137</ele>
        <time>2013-07-04T14:33:10Z</time>
      </trkpt>
      <trkpt lat="49.569" lon="1.52287">
        <ele>137</ele>
        <time>2013-07-04T14:33:17Z</time>
      </trkpt>
      <trkpt lat="49.56909" lon="1.52292">
        <ele>137</ele>
        <time>2013-07-04T14:33:24Z</time>
      </trkpt>
      <trkpt lat="49.56918" lon="1.52298">
        <ele>137</ele>
        <time>2013-07-04T14:33:31Z</time>
      </trkpt>
      <trkpt lat="49.56927" lon="1.52302">
        <ele>137</ele>
        <time>2013-07-04T14:33:38Z</time>
      </trkpt>
      <trkpt lat="49.56937" lon="1.52303">
        <ele>137</ele>
        <time>2013-07-04T14:33:46Z</time>
      </trkpt>
      <trkpt lat="49.56947" lon="1.52298">
        <ele>137</ele>
        <time>2013-07-04T14:33:53Z</time>
      </trkpt>
      <trkpt lat="49.56956" lon="1.52294">
        <ele>137</ele>
        <time>2013-07-04T14:34:01Z</time>
      </trkpt>
      <trkpt lat="49.56965" lon="1.52291">
        <ele>137</ele>
        <time>2013-07-04T14:34:07Z</time>
      </trkpt>
      <trkpt lat="49.56974" lon="1.52287">
        <ele>137</ele>
        <time>2013-07-04T14:34:14Z</time>
      </trkpt>
      <trkpt lat="49.56984" lon="1.52282">
        <ele>137</ele>
        <time>2013-07-04T14:34:23Z</time>
      </trkpt>
      <trkpt lat="49.56995" lon="1.5228">
        <ele>137</ele>
        <time>2013-07-04T14:34:32Z</time>
      </trkpt>
      <trkpt lat="49.57004" lon="1.52275">
        <ele>137</ele>
        <time>2013-07-04T14:34:41Z</time>
      </trkpt>
      <trkpt lat="49.5701" lon="1.52264">
        <ele>148</ele>
        <time>2013-07-04T14:34:52Z</time>
      </trkpt>
      <trkpt lat="49.5702" lon="1.52264">
        <ele>148</ele>
        <time>2013-07-04T14:34:59Z</time>
      </trkpt>
      <trkpt lat="49.57029" lon="1.52266">
        <ele>148</ele>
        <time>2013-07-04T14:35:05Z</time>
      </trkpt>
      <trkpt lat="49.57038" lon="1.52266">
        <ele>148</ele>
        <time>2013-07-04T14:35:14Z</time>
      </trkpt>
      <trkpt lat="49.57048" lon="1.52265">
        <ele>148</ele>
        <time>2013-07-04T14:35:21Z</time>
      </trkpt>
      <trkpt lat="49.57057" lon="1.52265">
        <ele>148</ele>
        <time>2013-07-04T14:35:31Z</time>
      </trkpt>
      <trkpt lat="49.57068" lon="1.52266">
        <ele>155</ele>
        <time>2013-07-04T14:35:40Z</time>
      </trkpt>
      <trkpt lat="49.57078" lon="1.52267">
        <ele>155</ele>
        <time>2013-07-04T14:35:46Z</time>
      </trkpt>
      <trkpt lat="49.57087" lon="1.52267">
        <ele>155</ele>
        <time>2013-07-04T14:35:54Z</time>
      </trkpt>
      <trkpt lat="49.57097" lon="1.52267">
        <ele>155</ele>
        <time>2013-07-04T14:36:02Z</time>
      </trkpt>
      <trkpt lat="49.57106" lon="1.52264">
        <ele>155</ele>
        <time>2013-07-04T14:36:09Z</time>
      </trkpt>
      <trkpt lat="49.57116" lon="1.52264">
        <ele>155</ele>
        <time>2013-07-04T14:36:18Z</time>
      </trkpt>
      <trkpt lat="49.57127" lon="1.52264">
        <ele>155</ele>
        <time>2013-07-04T14:36:27Z</time>
      </trkpt>
      <trkpt lat="49.57137" lon="1.52264">
        <ele>155</ele>
        <time>2013-07-04T14:36:33Z</time>
      </trkpt>
      <trkpt lat="49.57147" lon="1.52261">
        <ele>155</ele>
        <time>2013-07-04T14:36:43Z</time>
      </trkpt>
      <trkpt lat="49.57156" lon="1.52262">
        <ele>155</ele>
        <time>2013-07-04T14:36:51Z</time>
      </trkpt>
      <trkpt lat="49.57166" lon="1.52262">
        <ele>155</ele>
        <time>2013-07-04T14:36:59Z</time>
      </trkpt>
      <trkpt lat="49.57176" lon="1.52262">
        <ele>165</ele>
        <time>2013-07-04T14:37:10Z</time>
      </trkpt>
      <trkpt lat="49.57186" lon="1.52262">
        <ele>165</ele>
        <time>2013-07-04T14:37:21Z</time>
      </trkpt>
      <trkpt lat="49.57196" lon="1.52259">
        <ele>165</ele>
        <time>2013-07-04T14:37:26Z</time>
      </trkpt>
      <trkpt lat="49.57205" lon="1.52259">
        <ele>165</ele>
        <time>2013-07-04T14:37:32Z</time>
      </trkpt>
      <trkpt lat="49.57215" lon="1.52256">
        <ele>165</ele>
        <time>2013-07-04T14:37:39Z</time>
      </trkpt>
      <trkpt lat="49.57225" lon="1.52254">
        <ele>165</ele>
        <time>2013-07-04T14:37:46Z</time>
      </trkpt>
      <trkpt lat="49.57234" lon="1.5225">
        <ele>165</ele>
        <time>2013-07-04T14:37:54Z</time>
      </trkpt>
      <trkpt lat="49.57243" lon="1.52247">
        <ele>159</ele>
        <time>2013-07-04T14:38:00Z</time>
      </trkpt>
      <trkpt lat="49.57252" lon="1.52242">
        <ele>159</ele>
        <time>2013-07-04T14:38:08Z</time>
      </trkpt>
      <trkpt lat="49.57262" lon="1.5224">
        <ele>159</ele>
        <time>2013-07-04T14:38:16Z</time>
      </trkpt>
      <trkpt lat="49.5727" lon="1.52237">
        <ele>159</ele>
        <time>2013-07-04T14:38:24Z</time>
      </trkpt>
      <trkpt lat="49.5728" lon="1.5223">
        <ele>159</ele>
        <time>2013-07-04T14:38:33Z</time>
      </trkpt>
      <trkpt lat="49.5729" lon="1.52229">
        <ele>159</ele>
        <time>2013-07-04T14:38:41Z</time>
      </trkpt>
      <trkpt lat="49.57299" lon="1.52226">
        <ele>159</ele>
        <time>2013-07-04T14:38:49Z</time>
      </trkpt>
      <trkpt lat="49.57309" lon="1.52223">
        <ele>166</ele>
        <time>2013-07-04T14:38:58Z</time>
      </trkpt>
      <trkpt lat="49.57319" lon="1.52221">
        <ele>166</ele>
        <time>2013-07-04T14:39:06Z</time>
      </trkpt>
      <trkpt lat="49.57329" lon="1.5222">
        <ele>166</ele>
        <time>2013-07-04T14:39:14Z</time>
      </trkpt>
      <trkpt lat="49.57339" lon="1.52218">
        <ele>166</ele>
        <time>2013-07-04T14:39:21Z</time>
      </trkpt>
      <trkpt lat="49.57348" lon="1.5222">
        <ele>166</ele>
        <time>2013-07-04T14:39:29Z</time>
      </trkpt>
      <trkpt lat="49.57358" lon="1.5222">
        <ele>166</ele>
        <time>2013-07-04T14:39:37Z</time>
      </trkpt>
      <trkpt lat="49.57367" lon="1.5222">
        <ele>166</ele>
        <time>2013-07-04T14:39:50Z</time>
      </trkpt>
      <trkpt lat="49.57377" lon="1.52221">
        <ele>173</ele>
        <time>2013-07-04T14:39:58Z</time>
      </trkpt>
      <trkpt lat="49.57387" lon="1.52221">
        <ele>173</ele>
        <time>2013-07-04T14:40:06Z</time>
      </trkpt>
      <trkpt lat="49.57397" lon="1.52222">
        <ele>173</ele>
        <time>2013-07-04T14:40:15Z</time>
      </trkpt>
      <trkpt lat="49.57407" lon="1.52225">
        <ele>173</ele>
        <time>2013-07-04T14:40:25Z</time>
      </trkpt>
      <trkpt lat="49.57416" lon="1.52228">
        <ele>173</ele>
        <time>2013-07-04T14:40:32Z</time>
      </trkpt>
      <trkpt lat="49.57426" lon="1.52229">
        <ele>173</ele>
        <time>2013-07-04T14:40:39Z</time>
      </trkpt>
      <trkpt lat="49.57435" lon="1.52229">
        <ele>173</ele>
        <time>2013-07-04T14:40:47Z</time>
      </trkpt>
      <trkpt lat="49.57445" lon="1.52229">
        <ele>173</ele>
        <time>2013-07-04T14:40:55Z</time>
      </trkpt>
      <trkpt lat="49.57455" lon="1.52233">
        <ele>173</ele>
        <time>2013-07-04T14:41:03Z</time>
      </trkpt>
      <trkpt lat="49.57464" lon="1.52235">
        <ele>173</ele>
        <time>2013-07-04T14:41:10Z</time>
      </trkpt>
      <trkpt lat="49.57475" lon="1.52238">
        <ele>173</ele>
        <time>2013-07-04T14:41:18Z</time>
      </trkpt>
      <trkpt lat="49.57484" lon="1.52241">
        <ele>173</ele>
        <time>2013-07-04T14:41:25Z</time>
      </trkpt>
      <trkpt lat="49.57493" lon="1.52244">
        <ele>173</ele>
        <time>2013-07-04T14:41:33Z</time>
      </trkpt>
      <trkpt lat="49.57504" lon="1.52248">
        <ele>173</ele>
        <time>2013-07-04T14:41:40Z</time>
      </trkpt>
      <trkpt lat="49.57513" lon="1.5225">
        <ele>173</ele>
        <time>2013-07-04T14:41:47Z</time>
      </trkpt>
      <trkpt lat="49.5752" lon="1.52259">
        <ele>185</ele>
        <time>2013-07-04T14:42:01Z</time>
      </trkpt>
      <trkpt lat="49.5753" lon="1.52263">
        <ele>185</ele>
        <time>2013-07-04T14:42:09Z</time>
      </trkpt>
      <trkpt lat="49.57541" lon="1.52264">
        <ele>185</ele>
        <time>2013-07-04T14:42:14Z</time>
      </trkpt>
      <trkpt lat="49.5755" lon="1.52266">
        <ele>185</ele>
        <time>2013-07-04T14:42:20Z</time>
      </trkpt>
      <trkpt lat="49.57558" lon="1.52273">
        <ele>185</ele>
        <time>2013-07-04T14:42:32Z</time>
      </trkpt>
      <trkpt lat="49.57568" lon="1.5228">
        <ele>185</ele>
        <time>2013-07-04T14:42:39Z</time>
      </trkpt>
      <trkpt lat="49.57578" lon="1.52282">
        <ele>185</ele>
        <time>2013-07-04T14:42:45Z</time>
      </trkpt>
    </trkseg>
  </trk>
</gpx>